<?xml version="1.0" encoding="UTF-8" standalone="no" ?>
<gpx xmlns="http://www.topografix.com/GPX/1/1" xmlns:xsi="http://www.w3.org/2001/XMLSchema-instance" xsi:schemaLocation="http://www.topografix.com/GPX/1/1 http://www.topografix.com/GPX/1/1/gpx.xsd" version="1.1" creator="VisuGPX - https://www.visugpx.com">
  <metadata>
    <name>La Montagne Pont Saint Martin Le Bignon St Fiacre</name>
    <desc><![CDATA[La Montagne Pont Saint Martin Le Bignon St Fiacre]]></desc>
  </metadata>
  <trk>
    <name><![CDATA[2015-04-21 17:32]]></name>
    <desc><![CDATA[<h1>OruxMaps</h1><br /><hr align="center" width="480" style="height: 2px; width: 517px"/><h2>Nom: 2015-04-21 17:32</h2><br /><p>Temps de départ: 04/21/2015 17:48</p><p>Temps d'arrivée: 04/21/2015 20:12</p><p>Distance: 55,4km (02:24)</p><p>Temps déplacement: 02:23</p><p>Vitesse moyenne: 23km/h</p><p>Vitesse moyenne: 23,2km/h</p><p>Vitess Max.: 41,2km/h</p><p>Altitude minimale: -25m</p><p>Altitude maximale: 53m</p><p>Vitesse d'élévation: 804,2m/h</p><p>Vitesse de descente: -807,4m/h</p><p>Gain Altitude: 604m</p><p>Perte Altitude: -539m</p><p>Temps d'élévation: 00:45</p><p>Temps de descente: 00:40</p><hr align="center" width="480" style="height: 2px; width: 517px"/>]]></desc>
    <trkseg>
      <trkpt lat="47.17273" lon="-1.67925">
        <ele>-25.7</ele>
        <time>2015-04-21T15:48:14Z</time>
      </trkpt>
      <trkpt lat="47.17252" lon="-1.67907">
        <ele>-20.7</ele>
        <time>2015-04-21T15:48:17Z</time>
      </trkpt>
      <trkpt lat="47.17234" lon="-1.67887">
        <ele>-16.5</ele>
        <time>2015-04-21T15:48:20Z</time>
      </trkpt>
      <trkpt lat="47.17217" lon="-1.67868">
        <ele>-13.1</ele>
        <time>2015-04-21T15:48:23Z</time>
      </trkpt>
      <trkpt lat="47.172" lon="-1.67849">
        <ele>-10</ele>
        <time>2015-04-21T15:48:26Z</time>
      </trkpt>
      <trkpt lat="47.17182" lon="-1.67828">
        <ele>-7.7</ele>
        <time>2015-04-21T15:48:29Z</time>
      </trkpt>
      <trkpt lat="47.17165" lon="-1.67809">
        <ele>-5.3</ele>
        <time>2015-04-21T15:48:32Z</time>
      </trkpt>
      <trkpt lat="47.17149" lon="-1.67791">
        <ele>-3.8</ele>
        <time>2015-04-21T15:48:35Z</time>
      </trkpt>
      <trkpt lat="47.1713" lon="-1.67772">
        <ele>-2.7</ele>
        <time>2015-04-21T15:48:38Z</time>
      </trkpt>
      <trkpt lat="47.17113" lon="-1.67753">
        <ele>-1.9</ele>
        <time>2015-04-21T15:48:41Z</time>
      </trkpt>
      <trkpt lat="47.17095" lon="-1.67731">
        <ele>-2.2</ele>
        <time>2015-04-21T15:48:44Z</time>
      </trkpt>
      <trkpt lat="47.17076" lon="-1.6771">
        <ele>-1.4</ele>
        <time>2015-04-21T15:48:47Z</time>
      </trkpt>
      <trkpt lat="47.17056" lon="-1.67688">
        <ele>0.2</ele>
        <time>2015-04-21T15:48:51Z</time>
      </trkpt>
      <trkpt lat="47.17042" lon="-1.67671">
        <ele>1.1</ele>
        <time>2015-04-21T15:48:54Z</time>
      </trkpt>
      <trkpt lat="47.17026" lon="-1.67651">
        <ele>1.7</ele>
        <time>2015-04-21T15:48:57Z</time>
      </trkpt>
      <trkpt lat="47.17008" lon="-1.67632">
        <ele>2.2</ele>
        <time>2015-04-21T15:49:00Z</time>
      </trkpt>
      <trkpt lat="47.1699" lon="-1.67614">
        <ele>3.8</ele>
        <time>2015-04-21T15:49:03Z</time>
      </trkpt>
      <trkpt lat="47.16976" lon="-1.67595">
        <ele>5.9</ele>
        <time>2015-04-21T15:49:06Z</time>
      </trkpt>
      <trkpt lat="47.16963" lon="-1.67576">
        <ele>6.4</ele>
        <time>2015-04-21T15:49:09Z</time>
      </trkpt>
      <trkpt lat="47.16947" lon="-1.6756">
        <ele>7</ele>
        <time>2015-04-21T15:49:12Z</time>
      </trkpt>
      <trkpt lat="47.1693" lon="-1.67543">
        <ele>7.5</ele>
        <time>2015-04-21T15:49:15Z</time>
      </trkpt>
      <trkpt lat="47.16914" lon="-1.67527">
        <ele>8</ele>
        <time>2015-04-21T15:49:18Z</time>
      </trkpt>
      <trkpt lat="47.16898" lon="-1.67512">
        <ele>8.8</ele>
        <time>2015-04-21T15:49:21Z</time>
      </trkpt>
      <trkpt lat="47.16883" lon="-1.67493">
        <ele>9.5</ele>
        <time>2015-04-21T15:49:24Z</time>
      </trkpt>
      <trkpt lat="47.16866" lon="-1.67473">
        <ele>9.8</ele>
        <time>2015-04-21T15:49:27Z</time>
      </trkpt>
      <trkpt lat="47.16852" lon="-1.67453">
        <ele>10.5</ele>
        <time>2015-04-21T15:49:30Z</time>
      </trkpt>
      <trkpt lat="47.16838" lon="-1.67436">
        <ele>11.2</ele>
        <time>2015-04-21T15:49:33Z</time>
      </trkpt>
      <trkpt lat="47.16824" lon="-1.67418">
        <ele>11.4</ele>
        <time>2015-04-21T15:49:36Z</time>
      </trkpt>
      <trkpt lat="47.16808" lon="-1.674">
        <ele>11.5</ele>
        <time>2015-04-21T15:49:39Z</time>
      </trkpt>
      <trkpt lat="47.16791" lon="-1.6738">
        <ele>11.5</ele>
        <time>2015-04-21T15:49:42Z</time>
      </trkpt>
      <trkpt lat="47.16774" lon="-1.67363">
        <ele>11.4</ele>
        <time>2015-04-21T15:49:45Z</time>
      </trkpt>
      <trkpt lat="47.16756" lon="-1.67345">
        <ele>11.2</ele>
        <time>2015-04-21T15:49:48Z</time>
      </trkpt>
      <trkpt lat="47.16739" lon="-1.67328">
        <ele>10.9</ele>
        <time>2015-04-21T15:49:51Z</time>
      </trkpt>
      <trkpt lat="47.16722" lon="-1.67317">
        <ele>10.9</ele>
        <time>2015-04-21T15:49:54Z</time>
      </trkpt>
      <trkpt lat="47.16704" lon="-1.67306">
        <ele>10.7</ele>
        <time>2015-04-21T15:49:57Z</time>
      </trkpt>
      <trkpt lat="47.16686" lon="-1.67298">
        <ele>7.5</ele>
        <time>2015-04-21T15:50:00Z</time>
      </trkpt>
      <trkpt lat="47.16666" lon="-1.6729">
        <ele>6.4</ele>
        <time>2015-04-21T15:50:03Z</time>
      </trkpt>
      <trkpt lat="47.16645" lon="-1.67283">
        <ele>6.1</ele>
        <time>2015-04-21T15:50:06Z</time>
      </trkpt>
      <trkpt lat="47.16625" lon="-1.67277">
        <ele>5.1</ele>
        <time>2015-04-21T15:50:09Z</time>
      </trkpt>
      <trkpt lat="47.16606" lon="-1.67268">
        <ele>4.6</ele>
        <time>2015-04-21T15:50:12Z</time>
      </trkpt>
      <trkpt lat="47.16584" lon="-1.6726">
        <ele>4.7</ele>
        <time>2015-04-21T15:50:15Z</time>
      </trkpt>
      <trkpt lat="47.16563" lon="-1.67254">
        <ele>4.6</ele>
        <time>2015-04-21T15:50:18Z</time>
      </trkpt>
      <trkpt lat="47.16541" lon="-1.67247">
        <ele>4.5</ele>
        <time>2015-04-21T15:50:21Z</time>
      </trkpt>
      <trkpt lat="47.1652" lon="-1.67243">
        <ele>4.4</ele>
        <time>2015-04-21T15:50:24Z</time>
      </trkpt>
      <trkpt lat="47.16496" lon="-1.67238">
        <ele>4.6</ele>
        <time>2015-04-21T15:50:27Z</time>
      </trkpt>
      <trkpt lat="47.16473" lon="-1.67233">
        <ele>4.4</ele>
        <time>2015-04-21T15:50:30Z</time>
      </trkpt>
      <trkpt lat="47.16449" lon="-1.67227">
        <ele>4.1</ele>
        <time>2015-04-21T15:50:33Z</time>
      </trkpt>
      <trkpt lat="47.16425" lon="-1.6722">
        <ele>4</ele>
        <time>2015-04-21T15:50:36Z</time>
      </trkpt>
      <trkpt lat="47.16402" lon="-1.67221">
        <ele>3.8</ele>
        <time>2015-04-21T15:50:38Z</time>
      </trkpt>
      <trkpt lat="47.16378" lon="-1.67218">
        <ele>3.5</ele>
        <time>2015-04-21T15:50:41Z</time>
      </trkpt>
      <trkpt lat="47.16359" lon="-1.67214">
        <ele>3.2</ele>
        <time>2015-04-21T15:50:43Z</time>
      </trkpt>
      <trkpt lat="47.16336" lon="-1.67209">
        <ele>2.9</ele>
        <time>2015-04-21T15:50:46Z</time>
      </trkpt>
      <trkpt lat="47.1631" lon="-1.67204">
        <ele>2.5</ele>
        <time>2015-04-21T15:50:49Z</time>
      </trkpt>
      <trkpt lat="47.16285" lon="-1.67201">
        <ele>2.1</ele>
        <time>2015-04-21T15:50:52Z</time>
      </trkpt>
      <trkpt lat="47.16264" lon="-1.67195">
        <ele>1.9</ele>
        <time>2015-04-21T15:50:55Z</time>
      </trkpt>
      <trkpt lat="47.16246" lon="-1.67185">
        <ele>1.5</ele>
        <time>2015-04-21T15:50:58Z</time>
      </trkpt>
      <trkpt lat="47.16222" lon="-1.67176">
        <ele>1.1</ele>
        <time>2015-04-21T15:51:02Z</time>
      </trkpt>
      <trkpt lat="47.16204" lon="-1.67169">
        <ele>0.9</ele>
        <time>2015-04-21T15:51:05Z</time>
      </trkpt>
      <trkpt lat="47.16186" lon="-1.67164">
        <ele>0.7</ele>
        <time>2015-04-21T15:51:08Z</time>
      </trkpt>
      <trkpt lat="47.16168" lon="-1.67157">
        <ele>0.5</ele>
        <time>2015-04-21T15:51:11Z</time>
      </trkpt>
      <trkpt lat="47.16146" lon="-1.67148">
        <ele>0.1</ele>
        <time>2015-04-21T15:51:15Z</time>
      </trkpt>
      <trkpt lat="47.16124" lon="-1.67137">
        <ele>-0.5</ele>
        <time>2015-04-21T15:51:19Z</time>
      </trkpt>
      <trkpt lat="47.16105" lon="-1.67133">
        <ele>-0.9</ele>
        <time>2015-04-21T15:51:22Z</time>
      </trkpt>
      <trkpt lat="47.16083" lon="-1.67121">
        <ele>-1.1</ele>
        <time>2015-04-21T15:51:26Z</time>
      </trkpt>
      <trkpt lat="47.16066" lon="-1.67115">
        <ele>-1.4</ele>
        <time>2015-04-21T15:51:29Z</time>
      </trkpt>
      <trkpt lat="47.16047" lon="-1.6711">
        <ele>-1.6</ele>
        <time>2015-04-21T15:51:32Z</time>
      </trkpt>
      <trkpt lat="47.1603" lon="-1.67104">
        <ele>-1.9</ele>
        <time>2015-04-21T15:51:35Z</time>
      </trkpt>
      <trkpt lat="47.16012" lon="-1.67098">
        <ele>-1.9</ele>
        <time>2015-04-21T15:51:38Z</time>
      </trkpt>
      <trkpt lat="47.1599" lon="-1.67089">
        <ele>-2.3</ele>
        <time>2015-04-21T15:51:42Z</time>
      </trkpt>
      <trkpt lat="47.15968" lon="-1.67083">
        <ele>-2.5</ele>
        <time>2015-04-21T15:51:46Z</time>
      </trkpt>
      <trkpt lat="47.15949" lon="-1.67077">
        <ele>-2.6</ele>
        <time>2015-04-21T15:51:49Z</time>
      </trkpt>
      <trkpt lat="47.1593" lon="-1.67073">
        <ele>-2.8</ele>
        <time>2015-04-21T15:51:52Z</time>
      </trkpt>
      <trkpt lat="47.15907" lon="-1.67066">
        <ele>-3</ele>
        <time>2015-04-21T15:51:56Z</time>
      </trkpt>
      <trkpt lat="47.15889" lon="-1.67061">
        <ele>-3.2</ele>
        <time>2015-04-21T15:51:59Z</time>
      </trkpt>
      <trkpt lat="47.1587" lon="-1.67056">
        <ele>-3.4</ele>
        <time>2015-04-21T15:52:02Z</time>
      </trkpt>
      <trkpt lat="47.15847" lon="-1.67048">
        <ele>-3.6</ele>
        <time>2015-04-21T15:52:06Z</time>
      </trkpt>
      <trkpt lat="47.15826" lon="-1.67043">
        <ele>-3.9</ele>
        <time>2015-04-21T15:52:09Z</time>
      </trkpt>
      <trkpt lat="47.15805" lon="-1.67038">
        <ele>-4.1</ele>
        <time>2015-04-21T15:52:12Z</time>
      </trkpt>
      <trkpt lat="47.15786" lon="-1.67031">
        <ele>-4.3</ele>
        <time>2015-04-21T15:52:15Z</time>
      </trkpt>
      <trkpt lat="47.15767" lon="-1.67025">
        <ele>-4.5</ele>
        <time>2015-04-21T15:52:18Z</time>
      </trkpt>
      <trkpt lat="47.15743" lon="-1.67017">
        <ele>-4.6</ele>
        <time>2015-04-21T15:52:22Z</time>
      </trkpt>
      <trkpt lat="47.15725" lon="-1.67011">
        <ele>-4.8</ele>
        <time>2015-04-21T15:52:25Z</time>
      </trkpt>
      <trkpt lat="47.15705" lon="-1.67005">
        <ele>-4.9</ele>
        <time>2015-04-21T15:52:28Z</time>
      </trkpt>
      <trkpt lat="47.15684" lon="-1.66999">
        <ele>-5</ele>
        <time>2015-04-21T15:52:31Z</time>
      </trkpt>
      <trkpt lat="47.15666" lon="-1.66992">
        <ele>-5.3</ele>
        <time>2015-04-21T15:52:34Z</time>
      </trkpt>
      <trkpt lat="47.15646" lon="-1.66986">
        <ele>-5.6</ele>
        <time>2015-04-21T15:52:37Z</time>
      </trkpt>
      <trkpt lat="47.15628" lon="-1.66982">
        <ele>-5.7</ele>
        <time>2015-04-21T15:52:40Z</time>
      </trkpt>
      <trkpt lat="47.15607" lon="-1.66975">
        <ele>-5.9</ele>
        <time>2015-04-21T15:52:43Z</time>
      </trkpt>
      <trkpt lat="47.15589" lon="-1.66971">
        <ele>-6</ele>
        <time>2015-04-21T15:52:46Z</time>
      </trkpt>
      <trkpt lat="47.15569" lon="-1.66967">
        <ele>-6.3</ele>
        <time>2015-04-21T15:52:49Z</time>
      </trkpt>
      <trkpt lat="47.15549" lon="-1.6696">
        <ele>-6.1</ele>
        <time>2015-04-21T15:52:52Z</time>
      </trkpt>
      <trkpt lat="47.15529" lon="-1.66954">
        <ele>-6.1</ele>
        <time>2015-04-21T15:52:55Z</time>
      </trkpt>
      <trkpt lat="47.15509" lon="-1.66946">
        <ele>-6.3</ele>
        <time>2015-04-21T15:52:58Z</time>
      </trkpt>
      <trkpt lat="47.1549" lon="-1.66935">
        <ele>-6.5</ele>
        <time>2015-04-21T15:53:01Z</time>
      </trkpt>
      <trkpt lat="47.15471" lon="-1.66922">
        <ele>-6.7</ele>
        <time>2015-04-21T15:53:04Z</time>
      </trkpt>
      <trkpt lat="47.15453" lon="-1.66904">
        <ele>-6.8</ele>
        <time>2015-04-21T15:53:07Z</time>
      </trkpt>
      <trkpt lat="47.15436" lon="-1.6688">
        <ele>-6</ele>
        <time>2015-04-21T15:53:11Z</time>
      </trkpt>
      <trkpt lat="47.15424" lon="-1.6685">
        <ele>-5.4</ele>
        <time>2015-04-21T15:53:15Z</time>
      </trkpt>
      <trkpt lat="47.15413" lon="-1.66819">
        <ele>-5.1</ele>
        <time>2015-04-21T15:53:19Z</time>
      </trkpt>
      <trkpt lat="47.15406" lon="-1.66794">
        <ele>-5</ele>
        <time>2015-04-21T15:53:22Z</time>
      </trkpt>
      <trkpt lat="47.15397" lon="-1.66762">
        <ele>-4.8</ele>
        <time>2015-04-21T15:53:26Z</time>
      </trkpt>
      <trkpt lat="47.15392" lon="-1.66729">
        <ele>-4.5</ele>
        <time>2015-04-21T15:53:30Z</time>
      </trkpt>
      <trkpt lat="47.15387" lon="-1.66704">
        <ele>-4.3</ele>
        <time>2015-04-21T15:53:33Z</time>
      </trkpt>
      <trkpt lat="47.15381" lon="-1.66671">
        <ele>-4.2</ele>
        <time>2015-04-21T15:53:37Z</time>
      </trkpt>
      <trkpt lat="47.15374" lon="-1.66638">
        <ele>-4</ele>
        <time>2015-04-21T15:53:41Z</time>
      </trkpt>
      <trkpt lat="47.15366" lon="-1.66606">
        <ele>-3.8</ele>
        <time>2015-04-21T15:53:45Z</time>
      </trkpt>
      <trkpt lat="47.15361" lon="-1.6658">
        <ele>-3.6</ele>
        <time>2015-04-21T15:53:48Z</time>
      </trkpt>
      <trkpt lat="47.15355" lon="-1.66552">
        <ele>-3.3</ele>
        <time>2015-04-21T15:53:51Z</time>
      </trkpt>
      <trkpt lat="47.1535" lon="-1.66517">
        <ele>-2.7</ele>
        <time>2015-04-21T15:53:55Z</time>
      </trkpt>
      <trkpt lat="47.15342" lon="-1.66492">
        <ele>-2.5</ele>
        <time>2015-04-21T15:53:58Z</time>
      </trkpt>
      <trkpt lat="47.15338" lon="-1.66459">
        <ele>-2.1</ele>
        <time>2015-04-21T15:54:02Z</time>
      </trkpt>
      <trkpt lat="47.15335" lon="-1.66428">
        <ele>-1.8</ele>
        <time>2015-04-21T15:54:06Z</time>
      </trkpt>
      <trkpt lat="47.1533" lon="-1.66397">
        <ele>-1.4</ele>
        <time>2015-04-21T15:54:10Z</time>
      </trkpt>
      <trkpt lat="47.15323" lon="-1.66367">
        <ele>-0.9</ele>
        <time>2015-04-21T15:54:14Z</time>
      </trkpt>
      <trkpt lat="47.15317" lon="-1.66338">
        <ele>-0.6</ele>
        <time>2015-04-21T15:54:18Z</time>
      </trkpt>
      <trkpt lat="47.15309" lon="-1.66309">
        <ele>0.1</ele>
        <time>2015-04-21T15:54:22Z</time>
      </trkpt>
      <trkpt lat="47.15303" lon="-1.66279">
        <ele>0.4</ele>
        <time>2015-04-21T15:54:26Z</time>
      </trkpt>
      <trkpt lat="47.15295" lon="-1.66248">
        <ele>0.9</ele>
        <time>2015-04-21T15:54:30Z</time>
      </trkpt>
      <trkpt lat="47.15289" lon="-1.66217">
        <ele>1.2</ele>
        <time>2015-04-21T15:54:34Z</time>
      </trkpt>
      <trkpt lat="47.15283" lon="-1.66186">
        <ele>1.4</ele>
        <time>2015-04-21T15:54:38Z</time>
      </trkpt>
      <trkpt lat="47.15276" lon="-1.66153">
        <ele>1.7</ele>
        <time>2015-04-21T15:54:42Z</time>
      </trkpt>
      <trkpt lat="47.15271" lon="-1.66121">
        <ele>2.4</ele>
        <time>2015-04-21T15:54:46Z</time>
      </trkpt>
      <trkpt lat="47.15264" lon="-1.66089">
        <ele>2.7</ele>
        <time>2015-04-21T15:54:50Z</time>
      </trkpt>
      <trkpt lat="47.15257" lon="-1.66063">
        <ele>2.8</ele>
        <time>2015-04-21T15:54:53Z</time>
      </trkpt>
      <trkpt lat="47.15251" lon="-1.66031">
        <ele>2.8</ele>
        <time>2015-04-21T15:54:57Z</time>
      </trkpt>
      <trkpt lat="47.15246" lon="-1.66005">
        <ele>2.7</ele>
        <time>2015-04-21T15:55:00Z</time>
      </trkpt>
      <trkpt lat="47.1524" lon="-1.65977">
        <ele>2.6</ele>
        <time>2015-04-21T15:55:03Z</time>
      </trkpt>
      <trkpt lat="47.15233" lon="-1.6595">
        <ele>2.6</ele>
        <time>2015-04-21T15:55:06Z</time>
      </trkpt>
      <trkpt lat="47.15226" lon="-1.65922">
        <ele>2.5</ele>
        <time>2015-04-21T15:55:09Z</time>
      </trkpt>
      <trkpt lat="47.15221" lon="-1.65896">
        <ele>2.4</ele>
        <time>2015-04-21T15:55:12Z</time>
      </trkpt>
      <trkpt lat="47.15216" lon="-1.65869">
        <ele>2.4</ele>
        <time>2015-04-21T15:55:15Z</time>
      </trkpt>
      <trkpt lat="47.15211" lon="-1.65841">
        <ele>2.3</ele>
        <time>2015-04-21T15:55:18Z</time>
      </trkpt>
      <trkpt lat="47.15205" lon="-1.65812">
        <ele>2.2</ele>
        <time>2015-04-21T15:55:21Z</time>
      </trkpt>
      <trkpt lat="47.152" lon="-1.65784">
        <ele>2.1</ele>
        <time>2015-04-21T15:55:24Z</time>
      </trkpt>
      <trkpt lat="47.15194" lon="-1.65757">
        <ele>2</ele>
        <time>2015-04-21T15:55:27Z</time>
      </trkpt>
      <trkpt lat="47.15189" lon="-1.6573">
        <ele>1.9</ele>
        <time>2015-04-21T15:55:30Z</time>
      </trkpt>
      <trkpt lat="47.15182" lon="-1.65703">
        <ele>1.7</ele>
        <time>2015-04-21T15:55:33Z</time>
      </trkpt>
      <trkpt lat="47.15178" lon="-1.65677">
        <ele>1.7</ele>
        <time>2015-04-21T15:55:36Z</time>
      </trkpt>
      <trkpt lat="47.15173" lon="-1.65642">
        <ele>1.5</ele>
        <time>2015-04-21T15:55:40Z</time>
      </trkpt>
      <trkpt lat="47.15167" lon="-1.6561">
        <ele>1.4</ele>
        <time>2015-04-21T15:55:44Z</time>
      </trkpt>
      <trkpt lat="47.1516" lon="-1.65583">
        <ele>1.4</ele>
        <time>2015-04-21T15:55:48Z</time>
      </trkpt>
      <trkpt lat="47.15153" lon="-1.65555">
        <ele>1.2</ele>
        <time>2015-04-21T15:55:52Z</time>
      </trkpt>
      <trkpt lat="47.15147" lon="-1.65526">
        <ele>1.3</ele>
        <time>2015-04-21T15:55:56Z</time>
      </trkpt>
      <trkpt lat="47.15141" lon="-1.65495">
        <ele>1.1</ele>
        <time>2015-04-21T15:56:00Z</time>
      </trkpt>
      <trkpt lat="47.15134" lon="-1.65463">
        <ele>1</ele>
        <time>2015-04-21T15:56:04Z</time>
      </trkpt>
      <trkpt lat="47.15128" lon="-1.65432">
        <ele>0.8</ele>
        <time>2015-04-21T15:56:08Z</time>
      </trkpt>
      <trkpt lat="47.15121" lon="-1.65406">
        <ele>0.7</ele>
        <time>2015-04-21T15:56:11Z</time>
      </trkpt>
      <trkpt lat="47.15112" lon="-1.65374">
        <ele>0.5</ele>
        <time>2015-04-21T15:56:15Z</time>
      </trkpt>
      <trkpt lat="47.15102" lon="-1.6535">
        <ele>0.3</ele>
        <time>2015-04-21T15:56:18Z</time>
      </trkpt>
      <trkpt lat="47.1509" lon="-1.6532">
        <ele>27</ele>
        <time>2015-04-21T15:56:22Z</time>
      </trkpt>
      <trkpt lat="47.15079" lon="-1.65296">
        <ele>-0.2</ele>
        <time>2015-04-21T15:56:25Z</time>
      </trkpt>
      <trkpt lat="47.15065" lon="-1.65277">
        <ele>-0.3</ele>
        <time>2015-04-21T15:56:28Z</time>
      </trkpt>
      <trkpt lat="47.1505" lon="-1.65259">
        <ele>-0.3</ele>
        <time>2015-04-21T15:56:31Z</time>
      </trkpt>
      <trkpt lat="47.15034" lon="-1.65242">
        <ele>-0.4</ele>
        <time>2015-04-21T15:56:34Z</time>
      </trkpt>
      <trkpt lat="47.15014" lon="-1.65224">
        <ele>27</ele>
        <time>2015-04-21T15:56:37Z</time>
      </trkpt>
      <trkpt lat="47.14998" lon="-1.65209">
        <ele>0.1</ele>
        <time>2015-04-21T15:56:40Z</time>
      </trkpt>
      <trkpt lat="47.1498" lon="-1.65192">
        <ele>0.4</ele>
        <time>2015-04-21T15:56:43Z</time>
      </trkpt>
      <trkpt lat="47.14963" lon="-1.65178">
        <ele>0.3</ele>
        <time>2015-04-21T15:56:46Z</time>
      </trkpt>
      <trkpt lat="47.14946" lon="-1.65163">
        <ele>0.3</ele>
        <time>2015-04-21T15:56:49Z</time>
      </trkpt>
      <trkpt lat="47.14929" lon="-1.65151">
        <ele>0.5</ele>
        <time>2015-04-21T15:56:52Z</time>
      </trkpt>
      <trkpt lat="47.14914" lon="-1.65137">
        <ele>0.6</ele>
        <time>2015-04-21T15:56:55Z</time>
      </trkpt>
      <trkpt lat="47.14897" lon="-1.65123">
        <ele>0.6</ele>
        <time>2015-04-21T15:56:58Z</time>
      </trkpt>
      <trkpt lat="47.1488" lon="-1.65107">
        <ele>0.6</ele>
        <time>2015-04-21T15:57:01Z</time>
      </trkpt>
      <trkpt lat="47.14863" lon="-1.65091">
        <ele>0.7</ele>
        <time>2015-04-21T15:57:04Z</time>
      </trkpt>
      <trkpt lat="47.14844" lon="-1.65074">
        <ele>0.7</ele>
        <time>2015-04-21T15:57:07Z</time>
      </trkpt>
      <trkpt lat="47.14826" lon="-1.65059">
        <ele>0.6</ele>
        <time>2015-04-21T15:57:10Z</time>
      </trkpt>
      <trkpt lat="47.14807" lon="-1.65043">
        <ele>0.5</ele>
        <time>2015-04-21T15:57:13Z</time>
      </trkpt>
      <trkpt lat="47.1479" lon="-1.65025">
        <ele>0.6</ele>
        <time>2015-04-21T15:57:16Z</time>
      </trkpt>
      <trkpt lat="47.1477" lon="-1.65007">
        <ele>0.7</ele>
        <time>2015-04-21T15:57:19Z</time>
      </trkpt>
      <trkpt lat="47.14752" lon="-1.64989">
        <ele>0.6</ele>
        <time>2015-04-21T15:57:22Z</time>
      </trkpt>
      <trkpt lat="47.14734" lon="-1.64972">
        <ele>0.6</ele>
        <time>2015-04-21T15:57:25Z</time>
      </trkpt>
      <trkpt lat="47.14717" lon="-1.64957">
        <ele>0.6</ele>
        <time>2015-04-21T15:57:28Z</time>
      </trkpt>
      <trkpt lat="47.147" lon="-1.64945">
        <ele>0.9</ele>
        <time>2015-04-21T15:57:31Z</time>
      </trkpt>
      <trkpt lat="47.14682" lon="-1.64933">
        <ele>1.6</ele>
        <time>2015-04-21T15:57:35Z</time>
      </trkpt>
      <trkpt lat="47.14667" lon="-1.6495">
        <ele>2.7</ele>
        <time>2015-04-21T15:57:45Z</time>
      </trkpt>
      <trkpt lat="47.14658" lon="-1.64975">
        <ele>2.7</ele>
        <time>2015-04-21T15:57:48Z</time>
      </trkpt>
      <trkpt lat="47.14648" lon="-1.65001">
        <ele>2.6</ele>
        <time>2015-04-21T15:57:51Z</time>
      </trkpt>
      <trkpt lat="47.14636" lon="-1.65027">
        <ele>2.3</ele>
        <time>2015-04-21T15:57:54Z</time>
      </trkpt>
      <trkpt lat="47.14625" lon="-1.65055">
        <ele>2.3</ele>
        <time>2015-04-21T15:57:57Z</time>
      </trkpt>
      <trkpt lat="47.14614" lon="-1.65083">
        <ele>2.4</ele>
        <time>2015-04-21T15:58:00Z</time>
      </trkpt>
      <trkpt lat="47.14603" lon="-1.65111">
        <ele>2.7</ele>
        <time>2015-04-21T15:58:03Z</time>
      </trkpt>
      <trkpt lat="47.14593" lon="-1.6514">
        <ele>2.9</ele>
        <time>2015-04-21T15:58:06Z</time>
      </trkpt>
      <trkpt lat="47.14583" lon="-1.65168">
        <ele>3</ele>
        <time>2015-04-21T15:58:09Z</time>
      </trkpt>
      <trkpt lat="47.14575" lon="-1.65197">
        <ele>3.2</ele>
        <time>2015-04-21T15:58:12Z</time>
      </trkpt>
      <trkpt lat="47.14567" lon="-1.65228">
        <ele>3.4</ele>
        <time>2015-04-21T15:58:15Z</time>
      </trkpt>
      <trkpt lat="47.14558" lon="-1.65257">
        <ele>3.5</ele>
        <time>2015-04-21T15:58:18Z</time>
      </trkpt>
      <trkpt lat="47.14551" lon="-1.65286">
        <ele>3.8</ele>
        <time>2015-04-21T15:58:21Z</time>
      </trkpt>
      <trkpt lat="47.14546" lon="-1.65316">
        <ele>4.3</ele>
        <time>2015-04-21T15:58:24Z</time>
      </trkpt>
      <trkpt lat="47.14543" lon="-1.65344">
        <ele>5.2</ele>
        <time>2015-04-21T15:58:28Z</time>
      </trkpt>
      <trkpt lat="47.14534" lon="-1.65369">
        <ele>4.6</ele>
        <time>2015-04-21T15:58:33Z</time>
      </trkpt>
      <trkpt lat="47.14515" lon="-1.65376">
        <ele>2.6</ele>
        <time>2015-04-21T15:58:41Z</time>
      </trkpt>
      <trkpt lat="47.14495" lon="-1.65387">
        <ele>3.9</ele>
        <time>2015-04-21T15:58:45Z</time>
      </trkpt>
      <trkpt lat="47.14477" lon="-1.65397">
        <ele>5.2</ele>
        <time>2015-04-21T15:58:48Z</time>
      </trkpt>
      <trkpt lat="47.14455" lon="-1.65409">
        <ele>7.4</ele>
        <time>2015-04-21T15:58:52Z</time>
      </trkpt>
      <trkpt lat="47.14437" lon="-1.65419">
        <ele>7.2</ele>
        <time>2015-04-21T15:58:55Z</time>
      </trkpt>
      <trkpt lat="47.14418" lon="-1.65425">
        <ele>9</ele>
        <time>2015-04-21T15:58:58Z</time>
      </trkpt>
      <trkpt lat="47.14397" lon="-1.65429">
        <ele>10.1</ele>
        <time>2015-04-21T15:59:01Z</time>
      </trkpt>
      <trkpt lat="47.14375" lon="-1.65428">
        <ele>11.1</ele>
        <time>2015-04-21T15:59:04Z</time>
      </trkpt>
      <trkpt lat="47.14354" lon="-1.65413">
        <ele>9.6</ele>
        <time>2015-04-21T15:59:08Z</time>
      </trkpt>
      <trkpt lat="47.14334" lon="-1.65397">
        <ele>9.1</ele>
        <time>2015-04-21T15:59:12Z</time>
      </trkpt>
      <trkpt lat="47.14316" lon="-1.65386">
        <ele>9.2</ele>
        <time>2015-04-21T15:59:15Z</time>
      </trkpt>
      <trkpt lat="47.14297" lon="-1.65376">
        <ele>9.1</ele>
        <time>2015-04-21T15:59:18Z</time>
      </trkpt>
      <trkpt lat="47.1428" lon="-1.65368">
        <ele>9.4</ele>
        <time>2015-04-21T15:59:21Z</time>
      </trkpt>
      <trkpt lat="47.14257" lon="-1.65356">
        <ele>9.8</ele>
        <time>2015-04-21T15:59:25Z</time>
      </trkpt>
      <trkpt lat="47.14237" lon="-1.65348">
        <ele>10</ele>
        <time>2015-04-21T15:59:28Z</time>
      </trkpt>
      <trkpt lat="47.14217" lon="-1.65339">
        <ele>10.2</ele>
        <time>2015-04-21T15:59:31Z</time>
      </trkpt>
      <trkpt lat="47.14194" lon="-1.65327">
        <ele>10.3</ele>
        <time>2015-04-21T15:59:35Z</time>
      </trkpt>
      <trkpt lat="47.14172" lon="-1.65322">
        <ele>10.1</ele>
        <time>2015-04-21T15:59:38Z</time>
      </trkpt>
      <trkpt lat="47.14151" lon="-1.65315">
        <ele>9.9</ele>
        <time>2015-04-21T15:59:41Z</time>
      </trkpt>
      <trkpt lat="47.1413" lon="-1.65303">
        <ele>9.7</ele>
        <time>2015-04-21T15:59:44Z</time>
      </trkpt>
      <trkpt lat="47.1411" lon="-1.65294">
        <ele>10</ele>
        <time>2015-04-21T15:59:47Z</time>
      </trkpt>
      <trkpt lat="47.1409" lon="-1.65285">
        <ele>10.1</ele>
        <time>2015-04-21T15:59:50Z</time>
      </trkpt>
      <trkpt lat="47.14071" lon="-1.65279">
        <ele>10.3</ele>
        <time>2015-04-21T15:59:53Z</time>
      </trkpt>
      <trkpt lat="47.14052" lon="-1.65274">
        <ele>10.4</ele>
        <time>2015-04-21T15:59:56Z</time>
      </trkpt>
      <trkpt lat="47.14031" lon="-1.6527">
        <ele>10.8</ele>
        <time>2015-04-21T15:59:59Z</time>
      </trkpt>
      <trkpt lat="47.14012" lon="-1.65266">
        <ele>11</ele>
        <time>2015-04-21T16:00:02Z</time>
      </trkpt>
      <trkpt lat="47.13991" lon="-1.65261">
        <ele>11</ele>
        <time>2015-04-21T16:00:05Z</time>
      </trkpt>
      <trkpt lat="47.13972" lon="-1.65252">
        <ele>11.2</ele>
        <time>2015-04-21T16:00:08Z</time>
      </trkpt>
      <trkpt lat="47.13952" lon="-1.65241">
        <ele>10.6</ele>
        <time>2015-04-21T16:00:11Z</time>
      </trkpt>
      <trkpt lat="47.13934" lon="-1.65228">
        <ele>10.5</ele>
        <time>2015-04-21T16:00:14Z</time>
      </trkpt>
      <trkpt lat="47.13917" lon="-1.65216">
        <ele>10.3</ele>
        <time>2015-04-21T16:00:17Z</time>
      </trkpt>
      <trkpt lat="47.13899" lon="-1.65204">
        <ele>9.9</ele>
        <time>2015-04-21T16:00:20Z</time>
      </trkpt>
      <trkpt lat="47.13882" lon="-1.65196">
        <ele>9.7</ele>
        <time>2015-04-21T16:00:23Z</time>
      </trkpt>
      <trkpt lat="47.13865" lon="-1.65182">
        <ele>9.6</ele>
        <time>2015-04-21T16:00:26Z</time>
      </trkpt>
      <trkpt lat="47.13852" lon="-1.6516">
        <ele>9.4</ele>
        <time>2015-04-21T16:00:29Z</time>
      </trkpt>
      <trkpt lat="47.13845" lon="-1.65134">
        <ele>9.4</ele>
        <time>2015-04-21T16:00:32Z</time>
      </trkpt>
      <trkpt lat="47.13837" lon="-1.6511">
        <ele>9.4</ele>
        <time>2015-04-21T16:00:35Z</time>
      </trkpt>
      <trkpt lat="47.13828" lon="-1.65085">
        <ele>9.5</ele>
        <time>2015-04-21T16:00:38Z</time>
      </trkpt>
      <trkpt lat="47.1382" lon="-1.65054">
        <ele>9.6</ele>
        <time>2015-04-21T16:00:42Z</time>
      </trkpt>
      <trkpt lat="47.13814" lon="-1.65022">
        <ele>9.7</ele>
        <time>2015-04-21T16:00:46Z</time>
      </trkpt>
      <trkpt lat="47.13809" lon="-1.6499">
        <ele>9.8</ele>
        <time>2015-04-21T16:00:50Z</time>
      </trkpt>
      <trkpt lat="47.13804" lon="-1.64963">
        <ele>9.7</ele>
        <time>2015-04-21T16:00:53Z</time>
      </trkpt>
      <trkpt lat="47.13797" lon="-1.64937">
        <ele>9.8</ele>
        <time>2015-04-21T16:00:56Z</time>
      </trkpt>
      <trkpt lat="47.13793" lon="-1.6491">
        <ele>10.4</ele>
        <time>2015-04-21T16:00:59Z</time>
      </trkpt>
      <trkpt lat="47.13789" lon="-1.64884">
        <ele>10.6</ele>
        <time>2015-04-21T16:01:02Z</time>
      </trkpt>
      <trkpt lat="47.13777" lon="-1.64854">
        <ele>10.9</ele>
        <time>2015-04-21T16:01:06Z</time>
      </trkpt>
      <trkpt lat="47.1376" lon="-1.64836">
        <ele>10.9</ele>
        <time>2015-04-21T16:01:10Z</time>
      </trkpt>
      <trkpt lat="47.13748" lon="-1.64811">
        <ele>10.9</ele>
        <time>2015-04-21T16:01:14Z</time>
      </trkpt>
      <trkpt lat="47.13752" lon="-1.64777">
        <ele>10.3</ele>
        <time>2015-04-21T16:01:18Z</time>
      </trkpt>
      <trkpt lat="47.13753" lon="-1.64743">
        <ele>9.7</ele>
        <time>2015-04-21T16:01:22Z</time>
      </trkpt>
      <trkpt lat="47.13751" lon="-1.6471">
        <ele>9.5</ele>
        <time>2015-04-21T16:01:26Z</time>
      </trkpt>
      <trkpt lat="47.13749" lon="-1.64677">
        <ele>9.2</ele>
        <time>2015-04-21T16:01:30Z</time>
      </trkpt>
      <trkpt lat="47.13745" lon="-1.64645">
        <ele>8.8</ele>
        <time>2015-04-21T16:01:34Z</time>
      </trkpt>
      <trkpt lat="47.13741" lon="-1.64614">
        <ele>8.5</ele>
        <time>2015-04-21T16:01:38Z</time>
      </trkpt>
      <trkpt lat="47.13732" lon="-1.64586">
        <ele>8.2</ele>
        <time>2015-04-21T16:01:43Z</time>
      </trkpt>
      <trkpt lat="47.13712" lon="-1.64581">
        <ele>7.9</ele>
        <time>2015-04-21T16:01:47Z</time>
      </trkpt>
      <trkpt lat="47.13694" lon="-1.64582">
        <ele>7.8</ele>
        <time>2015-04-21T16:01:50Z</time>
      </trkpt>
      <trkpt lat="47.13673" lon="-1.64579">
        <ele>7.8</ele>
        <time>2015-04-21T16:01:54Z</time>
      </trkpt>
      <trkpt lat="47.13651" lon="-1.64575">
        <ele>7.7</ele>
        <time>2015-04-21T16:01:59Z</time>
      </trkpt>
      <trkpt lat="47.13631" lon="-1.64568">
        <ele>7.6</ele>
        <time>2015-04-21T16:02:03Z</time>
      </trkpt>
      <trkpt lat="47.13611" lon="-1.64565">
        <ele>7.3</ele>
        <time>2015-04-21T16:02:07Z</time>
      </trkpt>
      <trkpt lat="47.13589" lon="-1.64567">
        <ele>7.3</ele>
        <time>2015-04-21T16:02:11Z</time>
      </trkpt>
      <trkpt lat="47.13567" lon="-1.64574">
        <ele>7.3</ele>
        <time>2015-04-21T16:02:15Z</time>
      </trkpt>
      <trkpt lat="47.13547" lon="-1.64588">
        <ele>7.1</ele>
        <time>2015-04-21T16:02:19Z</time>
      </trkpt>
      <trkpt lat="47.13529" lon="-1.64606">
        <ele>7.3</ele>
        <time>2015-04-21T16:02:23Z</time>
      </trkpt>
      <trkpt lat="47.1351" lon="-1.64623">
        <ele>7.4</ele>
        <time>2015-04-21T16:02:27Z</time>
      </trkpt>
      <trkpt lat="47.13492" lon="-1.64637">
        <ele>7.5</ele>
        <time>2015-04-21T16:02:31Z</time>
      </trkpt>
      <trkpt lat="47.13472" lon="-1.64644">
        <ele>7.7</ele>
        <time>2015-04-21T16:02:35Z</time>
      </trkpt>
      <trkpt lat="47.13448" lon="-1.64646">
        <ele>8.1</ele>
        <time>2015-04-21T16:02:39Z</time>
      </trkpt>
      <trkpt lat="47.13426" lon="-1.64645">
        <ele>8.6</ele>
        <time>2015-04-21T16:02:43Z</time>
      </trkpt>
      <trkpt lat="47.13407" lon="-1.64644">
        <ele>8.8</ele>
        <time>2015-04-21T16:02:47Z</time>
      </trkpt>
      <trkpt lat="47.13391" lon="-1.64624">
        <ele>9.1</ele>
        <time>2015-04-21T16:02:52Z</time>
      </trkpt>
      <trkpt lat="47.13383" lon="-1.64598">
        <ele>9.1</ele>
        <time>2015-04-21T16:02:55Z</time>
      </trkpt>
      <trkpt lat="47.1338" lon="-1.64565">
        <ele>9.1</ele>
        <time>2015-04-21T16:02:59Z</time>
      </trkpt>
      <trkpt lat="47.13374" lon="-1.64533">
        <ele>9.5</ele>
        <time>2015-04-21T16:03:03Z</time>
      </trkpt>
      <trkpt lat="47.13366" lon="-1.64508">
        <ele>10.1</ele>
        <time>2015-04-21T16:03:06Z</time>
      </trkpt>
      <trkpt lat="47.13356" lon="-1.64477">
        <ele>10.7</ele>
        <time>2015-04-21T16:03:10Z</time>
      </trkpt>
      <trkpt lat="47.13346" lon="-1.64454">
        <ele>11.2</ele>
        <time>2015-04-21T16:03:13Z</time>
      </trkpt>
      <trkpt lat="47.13333" lon="-1.6443">
        <ele>11.6</ele>
        <time>2015-04-21T16:03:16Z</time>
      </trkpt>
      <trkpt lat="47.13322" lon="-1.64405">
        <ele>11.8</ele>
        <time>2015-04-21T16:03:19Z</time>
      </trkpt>
      <trkpt lat="47.1331" lon="-1.64381">
        <ele>11.8</ele>
        <time>2015-04-21T16:03:22Z</time>
      </trkpt>
      <trkpt lat="47.13296" lon="-1.64355">
        <ele>11.7</ele>
        <time>2015-04-21T16:03:25Z</time>
      </trkpt>
      <trkpt lat="47.13283" lon="-1.64331">
        <ele>11.7</ele>
        <time>2015-04-21T16:03:28Z</time>
      </trkpt>
      <trkpt lat="47.1327" lon="-1.64306">
        <ele>11.6</ele>
        <time>2015-04-21T16:03:31Z</time>
      </trkpt>
      <trkpt lat="47.13256" lon="-1.64279">
        <ele>11.3</ele>
        <time>2015-04-21T16:03:34Z</time>
      </trkpt>
      <trkpt lat="47.13246" lon="-1.64251">
        <ele>10.9</ele>
        <time>2015-04-21T16:03:37Z</time>
      </trkpt>
      <trkpt lat="47.13235" lon="-1.64225">
        <ele>10.6</ele>
        <time>2015-04-21T16:03:40Z</time>
      </trkpt>
      <trkpt lat="47.13223" lon="-1.642">
        <ele>10.5</ele>
        <time>2015-04-21T16:03:43Z</time>
      </trkpt>
      <trkpt lat="47.13211" lon="-1.64175">
        <ele>10.4</ele>
        <time>2015-04-21T16:03:46Z</time>
      </trkpt>
      <trkpt lat="47.13202" lon="-1.64149">
        <ele>10.2</ele>
        <time>2015-04-21T16:03:49Z</time>
      </trkpt>
      <trkpt lat="47.13189" lon="-1.64123">
        <ele>10</ele>
        <time>2015-04-21T16:03:52Z</time>
      </trkpt>
      <trkpt lat="47.13179" lon="-1.64097">
        <ele>9.9</ele>
        <time>2015-04-21T16:03:55Z</time>
      </trkpt>
      <trkpt lat="47.1317" lon="-1.64072">
        <ele>9.8</ele>
        <time>2015-04-21T16:03:58Z</time>
      </trkpt>
      <trkpt lat="47.1316" lon="-1.64048">
        <ele>9.4</ele>
        <time>2015-04-21T16:04:01Z</time>
      </trkpt>
      <trkpt lat="47.13151" lon="-1.64024">
        <ele>9.6</ele>
        <time>2015-04-21T16:04:04Z</time>
      </trkpt>
      <trkpt lat="47.13142" lon="-1.63998">
        <ele>9.5</ele>
        <time>2015-04-21T16:04:07Z</time>
      </trkpt>
      <trkpt lat="47.13132" lon="-1.63972">
        <ele>9</ele>
        <time>2015-04-21T16:04:10Z</time>
      </trkpt>
      <trkpt lat="47.13122" lon="-1.63947">
        <ele>8.5</ele>
        <time>2015-04-21T16:04:13Z</time>
      </trkpt>
      <trkpt lat="47.13112" lon="-1.63923">
        <ele>8.4</ele>
        <time>2015-04-21T16:04:16Z</time>
      </trkpt>
      <trkpt lat="47.13102" lon="-1.63896">
        <ele>8.1</ele>
        <time>2015-04-21T16:04:19Z</time>
      </trkpt>
      <trkpt lat="47.13093" lon="-1.63872">
        <ele>8.2</ele>
        <time>2015-04-21T16:04:22Z</time>
      </trkpt>
      <trkpt lat="47.13085" lon="-1.63846">
        <ele>8.3</ele>
        <time>2015-04-21T16:04:25Z</time>
      </trkpt>
      <trkpt lat="47.13075" lon="-1.63822">
        <ele>7.7</ele>
        <time>2015-04-21T16:04:28Z</time>
      </trkpt>
      <trkpt lat="47.13062" lon="-1.63798">
        <ele>7.1</ele>
        <time>2015-04-21T16:04:31Z</time>
      </trkpt>
      <trkpt lat="47.13053" lon="-1.63773">
        <ele>6.8</ele>
        <time>2015-04-21T16:04:34Z</time>
      </trkpt>
      <trkpt lat="47.13042" lon="-1.63743">
        <ele>6.2</ele>
        <time>2015-04-21T16:04:38Z</time>
      </trkpt>
      <trkpt lat="47.13031" lon="-1.63717">
        <ele>5.8</ele>
        <time>2015-04-21T16:04:42Z</time>
      </trkpt>
      <trkpt lat="47.1302" lon="-1.63685">
        <ele>5.4</ele>
        <time>2015-04-21T16:04:46Z</time>
      </trkpt>
      <trkpt lat="47.13004" lon="-1.63661">
        <ele>5.2</ele>
        <time>2015-04-21T16:04:49Z</time>
      </trkpt>
      <trkpt lat="47.12992" lon="-1.63637">
        <ele>5.2</ele>
        <time>2015-04-21T16:04:52Z</time>
      </trkpt>
      <trkpt lat="47.12982" lon="-1.63613">
        <ele>4.8</ele>
        <time>2015-04-21T16:04:55Z</time>
      </trkpt>
      <trkpt lat="47.12972" lon="-1.63592">
        <ele>4.5</ele>
        <time>2015-04-21T16:04:58Z</time>
      </trkpt>
      <trkpt lat="47.12959" lon="-1.63562">
        <ele>4.4</ele>
        <time>2015-04-21T16:05:02Z</time>
      </trkpt>
      <trkpt lat="47.12949" lon="-1.63539">
        <ele>4.6</ele>
        <time>2015-04-21T16:05:05Z</time>
      </trkpt>
      <trkpt lat="47.1294" lon="-1.63515">
        <ele>4.6</ele>
        <time>2015-04-21T16:05:08Z</time>
      </trkpt>
      <trkpt lat="47.12929" lon="-1.63485">
        <ele>5</ele>
        <time>2015-04-21T16:05:12Z</time>
      </trkpt>
      <trkpt lat="47.12918" lon="-1.63454">
        <ele>4.9</ele>
        <time>2015-04-21T16:05:16Z</time>
      </trkpt>
      <trkpt lat="47.12908" lon="-1.63425">
        <ele>4.4</ele>
        <time>2015-04-21T16:05:20Z</time>
      </trkpt>
      <trkpt lat="47.12896" lon="-1.63394">
        <ele>3.9</ele>
        <time>2015-04-21T16:05:24Z</time>
      </trkpt>
      <trkpt lat="47.12886" lon="-1.63363">
        <ele>3.5</ele>
        <time>2015-04-21T16:05:28Z</time>
      </trkpt>
      <trkpt lat="47.12875" lon="-1.63342">
        <ele>3.2</ele>
        <time>2015-04-21T16:05:31Z</time>
      </trkpt>
      <trkpt lat="47.12866" lon="-1.63318">
        <ele>3</ele>
        <time>2015-04-21T16:05:34Z</time>
      </trkpt>
      <trkpt lat="47.12856" lon="-1.63293">
        <ele>2.8</ele>
        <time>2015-04-21T16:05:37Z</time>
      </trkpt>
      <trkpt lat="47.12847" lon="-1.63269">
        <ele>2.5</ele>
        <time>2015-04-21T16:05:40Z</time>
      </trkpt>
      <trkpt lat="47.12837" lon="-1.63245">
        <ele>2.3</ele>
        <time>2015-04-21T16:05:43Z</time>
      </trkpt>
      <trkpt lat="47.12826" lon="-1.63216">
        <ele>2.3</ele>
        <time>2015-04-21T16:05:47Z</time>
      </trkpt>
      <trkpt lat="47.12813" lon="-1.63186">
        <ele>2.4</ele>
        <time>2015-04-21T16:05:51Z</time>
      </trkpt>
      <trkpt lat="47.128" lon="-1.63157">
        <ele>2.4</ele>
        <time>2015-04-21T16:05:55Z</time>
      </trkpt>
      <trkpt lat="47.1279" lon="-1.63127">
        <ele>2.7</ele>
        <time>2015-04-21T16:05:59Z</time>
      </trkpt>
      <trkpt lat="47.12779" lon="-1.63102">
        <ele>2.7</ele>
        <time>2015-04-21T16:06:02Z</time>
      </trkpt>
      <trkpt lat="47.12766" lon="-1.63073">
        <ele>3.5</ele>
        <time>2015-04-21T16:06:06Z</time>
      </trkpt>
      <trkpt lat="47.12754" lon="-1.6305">
        <ele>3.9</ele>
        <time>2015-04-21T16:06:09Z</time>
      </trkpt>
      <trkpt lat="47.12747" lon="-1.63026">
        <ele>4.1</ele>
        <time>2015-04-21T16:06:12Z</time>
      </trkpt>
      <trkpt lat="47.12738" lon="-1.63001">
        <ele>4</ele>
        <time>2015-04-21T16:06:15Z</time>
      </trkpt>
      <trkpt lat="47.1273" lon="-1.62976">
        <ele>4.1</ele>
        <time>2015-04-21T16:06:18Z</time>
      </trkpt>
      <trkpt lat="47.12721" lon="-1.62953">
        <ele>4</ele>
        <time>2015-04-21T16:06:21Z</time>
      </trkpt>
      <trkpt lat="47.1271" lon="-1.62922">
        <ele>3.8</ele>
        <time>2015-04-21T16:06:25Z</time>
      </trkpt>
      <trkpt lat="47.12701" lon="-1.62892">
        <ele>4</ele>
        <time>2015-04-21T16:06:29Z</time>
      </trkpt>
      <trkpt lat="47.12689" lon="-1.62863">
        <ele>4.5</ele>
        <time>2015-04-21T16:06:33Z</time>
      </trkpt>
      <trkpt lat="47.12677" lon="-1.62843">
        <ele>4.7</ele>
        <time>2015-04-21T16:06:36Z</time>
      </trkpt>
      <trkpt lat="47.12663" lon="-1.62825">
        <ele>5.4</ele>
        <time>2015-04-21T16:06:40Z</time>
      </trkpt>
      <trkpt lat="47.12652" lon="-1.62796">
        <ele>5.5</ele>
        <time>2015-04-21T16:06:44Z</time>
      </trkpt>
      <trkpt lat="47.12641" lon="-1.62772">
        <ele>5.6</ele>
        <time>2015-04-21T16:06:47Z</time>
      </trkpt>
      <trkpt lat="47.1263" lon="-1.62746">
        <ele>5.9</ele>
        <time>2015-04-21T16:06:50Z</time>
      </trkpt>
      <trkpt lat="47.12619" lon="-1.62722">
        <ele>6.7</ele>
        <time>2015-04-21T16:06:53Z</time>
      </trkpt>
      <trkpt lat="47.12609" lon="-1.627">
        <ele>6.6</ele>
        <time>2015-04-21T16:06:56Z</time>
      </trkpt>
      <trkpt lat="47.12598" lon="-1.62675">
        <ele>6.5</ele>
        <time>2015-04-21T16:06:59Z</time>
      </trkpt>
      <trkpt lat="47.12588" lon="-1.62651">
        <ele>6.9</ele>
        <time>2015-04-21T16:07:02Z</time>
      </trkpt>
      <trkpt lat="47.1258" lon="-1.62626">
        <ele>7.2</ele>
        <time>2015-04-21T16:07:05Z</time>
      </trkpt>
      <trkpt lat="47.12573" lon="-1.62601">
        <ele>8</ele>
        <time>2015-04-21T16:07:08Z</time>
      </trkpt>
      <trkpt lat="47.12567" lon="-1.62576">
        <ele>8.4</ele>
        <time>2015-04-21T16:07:11Z</time>
      </trkpt>
      <trkpt lat="47.12563" lon="-1.62548">
        <ele>8.4</ele>
        <time>2015-04-21T16:07:14Z</time>
      </trkpt>
      <trkpt lat="47.12559" lon="-1.6252">
        <ele>8.6</ele>
        <time>2015-04-21T16:07:17Z</time>
      </trkpt>
      <trkpt lat="47.12554" lon="-1.62492">
        <ele>8.6</ele>
        <time>2015-04-21T16:07:20Z</time>
      </trkpt>
      <trkpt lat="47.12548" lon="-1.62463">
        <ele>8.9</ele>
        <time>2015-04-21T16:07:23Z</time>
      </trkpt>
      <trkpt lat="47.1254" lon="-1.62437">
        <ele>9.2</ele>
        <time>2015-04-21T16:07:26Z</time>
      </trkpt>
      <trkpt lat="47.12532" lon="-1.62411">
        <ele>9.4</ele>
        <time>2015-04-21T16:07:29Z</time>
      </trkpt>
      <trkpt lat="47.12522" lon="-1.62383">
        <ele>9.5</ele>
        <time>2015-04-21T16:07:32Z</time>
      </trkpt>
      <trkpt lat="47.12511" lon="-1.62359">
        <ele>9.6</ele>
        <time>2015-04-21T16:07:35Z</time>
      </trkpt>
      <trkpt lat="47.12498" lon="-1.62337">
        <ele>9.2</ele>
        <time>2015-04-21T16:07:38Z</time>
      </trkpt>
      <trkpt lat="47.12487" lon="-1.62316">
        <ele>9</ele>
        <time>2015-04-21T16:07:41Z</time>
      </trkpt>
      <trkpt lat="47.12472" lon="-1.62296">
        <ele>8.5</ele>
        <time>2015-04-21T16:07:44Z</time>
      </trkpt>
      <trkpt lat="47.12455" lon="-1.62271">
        <ele>8.3</ele>
        <time>2015-04-21T16:07:48Z</time>
      </trkpt>
      <trkpt lat="47.12441" lon="-1.62253">
        <ele>8.1</ele>
        <time>2015-04-21T16:07:51Z</time>
      </trkpt>
      <trkpt lat="47.12426" lon="-1.62235">
        <ele>8.5</ele>
        <time>2015-04-21T16:07:54Z</time>
      </trkpt>
      <trkpt lat="47.12413" lon="-1.62213">
        <ele>8.8</ele>
        <time>2015-04-21T16:07:57Z</time>
      </trkpt>
      <trkpt lat="47.12402" lon="-1.62192">
        <ele>9</ele>
        <time>2015-04-21T16:08:00Z</time>
      </trkpt>
      <trkpt lat="47.12393" lon="-1.6217">
        <ele>9</ele>
        <time>2015-04-21T16:08:03Z</time>
      </trkpt>
      <trkpt lat="47.12385" lon="-1.62145">
        <ele>9.1</ele>
        <time>2015-04-21T16:08:06Z</time>
      </trkpt>
      <trkpt lat="47.1238" lon="-1.62112">
        <ele>9</ele>
        <time>2015-04-21T16:08:10Z</time>
      </trkpt>
      <trkpt lat="47.12379" lon="-1.62085">
        <ele>8.4</ele>
        <time>2015-04-21T16:08:13Z</time>
      </trkpt>
      <trkpt lat="47.12382" lon="-1.62059">
        <ele>7.9</ele>
        <time>2015-04-21T16:08:16Z</time>
      </trkpt>
      <trkpt lat="47.12388" lon="-1.62024">
        <ele>6.5</ele>
        <time>2015-04-21T16:08:20Z</time>
      </trkpt>
      <trkpt lat="47.12396" lon="-1.61992">
        <ele>5.7</ele>
        <time>2015-04-21T16:08:24Z</time>
      </trkpt>
      <trkpt lat="47.12404" lon="-1.6196">
        <ele>3.7</ele>
        <time>2015-04-21T16:08:28Z</time>
      </trkpt>
      <trkpt lat="47.12411" lon="-1.61929">
        <ele>2.9</ele>
        <time>2015-04-21T16:08:32Z</time>
      </trkpt>
      <trkpt lat="47.12417" lon="-1.619">
        <ele>2.4</ele>
        <time>2015-04-21T16:08:36Z</time>
      </trkpt>
      <trkpt lat="47.12427" lon="-1.61869">
        <ele>1.7</ele>
        <time>2015-04-21T16:08:40Z</time>
      </trkpt>
      <trkpt lat="47.12435" lon="-1.61838">
        <ele>1.6</ele>
        <time>2015-04-21T16:08:44Z</time>
      </trkpt>
      <trkpt lat="47.12441" lon="-1.61806">
        <ele>1.4</ele>
        <time>2015-04-21T16:08:48Z</time>
      </trkpt>
      <trkpt lat="47.12449" lon="-1.61775">
        <ele>0.9</ele>
        <time>2015-04-21T16:08:52Z</time>
      </trkpt>
      <trkpt lat="47.12456" lon="-1.61743">
        <ele>0.4</ele>
        <time>2015-04-21T16:08:56Z</time>
      </trkpt>
      <trkpt lat="47.12464" lon="-1.61712">
        <ele>0.1</ele>
        <time>2015-04-21T16:09:00Z</time>
      </trkpt>
      <trkpt lat="47.1247" lon="-1.61677">
        <ele>-0.4</ele>
        <time>2015-04-21T16:09:04Z</time>
      </trkpt>
      <trkpt lat="47.12475" lon="-1.61643">
        <ele>-0.6</ele>
        <time>2015-04-21T16:09:08Z</time>
      </trkpt>
      <trkpt lat="47.12475" lon="-1.61611">
        <ele>-0.6</ele>
        <time>2015-04-21T16:09:12Z</time>
      </trkpt>
      <trkpt lat="47.12473" lon="-1.6158">
        <ele>-0.3</ele>
        <time>2015-04-21T16:09:16Z</time>
      </trkpt>
      <trkpt lat="47.12472" lon="-1.61554">
        <ele>-0.4</ele>
        <time>2015-04-21T16:09:19Z</time>
      </trkpt>
      <trkpt lat="47.12467" lon="-1.61519">
        <ele>-0.4</ele>
        <time>2015-04-21T16:09:23Z</time>
      </trkpt>
      <trkpt lat="47.12464" lon="-1.61485">
        <ele>-0.5</ele>
        <time>2015-04-21T16:09:27Z</time>
      </trkpt>
      <trkpt lat="47.1246" lon="-1.61459">
        <ele>-0.7</ele>
        <time>2015-04-21T16:09:30Z</time>
      </trkpt>
      <trkpt lat="47.12458" lon="-1.61426">
        <ele>-0.7</ele>
        <time>2015-04-21T16:09:34Z</time>
      </trkpt>
      <trkpt lat="47.12458" lon="-1.61398">
        <ele>-1</ele>
        <time>2015-04-21T16:09:37Z</time>
      </trkpt>
      <trkpt lat="47.1246" lon="-1.6137">
        <ele>-1.1</ele>
        <time>2015-04-21T16:09:40Z</time>
      </trkpt>
      <trkpt lat="47.12465" lon="-1.61344">
        <ele>-1.6</ele>
        <time>2015-04-21T16:09:43Z</time>
      </trkpt>
      <trkpt lat="47.12472" lon="-1.6131">
        <ele>-2.3</ele>
        <time>2015-04-21T16:09:47Z</time>
      </trkpt>
      <trkpt lat="47.12481" lon="-1.61284">
        <ele>-2.8</ele>
        <time>2015-04-21T16:09:50Z</time>
      </trkpt>
      <trkpt lat="47.12489" lon="-1.61259">
        <ele>-3.3</ele>
        <time>2015-04-21T16:09:53Z</time>
      </trkpt>
      <trkpt lat="47.12495" lon="-1.61233">
        <ele>-3.9</ele>
        <time>2015-04-21T16:09:56Z</time>
      </trkpt>
      <trkpt lat="47.125" lon="-1.612">
        <ele>-4</ele>
        <time>2015-04-21T16:10:00Z</time>
      </trkpt>
      <trkpt lat="47.12503" lon="-1.61169">
        <ele>-4.4</ele>
        <time>2015-04-21T16:10:04Z</time>
      </trkpt>
      <trkpt lat="47.12505" lon="-1.6114">
        <ele>-4.4</ele>
        <time>2015-04-21T16:10:08Z</time>
      </trkpt>
      <trkpt lat="47.12508" lon="-1.61109">
        <ele>-4.4</ele>
        <time>2015-04-21T16:10:12Z</time>
      </trkpt>
      <trkpt lat="47.12509" lon="-1.61075">
        <ele>-4.5</ele>
        <time>2015-04-21T16:10:16Z</time>
      </trkpt>
      <trkpt lat="47.12511" lon="-1.61048">
        <ele>-4.8</ele>
        <time>2015-04-21T16:10:19Z</time>
      </trkpt>
      <trkpt lat="47.12516" lon="-1.61014">
        <ele>-5.4</ele>
        <time>2015-04-21T16:10:23Z</time>
      </trkpt>
      <trkpt lat="47.12519" lon="-1.60987">
        <ele>-5.6</ele>
        <time>2015-04-21T16:10:26Z</time>
      </trkpt>
      <trkpt lat="47.12522" lon="-1.60953">
        <ele>-5.5</ele>
        <time>2015-04-21T16:10:30Z</time>
      </trkpt>
      <trkpt lat="47.12525" lon="-1.60921">
        <ele>-5.5</ele>
        <time>2015-04-21T16:10:34Z</time>
      </trkpt>
      <trkpt lat="47.12527" lon="-1.60887">
        <ele>-5.4</ele>
        <time>2015-04-21T16:10:38Z</time>
      </trkpt>
      <trkpt lat="47.12531" lon="-1.60854">
        <ele>-5.4</ele>
        <time>2015-04-21T16:10:42Z</time>
      </trkpt>
      <trkpt lat="47.12532" lon="-1.60826">
        <ele>-5.3</ele>
        <time>2015-04-21T16:10:45Z</time>
      </trkpt>
      <trkpt lat="47.12535" lon="-1.608">
        <ele>-5.3</ele>
        <time>2015-04-21T16:10:48Z</time>
      </trkpt>
      <trkpt lat="47.12538" lon="-1.60773">
        <ele>-5.4</ele>
        <time>2015-04-21T16:10:51Z</time>
      </trkpt>
      <trkpt lat="47.12539" lon="-1.60739">
        <ele>-5.7</ele>
        <time>2015-04-21T16:10:55Z</time>
      </trkpt>
      <trkpt lat="47.12539" lon="-1.60711">
        <ele>-5.9</ele>
        <time>2015-04-21T16:10:58Z</time>
      </trkpt>
      <trkpt lat="47.12538" lon="-1.60675">
        <ele>-6.1</ele>
        <time>2015-04-21T16:11:02Z</time>
      </trkpt>
      <trkpt lat="47.12538" lon="-1.60649">
        <ele>-6.1</ele>
        <time>2015-04-21T16:11:05Z</time>
      </trkpt>
      <trkpt lat="47.12538" lon="-1.60622">
        <ele>-6.3</ele>
        <time>2015-04-21T16:11:08Z</time>
      </trkpt>
      <trkpt lat="47.12539" lon="-1.60595">
        <ele>-6.5</ele>
        <time>2015-04-21T16:11:11Z</time>
      </trkpt>
      <trkpt lat="47.12539" lon="-1.60568">
        <ele>-6.7</ele>
        <time>2015-04-21T16:11:14Z</time>
      </trkpt>
      <trkpt lat="47.12537" lon="-1.60533">
        <ele>-6.9</ele>
        <time>2015-04-21T16:11:18Z</time>
      </trkpt>
      <trkpt lat="47.12534" lon="-1.60506">
        <ele>-6.9</ele>
        <time>2015-04-21T16:11:21Z</time>
      </trkpt>
      <trkpt lat="47.1253" lon="-1.60478">
        <ele>-6.8</ele>
        <time>2015-04-21T16:11:24Z</time>
      </trkpt>
      <trkpt lat="47.12525" lon="-1.60444">
        <ele>-6.5</ele>
        <time>2015-04-21T16:11:28Z</time>
      </trkpt>
      <trkpt lat="47.12521" lon="-1.60416">
        <ele>-6.2</ele>
        <time>2015-04-21T16:11:31Z</time>
      </trkpt>
      <trkpt lat="47.12516" lon="-1.60387">
        <ele>-6.1</ele>
        <time>2015-04-21T16:11:34Z</time>
      </trkpt>
      <trkpt lat="47.12511" lon="-1.6036">
        <ele>-6.1</ele>
        <time>2015-04-21T16:11:37Z</time>
      </trkpt>
      <trkpt lat="47.12505" lon="-1.60332">
        <ele>-6.1</ele>
        <time>2015-04-21T16:11:40Z</time>
      </trkpt>
      <trkpt lat="47.12501" lon="-1.60305">
        <ele>-6.1</ele>
        <time>2015-04-21T16:11:43Z</time>
      </trkpt>
      <trkpt lat="47.12496" lon="-1.6028">
        <ele>-6</ele>
        <time>2015-04-21T16:11:46Z</time>
      </trkpt>
      <trkpt lat="47.1249" lon="-1.60253">
        <ele>-6</ele>
        <time>2015-04-21T16:11:49Z</time>
      </trkpt>
      <trkpt lat="47.12483" lon="-1.60226">
        <ele>-6</ele>
        <time>2015-04-21T16:11:52Z</time>
      </trkpt>
      <trkpt lat="47.12478" lon="-1.60193">
        <ele>-5.7</ele>
        <time>2015-04-21T16:11:56Z</time>
      </trkpt>
      <trkpt lat="47.12473" lon="-1.60167">
        <ele>-5.7</ele>
        <time>2015-04-21T16:11:59Z</time>
      </trkpt>
      <trkpt lat="47.12472" lon="-1.6014">
        <ele>-5.7</ele>
        <time>2015-04-21T16:12:02Z</time>
      </trkpt>
      <trkpt lat="47.1247" lon="-1.60106">
        <ele>-5.9</ele>
        <time>2015-04-21T16:12:06Z</time>
      </trkpt>
      <trkpt lat="47.1247" lon="-1.60075">
        <ele>-5.9</ele>
        <time>2015-04-21T16:12:10Z</time>
      </trkpt>
      <trkpt lat="47.12468" lon="-1.60044">
        <ele>-6.2</ele>
        <time>2015-04-21T16:12:14Z</time>
      </trkpt>
      <trkpt lat="47.12467" lon="-1.60011">
        <ele>-6.7</ele>
        <time>2015-04-21T16:12:18Z</time>
      </trkpt>
      <trkpt lat="47.12466" lon="-1.59977">
        <ele>-6.8</ele>
        <time>2015-04-21T16:12:22Z</time>
      </trkpt>
      <trkpt lat="47.12462" lon="-1.59944">
        <ele>-6.6</ele>
        <time>2015-04-21T16:12:26Z</time>
      </trkpt>
      <trkpt lat="47.1246" lon="-1.59917">
        <ele>-6.6</ele>
        <time>2015-04-21T16:12:29Z</time>
      </trkpt>
      <trkpt lat="47.1246" lon="-1.59885">
        <ele>-6.7</ele>
        <time>2015-04-21T16:12:33Z</time>
      </trkpt>
      <trkpt lat="47.12457" lon="-1.59855">
        <ele>-6.6</ele>
        <time>2015-04-21T16:12:37Z</time>
      </trkpt>
      <trkpt lat="47.12458" lon="-1.59822">
        <ele>-6.6</ele>
        <time>2015-04-21T16:12:41Z</time>
      </trkpt>
      <trkpt lat="47.12458" lon="-1.59789">
        <ele>-6.6</ele>
        <time>2015-04-21T16:12:45Z</time>
      </trkpt>
      <trkpt lat="47.12458" lon="-1.59755">
        <ele>-6.4</ele>
        <time>2015-04-21T16:12:49Z</time>
      </trkpt>
      <trkpt lat="47.12458" lon="-1.5972">
        <ele>-6.4</ele>
        <time>2015-04-21T16:12:53Z</time>
      </trkpt>
      <trkpt lat="47.12456" lon="-1.59694">
        <ele>-6.4</ele>
        <time>2015-04-21T16:12:56Z</time>
      </trkpt>
      <trkpt lat="47.12454" lon="-1.59666">
        <ele>-7</ele>
        <time>2015-04-21T16:12:59Z</time>
      </trkpt>
      <trkpt lat="47.12452" lon="-1.59638">
        <ele>-7.7</ele>
        <time>2015-04-21T16:13:02Z</time>
      </trkpt>
      <trkpt lat="47.12451" lon="-1.59611">
        <ele>-8.4</ele>
        <time>2015-04-21T16:13:05Z</time>
      </trkpt>
      <trkpt lat="47.12448" lon="-1.59578">
        <ele>-8.7</ele>
        <time>2015-04-21T16:13:09Z</time>
      </trkpt>
      <trkpt lat="47.12446" lon="-1.5955">
        <ele>-9.2</ele>
        <time>2015-04-21T16:13:12Z</time>
      </trkpt>
      <trkpt lat="47.12445" lon="-1.59515">
        <ele>-9.8</ele>
        <time>2015-04-21T16:13:16Z</time>
      </trkpt>
      <trkpt lat="47.12444" lon="-1.59488">
        <ele>-10.2</ele>
        <time>2015-04-21T16:13:19Z</time>
      </trkpt>
      <trkpt lat="47.12442" lon="-1.59461">
        <ele>-10.7</ele>
        <time>2015-04-21T16:13:22Z</time>
      </trkpt>
      <trkpt lat="47.12442" lon="-1.59434">
        <ele>-11.1</ele>
        <time>2015-04-21T16:13:25Z</time>
      </trkpt>
      <trkpt lat="47.12441" lon="-1.59407">
        <ele>-11.5</ele>
        <time>2015-04-21T16:13:28Z</time>
      </trkpt>
      <trkpt lat="47.1244" lon="-1.5938">
        <ele>-11.8</ele>
        <time>2015-04-21T16:13:31Z</time>
      </trkpt>
      <trkpt lat="47.12438" lon="-1.59353">
        <ele>-12.2</ele>
        <time>2015-04-21T16:13:34Z</time>
      </trkpt>
      <trkpt lat="47.12436" lon="-1.59319">
        <ele>-12.7</ele>
        <time>2015-04-21T16:13:38Z</time>
      </trkpt>
      <trkpt lat="47.12436" lon="-1.59293">
        <ele>-13.1</ele>
        <time>2015-04-21T16:13:41Z</time>
      </trkpt>
      <trkpt lat="47.12435" lon="-1.59259">
        <ele>-13.2</ele>
        <time>2015-04-21T16:13:45Z</time>
      </trkpt>
      <trkpt lat="47.12431" lon="-1.59225">
        <ele>-14</ele>
        <time>2015-04-21T16:13:49Z</time>
      </trkpt>
      <trkpt lat="47.12428" lon="-1.59193">
        <ele>-14.4</ele>
        <time>2015-04-21T16:13:53Z</time>
      </trkpt>
      <trkpt lat="47.12427" lon="-1.5916">
        <ele>-14.3</ele>
        <time>2015-04-21T16:13:57Z</time>
      </trkpt>
      <trkpt lat="47.12423" lon="-1.59128">
        <ele>-13.2</ele>
        <time>2015-04-21T16:14:01Z</time>
      </trkpt>
      <trkpt lat="47.1242" lon="-1.59093">
        <ele>-13.4</ele>
        <time>2015-04-21T16:14:05Z</time>
      </trkpt>
      <trkpt lat="47.12419" lon="-1.59059">
        <ele>-13.7</ele>
        <time>2015-04-21T16:14:09Z</time>
      </trkpt>
      <trkpt lat="47.12419" lon="-1.59026">
        <ele>-14.3</ele>
        <time>2015-04-21T16:14:13Z</time>
      </trkpt>
      <trkpt lat="47.12417" lon="-1.58994">
        <ele>-14.7</ele>
        <time>2015-04-21T16:14:17Z</time>
      </trkpt>
      <trkpt lat="47.12414" lon="-1.58964">
        <ele>-14.4</ele>
        <time>2015-04-21T16:14:21Z</time>
      </trkpt>
      <trkpt lat="47.12414" lon="-1.58938">
        <ele>-13.4</ele>
        <time>2015-04-21T16:14:25Z</time>
      </trkpt>
      <trkpt lat="47.12414" lon="-1.58905">
        <ele>-11.6</ele>
        <time>2015-04-21T16:14:30Z</time>
      </trkpt>
      <trkpt lat="47.12412" lon="-1.58879">
        <ele>-10.9</ele>
        <time>2015-04-21T16:14:34Z</time>
      </trkpt>
      <trkpt lat="47.12408" lon="-1.58848">
        <ele>-9.4</ele>
        <time>2015-04-21T16:14:38Z</time>
      </trkpt>
      <trkpt lat="47.12405" lon="-1.58818">
        <ele>-8.4</ele>
        <time>2015-04-21T16:14:42Z</time>
      </trkpt>
      <trkpt lat="47.12401" lon="-1.58786">
        <ele>-8.1</ele>
        <time>2015-04-21T16:14:46Z</time>
      </trkpt>
      <trkpt lat="47.12397" lon="-1.58756">
        <ele>-7.6</ele>
        <time>2015-04-21T16:14:50Z</time>
      </trkpt>
      <trkpt lat="47.12392" lon="-1.58725">
        <ele>-7.7</ele>
        <time>2015-04-21T16:14:54Z</time>
      </trkpt>
      <trkpt lat="47.12386" lon="-1.58693">
        <ele>-7.7</ele>
        <time>2015-04-21T16:14:58Z</time>
      </trkpt>
      <trkpt lat="47.12382" lon="-1.58662">
        <ele>-7.1</ele>
        <time>2015-04-21T16:15:02Z</time>
      </trkpt>
      <trkpt lat="47.12377" lon="-1.5863">
        <ele>-6.4</ele>
        <time>2015-04-21T16:15:06Z</time>
      </trkpt>
      <trkpt lat="47.1237" lon="-1.58598">
        <ele>-6.1</ele>
        <time>2015-04-21T16:15:10Z</time>
      </trkpt>
      <trkpt lat="47.12363" lon="-1.58573">
        <ele>-5.9</ele>
        <time>2015-04-21T16:15:13Z</time>
      </trkpt>
      <trkpt lat="47.12356" lon="-1.5854">
        <ele>-5.5</ele>
        <time>2015-04-21T16:15:17Z</time>
      </trkpt>
      <trkpt lat="47.1235" lon="-1.58515">
        <ele>-5.4</ele>
        <time>2015-04-21T16:15:20Z</time>
      </trkpt>
      <trkpt lat="47.1234" lon="-1.58485">
        <ele>-5.8</ele>
        <time>2015-04-21T16:15:24Z</time>
      </trkpt>
      <trkpt lat="47.12332" lon="-1.58458">
        <ele>-5.3</ele>
        <time>2015-04-21T16:15:28Z</time>
      </trkpt>
      <trkpt lat="47.1232" lon="-1.58435">
        <ele>-4.4</ele>
        <time>2015-04-21T16:15:32Z</time>
      </trkpt>
      <trkpt lat="47.12308" lon="-1.58407">
        <ele>-4.1</ele>
        <time>2015-04-21T16:15:36Z</time>
      </trkpt>
      <trkpt lat="47.12302" lon="-1.5838">
        <ele>-4.3</ele>
        <time>2015-04-21T16:15:39Z</time>
      </trkpt>
      <trkpt lat="47.12298" lon="-1.5835">
        <ele>-4.8</ele>
        <time>2015-04-21T16:15:42Z</time>
      </trkpt>
      <trkpt lat="47.12284" lon="-1.58329">
        <ele>-5</ele>
        <time>2015-04-21T16:15:45Z</time>
      </trkpt>
      <trkpt lat="47.12265" lon="-1.58311">
        <ele>-5.4</ele>
        <time>2015-04-21T16:15:48Z</time>
      </trkpt>
      <trkpt lat="47.12248" lon="-1.58295">
        <ele>-5.3</ele>
        <time>2015-04-21T16:15:51Z</time>
      </trkpt>
      <trkpt lat="47.12234" lon="-1.58276">
        <ele>-5.7</ele>
        <time>2015-04-21T16:15:54Z</time>
      </trkpt>
      <trkpt lat="47.12218" lon="-1.58258">
        <ele>-5.6</ele>
        <time>2015-04-21T16:15:57Z</time>
      </trkpt>
      <trkpt lat="47.12204" lon="-1.58235">
        <ele>-5.3</ele>
        <time>2015-04-21T16:16:00Z</time>
      </trkpt>
      <trkpt lat="47.12202" lon="-1.58207">
        <ele>-4.9</ele>
        <time>2015-04-21T16:16:03Z</time>
      </trkpt>
      <trkpt lat="47.12203" lon="-1.5818">
        <ele>-4.1</ele>
        <time>2015-04-21T16:16:06Z</time>
      </trkpt>
      <trkpt lat="47.1221" lon="-1.58156">
        <ele>-3.8</ele>
        <time>2015-04-21T16:16:09Z</time>
      </trkpt>
      <trkpt lat="47.12222" lon="-1.58125">
        <ele>-4.7</ele>
        <time>2015-04-21T16:16:13Z</time>
      </trkpt>
      <trkpt lat="47.12232" lon="-1.58101">
        <ele>-5.3</ele>
        <time>2015-04-21T16:16:16Z</time>
      </trkpt>
      <trkpt lat="47.12244" lon="-1.58069">
        <ele>-5.4</ele>
        <time>2015-04-21T16:16:20Z</time>
      </trkpt>
      <trkpt lat="47.12246" lon="-1.58036">
        <ele>-5.9</ele>
        <time>2015-04-21T16:16:24Z</time>
      </trkpt>
      <trkpt lat="47.12234" lon="-1.5801">
        <ele>-6.3</ele>
        <time>2015-04-21T16:16:28Z</time>
      </trkpt>
      <trkpt lat="47.12222" lon="-1.5799">
        <ele>-6.1</ele>
        <time>2015-04-21T16:16:31Z</time>
      </trkpt>
      <trkpt lat="47.1221" lon="-1.5797">
        <ele>-5.9</ele>
        <time>2015-04-21T16:16:34Z</time>
      </trkpt>
      <trkpt lat="47.12195" lon="-1.57943">
        <ele>-5.4</ele>
        <time>2015-04-21T16:16:38Z</time>
      </trkpt>
      <trkpt lat="47.12187" lon="-1.57915">
        <ele>-5</ele>
        <time>2015-04-21T16:16:42Z</time>
      </trkpt>
      <trkpt lat="47.12185" lon="-1.57887">
        <ele>-3.5</ele>
        <time>2015-04-21T16:16:46Z</time>
      </trkpt>
      <trkpt lat="47.12185" lon="-1.57857">
        <ele>-3.4</ele>
        <time>2015-04-21T16:16:50Z</time>
      </trkpt>
      <trkpt lat="47.12184" lon="-1.57827">
        <ele>-3</ele>
        <time>2015-04-21T16:16:54Z</time>
      </trkpt>
      <trkpt lat="47.12183" lon="-1.57796">
        <ele>-3</ele>
        <time>2015-04-21T16:16:58Z</time>
      </trkpt>
      <trkpt lat="47.12184" lon="-1.57768">
        <ele>-2.8</ele>
        <time>2015-04-21T16:17:02Z</time>
      </trkpt>
      <trkpt lat="47.12183" lon="-1.57738">
        <ele>-3</ele>
        <time>2015-04-21T16:17:06Z</time>
      </trkpt>
      <trkpt lat="47.12182" lon="-1.57708">
        <ele>-2.5</ele>
        <time>2015-04-21T16:17:10Z</time>
      </trkpt>
      <trkpt lat="47.12182" lon="-1.57678">
        <ele>-2.4</ele>
        <time>2015-04-21T16:17:14Z</time>
      </trkpt>
      <trkpt lat="47.12184" lon="-1.57645">
        <ele>-2.6</ele>
        <time>2015-04-21T16:17:18Z</time>
      </trkpt>
      <trkpt lat="47.12184" lon="-1.57612">
        <ele>-2.8</ele>
        <time>2015-04-21T16:17:22Z</time>
      </trkpt>
      <trkpt lat="47.1218" lon="-1.57579">
        <ele>-2.9</ele>
        <time>2015-04-21T16:17:26Z</time>
      </trkpt>
      <trkpt lat="47.12178" lon="-1.57552">
        <ele>-2.7</ele>
        <time>2015-04-21T16:17:29Z</time>
      </trkpt>
      <trkpt lat="47.12176" lon="-1.57525">
        <ele>-3.1</ele>
        <time>2015-04-21T16:17:32Z</time>
      </trkpt>
      <trkpt lat="47.12172" lon="-1.57499">
        <ele>-3</ele>
        <time>2015-04-21T16:17:35Z</time>
      </trkpt>
      <trkpt lat="47.12167" lon="-1.57465">
        <ele>-2.9</ele>
        <time>2015-04-21T16:17:39Z</time>
      </trkpt>
      <trkpt lat="47.12162" lon="-1.57438">
        <ele>-3.2</ele>
        <time>2015-04-21T16:17:42Z</time>
      </trkpt>
      <trkpt lat="47.12156" lon="-1.57411">
        <ele>-3.4</ele>
        <time>2015-04-21T16:17:45Z</time>
      </trkpt>
      <trkpt lat="47.12151" lon="-1.57381">
        <ele>-3.3</ele>
        <time>2015-04-21T16:17:48Z</time>
      </trkpt>
      <trkpt lat="47.12145" lon="-1.57352">
        <ele>-3.2</ele>
        <time>2015-04-21T16:17:51Z</time>
      </trkpt>
      <trkpt lat="47.12142" lon="-1.57321">
        <ele>-3.6</ele>
        <time>2015-04-21T16:17:54Z</time>
      </trkpt>
      <trkpt lat="47.12134" lon="-1.57292">
        <ele>-3.5</ele>
        <time>2015-04-21T16:17:57Z</time>
      </trkpt>
      <trkpt lat="47.12128" lon="-1.57261">
        <ele>-3.6</ele>
        <time>2015-04-21T16:18:00Z</time>
      </trkpt>
      <trkpt lat="47.12123" lon="-1.5723">
        <ele>-3.6</ele>
        <time>2015-04-21T16:18:03Z</time>
      </trkpt>
      <trkpt lat="47.12116" lon="-1.57199">
        <ele>-3.5</ele>
        <time>2015-04-21T16:18:06Z</time>
      </trkpt>
      <trkpt lat="47.12111" lon="-1.57169">
        <ele>-3.6</ele>
        <time>2015-04-21T16:18:09Z</time>
      </trkpt>
      <trkpt lat="47.12106" lon="-1.5714">
        <ele>-3.7</ele>
        <time>2015-04-21T16:18:12Z</time>
      </trkpt>
      <trkpt lat="47.12099" lon="-1.57109">
        <ele>-3.9</ele>
        <time>2015-04-21T16:18:15Z</time>
      </trkpt>
      <trkpt lat="47.12094" lon="-1.57077">
        <ele>-4</ele>
        <time>2015-04-21T16:18:18Z</time>
      </trkpt>
      <trkpt lat="47.12089" lon="-1.57045">
        <ele>-4.3</ele>
        <time>2015-04-21T16:18:21Z</time>
      </trkpt>
      <trkpt lat="47.12084" lon="-1.57014">
        <ele>-4.5</ele>
        <time>2015-04-21T16:18:24Z</time>
      </trkpt>
      <trkpt lat="47.1208" lon="-1.56984">
        <ele>-4.8</ele>
        <time>2015-04-21T16:18:27Z</time>
      </trkpt>
      <trkpt lat="47.12074" lon="-1.56956">
        <ele>-5.3</ele>
        <time>2015-04-21T16:18:30Z</time>
      </trkpt>
      <trkpt lat="47.12067" lon="-1.56931">
        <ele>-5.7</ele>
        <time>2015-04-21T16:18:33Z</time>
      </trkpt>
      <trkpt lat="47.12061" lon="-1.569">
        <ele>-5.9</ele>
        <time>2015-04-21T16:18:37Z</time>
      </trkpt>
      <trkpt lat="47.12057" lon="-1.56873">
        <ele>-6.1</ele>
        <time>2015-04-21T16:18:41Z</time>
      </trkpt>
      <trkpt lat="47.12052" lon="-1.56846">
        <ele>-6.2</ele>
        <time>2015-04-21T16:18:45Z</time>
      </trkpt>
      <trkpt lat="47.12043" lon="-1.56815">
        <ele>-5.7</ele>
        <time>2015-04-21T16:18:49Z</time>
      </trkpt>
      <trkpt lat="47.12034" lon="-1.56784">
        <ele>-5.3</ele>
        <time>2015-04-21T16:18:53Z</time>
      </trkpt>
      <trkpt lat="47.12028" lon="-1.56755">
        <ele>-5.2</ele>
        <time>2015-04-21T16:18:57Z</time>
      </trkpt>
      <trkpt lat="47.12022" lon="-1.56727">
        <ele>-4.6</ele>
        <time>2015-04-21T16:19:01Z</time>
      </trkpt>
      <trkpt lat="47.12016" lon="-1.56701">
        <ele>-3.5</ele>
        <time>2015-04-21T16:19:05Z</time>
      </trkpt>
      <trkpt lat="47.1201" lon="-1.56674">
        <ele>-3.7</ele>
        <time>2015-04-21T16:19:09Z</time>
      </trkpt>
      <trkpt lat="47.12004" lon="-1.56647">
        <ele>-4.1</ele>
        <time>2015-04-21T16:19:13Z</time>
      </trkpt>
      <trkpt lat="47.11999" lon="-1.56619">
        <ele>-2.9</ele>
        <time>2015-04-21T16:19:17Z</time>
      </trkpt>
      <trkpt lat="47.11993" lon="-1.56592">
        <ele>-1.8</ele>
        <time>2015-04-21T16:19:21Z</time>
      </trkpt>
      <trkpt lat="47.11988" lon="-1.56565">
        <ele>-1.3</ele>
        <time>2015-04-21T16:19:25Z</time>
      </trkpt>
      <trkpt lat="47.11983" lon="-1.56537">
        <ele>-0.5</ele>
        <time>2015-04-21T16:19:29Z</time>
      </trkpt>
      <trkpt lat="47.11977" lon="-1.56509">
        <ele>0.1</ele>
        <time>2015-04-21T16:19:33Z</time>
      </trkpt>
      <trkpt lat="47.11969" lon="-1.5648">
        <ele>0.6</ele>
        <time>2015-04-21T16:19:37Z</time>
      </trkpt>
      <trkpt lat="47.11961" lon="-1.56452">
        <ele>0.9</ele>
        <time>2015-04-21T16:19:41Z</time>
      </trkpt>
      <trkpt lat="47.11957" lon="-1.56424">
        <ele>1.6</ele>
        <time>2015-04-21T16:19:45Z</time>
      </trkpt>
      <trkpt lat="47.11951" lon="-1.56397">
        <ele>1.9</ele>
        <time>2015-04-21T16:19:49Z</time>
      </trkpt>
      <trkpt lat="47.11945" lon="-1.5637">
        <ele>2.6</ele>
        <time>2015-04-21T16:19:53Z</time>
      </trkpt>
      <trkpt lat="47.11938" lon="-1.56343">
        <ele>2.6</ele>
        <time>2015-04-21T16:19:57Z</time>
      </trkpt>
      <trkpt lat="47.1193" lon="-1.56315">
        <ele>1.9</ele>
        <time>2015-04-21T16:20:01Z</time>
      </trkpt>
      <trkpt lat="47.11923" lon="-1.56287">
        <ele>1.4</ele>
        <time>2015-04-21T16:20:05Z</time>
      </trkpt>
      <trkpt lat="47.11916" lon="-1.56259">
        <ele>1.8</ele>
        <time>2015-04-21T16:20:09Z</time>
      </trkpt>
      <trkpt lat="47.11908" lon="-1.56231">
        <ele>2</ele>
        <time>2015-04-21T16:20:13Z</time>
      </trkpt>
      <trkpt lat="47.11899" lon="-1.56203">
        <ele>2.3</ele>
        <time>2015-04-21T16:20:17Z</time>
      </trkpt>
      <trkpt lat="47.11891" lon="-1.56175">
        <ele>1.9</ele>
        <time>2015-04-21T16:20:21Z</time>
      </trkpt>
      <trkpt lat="47.11884" lon="-1.56147">
        <ele>1.8</ele>
        <time>2015-04-21T16:20:25Z</time>
      </trkpt>
      <trkpt lat="47.11878" lon="-1.56121">
        <ele>1.9</ele>
        <time>2015-04-21T16:20:29Z</time>
      </trkpt>
      <trkpt lat="47.11872" lon="-1.56094">
        <ele>1.5</ele>
        <time>2015-04-21T16:20:33Z</time>
      </trkpt>
      <trkpt lat="47.11866" lon="-1.56067">
        <ele>0.1</ele>
        <time>2015-04-21T16:20:37Z</time>
      </trkpt>
      <trkpt lat="47.11861" lon="-1.56038">
        <ele>-1.3</ele>
        <time>2015-04-21T16:20:41Z</time>
      </trkpt>
      <trkpt lat="47.11857" lon="-1.56009">
        <ele>-2</ele>
        <time>2015-04-21T16:20:45Z</time>
      </trkpt>
      <trkpt lat="47.11855" lon="-1.55979">
        <ele>-2.3</ele>
        <time>2015-04-21T16:20:49Z</time>
      </trkpt>
      <trkpt lat="47.11854" lon="-1.55951">
        <ele>-2</ele>
        <time>2015-04-21T16:20:53Z</time>
      </trkpt>
      <trkpt lat="47.11851" lon="-1.55924">
        <ele>-1.8</ele>
        <time>2015-04-21T16:20:57Z</time>
      </trkpt>
      <trkpt lat="47.11849" lon="-1.55893">
        <ele>-1.7</ele>
        <time>2015-04-21T16:21:02Z</time>
      </trkpt>
      <trkpt lat="47.11846" lon="-1.55865">
        <ele>-1.8</ele>
        <time>2015-04-21T16:21:06Z</time>
      </trkpt>
      <trkpt lat="47.11844" lon="-1.55837">
        <ele>-1.7</ele>
        <time>2015-04-21T16:21:10Z</time>
      </trkpt>
      <trkpt lat="47.11842" lon="-1.55809">
        <ele>-1.6</ele>
        <time>2015-04-21T16:21:14Z</time>
      </trkpt>
      <trkpt lat="47.11841" lon="-1.55778">
        <ele>-2</ele>
        <time>2015-04-21T16:21:19Z</time>
      </trkpt>
      <trkpt lat="47.11838" lon="-1.55747">
        <ele>-2.4</ele>
        <time>2015-04-21T16:21:24Z</time>
      </trkpt>
      <trkpt lat="47.11835" lon="-1.55714">
        <ele>-2</ele>
        <time>2015-04-21T16:21:29Z</time>
      </trkpt>
      <trkpt lat="47.11834" lon="-1.55687">
        <ele>-1.8</ele>
        <time>2015-04-21T16:21:33Z</time>
      </trkpt>
      <trkpt lat="47.11833" lon="-1.55659">
        <ele>-0.7</ele>
        <time>2015-04-21T16:21:37Z</time>
      </trkpt>
      <trkpt lat="47.11831" lon="-1.55632">
        <ele>17.9</ele>
        <time>2015-04-21T16:21:41Z</time>
      </trkpt>
      <trkpt lat="47.1183" lon="-1.55605">
        <ele>0.8</ele>
        <time>2015-04-21T16:21:45Z</time>
      </trkpt>
      <trkpt lat="47.11829" lon="-1.55576">
        <ele>1.5</ele>
        <time>2015-04-21T16:21:49Z</time>
      </trkpt>
      <trkpt lat="47.11826" lon="-1.55547">
        <ele>1.9</ele>
        <time>2015-04-21T16:21:53Z</time>
      </trkpt>
      <trkpt lat="47.11822" lon="-1.55518">
        <ele>1.6</ele>
        <time>2015-04-21T16:21:57Z</time>
      </trkpt>
      <trkpt lat="47.1182" lon="-1.5549">
        <ele>1.6</ele>
        <time>2015-04-21T16:22:01Z</time>
      </trkpt>
      <trkpt lat="47.1182" lon="-1.5546">
        <ele>2</ele>
        <time>2015-04-21T16:22:05Z</time>
      </trkpt>
      <trkpt lat="47.11819" lon="-1.5543">
        <ele>2.3</ele>
        <time>2015-04-21T16:22:09Z</time>
      </trkpt>
      <trkpt lat="47.11819" lon="-1.554">
        <ele>2.7</ele>
        <time>2015-04-21T16:22:13Z</time>
      </trkpt>
      <trkpt lat="47.11819" lon="-1.55372">
        <ele>3.4</ele>
        <time>2015-04-21T16:22:17Z</time>
      </trkpt>
      <trkpt lat="47.11818" lon="-1.55344">
        <ele>3.7</ele>
        <time>2015-04-21T16:22:21Z</time>
      </trkpt>
      <trkpt lat="47.11816" lon="-1.55314">
        <ele>3.9</ele>
        <time>2015-04-21T16:22:25Z</time>
      </trkpt>
      <trkpt lat="47.11815" lon="-1.55285">
        <ele>3.6</ele>
        <time>2015-04-21T16:22:29Z</time>
      </trkpt>
      <trkpt lat="47.11814" lon="-1.55254">
        <ele>3.3</ele>
        <time>2015-04-21T16:22:33Z</time>
      </trkpt>
      <trkpt lat="47.11813" lon="-1.55222">
        <ele>3.5</ele>
        <time>2015-04-21T16:22:37Z</time>
      </trkpt>
      <trkpt lat="47.11814" lon="-1.55192">
        <ele>3.5</ele>
        <time>2015-04-21T16:22:41Z</time>
      </trkpt>
      <trkpt lat="47.11813" lon="-1.55162">
        <ele>3.2</ele>
        <time>2015-04-21T16:22:45Z</time>
      </trkpt>
      <trkpt lat="47.1181" lon="-1.55132">
        <ele>4.4</ele>
        <time>2015-04-21T16:22:49Z</time>
      </trkpt>
      <trkpt lat="47.11808" lon="-1.55102">
        <ele>5.5</ele>
        <time>2015-04-21T16:22:53Z</time>
      </trkpt>
      <trkpt lat="47.11803" lon="-1.55073">
        <ele>6.3</ele>
        <time>2015-04-21T16:22:57Z</time>
      </trkpt>
      <trkpt lat="47.118" lon="-1.55044">
        <ele>6.6</ele>
        <time>2015-04-21T16:23:01Z</time>
      </trkpt>
      <trkpt lat="47.11795" lon="-1.55016">
        <ele>6.4</ele>
        <time>2015-04-21T16:23:05Z</time>
      </trkpt>
      <trkpt lat="47.11789" lon="-1.54987">
        <ele>6.5</ele>
        <time>2015-04-21T16:23:09Z</time>
      </trkpt>
      <trkpt lat="47.11782" lon="-1.54957">
        <ele>6.7</ele>
        <time>2015-04-21T16:23:13Z</time>
      </trkpt>
      <trkpt lat="47.11774" lon="-1.54928">
        <ele>6.6</ele>
        <time>2015-04-21T16:23:17Z</time>
      </trkpt>
      <trkpt lat="47.11766" lon="-1.54899">
        <ele>6.3</ele>
        <time>2015-04-21T16:23:21Z</time>
      </trkpt>
      <trkpt lat="47.11759" lon="-1.54874">
        <ele>6.2</ele>
        <time>2015-04-21T16:23:24Z</time>
      </trkpt>
      <trkpt lat="47.11749" lon="-1.54847">
        <ele>5.9</ele>
        <time>2015-04-21T16:23:28Z</time>
      </trkpt>
      <trkpt lat="47.1174" lon="-1.54818">
        <ele>5.6</ele>
        <time>2015-04-21T16:23:32Z</time>
      </trkpt>
      <trkpt lat="47.11732" lon="-1.54791">
        <ele>5.2</ele>
        <time>2015-04-21T16:23:36Z</time>
      </trkpt>
      <trkpt lat="47.11724" lon="-1.54764">
        <ele>4.7</ele>
        <time>2015-04-21T16:23:40Z</time>
      </trkpt>
      <trkpt lat="47.11715" lon="-1.54737">
        <ele>4.6</ele>
        <time>2015-04-21T16:23:44Z</time>
      </trkpt>
      <trkpt lat="47.11708" lon="-1.5471">
        <ele>5.2</ele>
        <time>2015-04-21T16:23:48Z</time>
      </trkpt>
      <trkpt lat="47.117" lon="-1.54684">
        <ele>5.9</ele>
        <time>2015-04-21T16:23:52Z</time>
      </trkpt>
      <trkpt lat="47.11692" lon="-1.54659">
        <ele>5.7</ele>
        <time>2015-04-21T16:23:56Z</time>
      </trkpt>
      <trkpt lat="47.11684" lon="-1.54632">
        <ele>5.7</ele>
        <time>2015-04-21T16:24:00Z</time>
      </trkpt>
      <trkpt lat="47.11675" lon="-1.54606">
        <ele>5.4</ele>
        <time>2015-04-21T16:24:04Z</time>
      </trkpt>
      <trkpt lat="47.11666" lon="-1.54578">
        <ele>4.9</ele>
        <time>2015-04-21T16:24:08Z</time>
      </trkpt>
      <trkpt lat="47.11657" lon="-1.54551">
        <ele>4.2</ele>
        <time>2015-04-21T16:24:12Z</time>
      </trkpt>
      <trkpt lat="47.11647" lon="-1.54522">
        <ele>4</ele>
        <time>2015-04-21T16:24:16Z</time>
      </trkpt>
      <trkpt lat="47.11638" lon="-1.54494">
        <ele>4.1</ele>
        <time>2015-04-21T16:24:20Z</time>
      </trkpt>
      <trkpt lat="47.11626" lon="-1.54466">
        <ele>3.9</ele>
        <time>2015-04-21T16:24:24Z</time>
      </trkpt>
      <trkpt lat="47.11616" lon="-1.54438">
        <ele>3.2</ele>
        <time>2015-04-21T16:24:28Z</time>
      </trkpt>
      <trkpt lat="47.11607" lon="-1.54409">
        <ele>3.4</ele>
        <time>2015-04-21T16:24:32Z</time>
      </trkpt>
      <trkpt lat="47.11597" lon="-1.5438">
        <ele>3.1</ele>
        <time>2015-04-21T16:24:36Z</time>
      </trkpt>
      <trkpt lat="47.11586" lon="-1.5435">
        <ele>2.8</ele>
        <time>2015-04-21T16:24:40Z</time>
      </trkpt>
      <trkpt lat="47.11577" lon="-1.54321">
        <ele>2.7</ele>
        <time>2015-04-21T16:24:44Z</time>
      </trkpt>
      <trkpt lat="47.11569" lon="-1.54295">
        <ele>2.1</ele>
        <time>2015-04-21T16:24:48Z</time>
      </trkpt>
      <trkpt lat="47.11559" lon="-1.54272">
        <ele>2.4</ele>
        <time>2015-04-21T16:24:52Z</time>
      </trkpt>
      <trkpt lat="47.11574" lon="-1.54247">
        <ele>3.7</ele>
        <time>2015-04-21T16:24:57Z</time>
      </trkpt>
      <trkpt lat="47.11595" lon="-1.54232">
        <ele>4.5</ele>
        <time>2015-04-21T16:25:01Z</time>
      </trkpt>
      <trkpt lat="47.11616" lon="-1.54217">
        <ele>4.8</ele>
        <time>2015-04-21T16:25:05Z</time>
      </trkpt>
      <trkpt lat="47.11633" lon="-1.54197">
        <ele>5</ele>
        <time>2015-04-21T16:25:09Z</time>
      </trkpt>
      <trkpt lat="47.11641" lon="-1.54169">
        <ele>5</ele>
        <time>2015-04-21T16:25:13Z</time>
      </trkpt>
      <trkpt lat="47.11656" lon="-1.54145">
        <ele>5.6</ele>
        <time>2015-04-21T16:25:17Z</time>
      </trkpt>
      <trkpt lat="47.11676" lon="-1.54131">
        <ele>5.7</ele>
        <time>2015-04-21T16:25:21Z</time>
      </trkpt>
      <trkpt lat="47.11692" lon="-1.54112">
        <ele>6</ele>
        <time>2015-04-21T16:25:25Z</time>
      </trkpt>
      <trkpt lat="47.11702" lon="-1.54089">
        <ele>5.6</ele>
        <time>2015-04-21T16:25:29Z</time>
      </trkpt>
      <trkpt lat="47.11712" lon="-1.54066">
        <ele>5.7</ele>
        <time>2015-04-21T16:25:33Z</time>
      </trkpt>
      <trkpt lat="47.11722" lon="-1.54042">
        <ele>6.3</ele>
        <time>2015-04-21T16:25:37Z</time>
      </trkpt>
      <trkpt lat="47.11734" lon="-1.54018">
        <ele>6.2</ele>
        <time>2015-04-21T16:25:41Z</time>
      </trkpt>
      <trkpt lat="47.11744" lon="-1.53993">
        <ele>6.5</ele>
        <time>2015-04-21T16:25:45Z</time>
      </trkpt>
      <trkpt lat="47.11757" lon="-1.53966">
        <ele>6.2</ele>
        <time>2015-04-21T16:25:49Z</time>
      </trkpt>
      <trkpt lat="47.11768" lon="-1.53939">
        <ele>5.8</ele>
        <time>2015-04-21T16:25:53Z</time>
      </trkpt>
      <trkpt lat="47.11781" lon="-1.53912">
        <ele>5.8</ele>
        <time>2015-04-21T16:25:57Z</time>
      </trkpt>
      <trkpt lat="47.11795" lon="-1.53886">
        <ele>5.8</ele>
        <time>2015-04-21T16:26:01Z</time>
      </trkpt>
      <trkpt lat="47.11811" lon="-1.5386">
        <ele>5.8</ele>
        <time>2015-04-21T16:26:05Z</time>
      </trkpt>
      <trkpt lat="47.11825" lon="-1.53833">
        <ele>5.4</ele>
        <time>2015-04-21T16:26:09Z</time>
      </trkpt>
      <trkpt lat="47.11838" lon="-1.53805">
        <ele>4.7</ele>
        <time>2015-04-21T16:26:13Z</time>
      </trkpt>
      <trkpt lat="47.11851" lon="-1.53776">
        <ele>4.1</ele>
        <time>2015-04-21T16:26:17Z</time>
      </trkpt>
      <trkpt lat="47.11863" lon="-1.53745">
        <ele>3.1</ele>
        <time>2015-04-21T16:26:21Z</time>
      </trkpt>
      <trkpt lat="47.1187" lon="-1.53721">
        <ele>2.7</ele>
        <time>2015-04-21T16:26:24Z</time>
      </trkpt>
      <trkpt lat="47.11881" lon="-1.53693">
        <ele>2.7</ele>
        <time>2015-04-21T16:26:28Z</time>
      </trkpt>
      <trkpt lat="47.11895" lon="-1.53666">
        <ele>2.7</ele>
        <time>2015-04-21T16:26:32Z</time>
      </trkpt>
      <trkpt lat="47.1191" lon="-1.53642">
        <ele>2.5</ele>
        <time>2015-04-21T16:26:36Z</time>
      </trkpt>
      <trkpt lat="47.11926" lon="-1.53615">
        <ele>2.3</ele>
        <time>2015-04-21T16:26:40Z</time>
      </trkpt>
      <trkpt lat="47.1194" lon="-1.53588">
        <ele>1.7</ele>
        <time>2015-04-21T16:26:44Z</time>
      </trkpt>
      <trkpt lat="47.11953" lon="-1.53561">
        <ele>1.6</ele>
        <time>2015-04-21T16:26:48Z</time>
      </trkpt>
      <trkpt lat="47.11966" lon="-1.53533">
        <ele>1.4</ele>
        <time>2015-04-21T16:26:52Z</time>
      </trkpt>
      <trkpt lat="47.11979" lon="-1.53511">
        <ele>0.8</ele>
        <time>2015-04-21T16:26:55Z</time>
      </trkpt>
      <trkpt lat="47.11993" lon="-1.53484">
        <ele>-0.1</ele>
        <time>2015-04-21T16:26:59Z</time>
      </trkpt>
      <trkpt lat="47.12006" lon="-1.53458">
        <ele>-1.3</ele>
        <time>2015-04-21T16:27:03Z</time>
      </trkpt>
      <trkpt lat="47.12021" lon="-1.53431">
        <ele>-2.2</ele>
        <time>2015-04-21T16:27:07Z</time>
      </trkpt>
      <trkpt lat="47.12033" lon="-1.5341">
        <ele>-2.9</ele>
        <time>2015-04-21T16:27:10Z</time>
      </trkpt>
      <trkpt lat="47.12045" lon="-1.53389">
        <ele>-3.4</ele>
        <time>2015-04-21T16:27:13Z</time>
      </trkpt>
      <trkpt lat="47.12056" lon="-1.53369">
        <ele>-3.5</ele>
        <time>2015-04-21T16:27:16Z</time>
      </trkpt>
      <trkpt lat="47.1207" lon="-1.53341">
        <ele>-3.8</ele>
        <time>2015-04-21T16:27:20Z</time>
      </trkpt>
      <trkpt lat="47.12084" lon="-1.53315">
        <ele>-4.7</ele>
        <time>2015-04-21T16:27:24Z</time>
      </trkpt>
      <trkpt lat="47.12098" lon="-1.5329">
        <ele>-5.4</ele>
        <time>2015-04-21T16:27:28Z</time>
      </trkpt>
      <trkpt lat="47.12112" lon="-1.53262">
        <ele>-5.9</ele>
        <time>2015-04-21T16:27:32Z</time>
      </trkpt>
      <trkpt lat="47.12126" lon="-1.53236">
        <ele>-6.1</ele>
        <time>2015-04-21T16:27:36Z</time>
      </trkpt>
      <trkpt lat="47.12138" lon="-1.5321">
        <ele>-6.3</ele>
        <time>2015-04-21T16:27:40Z</time>
      </trkpt>
      <trkpt lat="47.12152" lon="-1.53186">
        <ele>-6.8</ele>
        <time>2015-04-21T16:27:44Z</time>
      </trkpt>
      <trkpt lat="47.12166" lon="-1.53161">
        <ele>-7.4</ele>
        <time>2015-04-21T16:27:48Z</time>
      </trkpt>
      <trkpt lat="47.12179" lon="-1.53137">
        <ele>-7.3</ele>
        <time>2015-04-21T16:27:52Z</time>
      </trkpt>
      <trkpt lat="47.12191" lon="-1.53113">
        <ele>-7</ele>
        <time>2015-04-21T16:27:56Z</time>
      </trkpt>
      <trkpt lat="47.12204" lon="-1.5309">
        <ele>-5.8</ele>
        <time>2015-04-21T16:28:00Z</time>
      </trkpt>
      <trkpt lat="47.12217" lon="-1.53067">
        <ele>-5.3</ele>
        <time>2015-04-21T16:28:04Z</time>
      </trkpt>
      <trkpt lat="47.12229" lon="-1.53045">
        <ele>-4.6</ele>
        <time>2015-04-21T16:28:08Z</time>
      </trkpt>
      <trkpt lat="47.12242" lon="-1.53022">
        <ele>-4.5</ele>
        <time>2015-04-21T16:28:12Z</time>
      </trkpt>
      <trkpt lat="47.12253" lon="-1.52998">
        <ele>-4.5</ele>
        <time>2015-04-21T16:28:16Z</time>
      </trkpt>
      <trkpt lat="47.12266" lon="-1.52974">
        <ele>-4.4</ele>
        <time>2015-04-21T16:28:20Z</time>
      </trkpt>
      <trkpt lat="47.12278" lon="-1.5295">
        <ele>-4.6</ele>
        <time>2015-04-21T16:28:24Z</time>
      </trkpt>
      <trkpt lat="47.12292" lon="-1.52925">
        <ele>-4.5</ele>
        <time>2015-04-21T16:28:29Z</time>
      </trkpt>
      <trkpt lat="47.12304" lon="-1.52902">
        <ele>-4.1</ele>
        <time>2015-04-21T16:28:34Z</time>
      </trkpt>
      <trkpt lat="47.12318" lon="-1.52878">
        <ele>-4</ele>
        <time>2015-04-21T16:28:39Z</time>
      </trkpt>
      <trkpt lat="47.12334" lon="-1.52856">
        <ele>-4.3</ele>
        <time>2015-04-21T16:28:44Z</time>
      </trkpt>
      <trkpt lat="47.1235" lon="-1.52837">
        <ele>-4.5</ele>
        <time>2015-04-21T16:28:49Z</time>
      </trkpt>
      <trkpt lat="47.12368" lon="-1.52819">
        <ele>-4.9</ele>
        <time>2015-04-21T16:28:54Z</time>
      </trkpt>
      <trkpt lat="47.12385" lon="-1.52803">
        <ele>-5.1</ele>
        <time>2015-04-21T16:28:59Z</time>
      </trkpt>
      <trkpt lat="47.12401" lon="-1.52786">
        <ele>-5</ele>
        <time>2015-04-21T16:29:04Z</time>
      </trkpt>
      <trkpt lat="47.12416" lon="-1.52768">
        <ele>-3.3</ele>
        <time>2015-04-21T16:29:09Z</time>
      </trkpt>
      <trkpt lat="47.12432" lon="-1.52754">
        <ele>-1.7</ele>
        <time>2015-04-21T16:29:14Z</time>
      </trkpt>
      <trkpt lat="47.12449" lon="-1.52742">
        <ele>-1</ele>
        <time>2015-04-21T16:29:19Z</time>
      </trkpt>
      <trkpt lat="47.12469" lon="-1.52733">
        <ele>20.3</ele>
        <time>2015-04-21T16:29:24Z</time>
      </trkpt>
      <trkpt lat="47.12489" lon="-1.52727">
        <ele>1.1</ele>
        <time>2015-04-21T16:29:29Z</time>
      </trkpt>
      <trkpt lat="47.12505" lon="-1.5271">
        <ele>3.3</ele>
        <time>2015-04-21T16:29:35Z</time>
      </trkpt>
      <trkpt lat="47.12488" lon="-1.52697">
        <ele>5.1</ele>
        <time>2015-04-21T16:29:40Z</time>
      </trkpt>
      <trkpt lat="47.12466" lon="-1.52693">
        <ele>8.8</ele>
        <time>2015-04-21T16:29:45Z</time>
      </trkpt>
      <trkpt lat="47.12444" lon="-1.5269">
        <ele>11</ele>
        <time>2015-04-21T16:29:50Z</time>
      </trkpt>
      <trkpt lat="47.12424" lon="-1.52686">
        <ele>12.8</ele>
        <time>2015-04-21T16:29:54Z</time>
      </trkpt>
      <trkpt lat="47.12404" lon="-1.52682">
        <ele>13.8</ele>
        <time>2015-04-21T16:29:58Z</time>
      </trkpt>
      <trkpt lat="47.12381" lon="-1.52678">
        <ele>13.5</ele>
        <time>2015-04-21T16:30:02Z</time>
      </trkpt>
      <trkpt lat="47.12362" lon="-1.52675">
        <ele>13.4</ele>
        <time>2015-04-21T16:30:05Z</time>
      </trkpt>
      <trkpt lat="47.12341" lon="-1.5267">
        <ele>12.9</ele>
        <time>2015-04-21T16:30:08Z</time>
      </trkpt>
      <trkpt lat="47.1232" lon="-1.52663">
        <ele>12.4</ele>
        <time>2015-04-21T16:30:11Z</time>
      </trkpt>
      <trkpt lat="47.12297" lon="-1.52654">
        <ele>11.7</ele>
        <time>2015-04-21T16:30:14Z</time>
      </trkpt>
      <trkpt lat="47.12275" lon="-1.52641">
        <ele>11.4</ele>
        <time>2015-04-21T16:30:17Z</time>
      </trkpt>
      <trkpt lat="47.12254" lon="-1.52629">
        <ele>11.2</ele>
        <time>2015-04-21T16:30:20Z</time>
      </trkpt>
      <trkpt lat="47.12233" lon="-1.52618">
        <ele>10.5</ele>
        <time>2015-04-21T16:30:23Z</time>
      </trkpt>
      <trkpt lat="47.12213" lon="-1.52609">
        <ele>9.6</ele>
        <time>2015-04-21T16:30:26Z</time>
      </trkpt>
      <trkpt lat="47.12193" lon="-1.52602">
        <ele>8.8</ele>
        <time>2015-04-21T16:30:29Z</time>
      </trkpt>
      <trkpt lat="47.12173" lon="-1.52599">
        <ele>8.1</ele>
        <time>2015-04-21T16:30:32Z</time>
      </trkpt>
      <trkpt lat="47.12153" lon="-1.52598">
        <ele>7.7</ele>
        <time>2015-04-21T16:30:35Z</time>
      </trkpt>
      <trkpt lat="47.12134" lon="-1.52598">
        <ele>6.9</ele>
        <time>2015-04-21T16:30:38Z</time>
      </trkpt>
      <trkpt lat="47.12115" lon="-1.52598">
        <ele>6.1</ele>
        <time>2015-04-21T16:30:41Z</time>
      </trkpt>
      <trkpt lat="47.12097" lon="-1.52598">
        <ele>5.6</ele>
        <time>2015-04-21T16:30:44Z</time>
      </trkpt>
      <trkpt lat="47.12076" lon="-1.52598">
        <ele>5.4</ele>
        <time>2015-04-21T16:30:47Z</time>
      </trkpt>
      <trkpt lat="47.12056" lon="-1.52597">
        <ele>4.3</ele>
        <time>2015-04-21T16:30:50Z</time>
      </trkpt>
      <trkpt lat="47.12036" lon="-1.52597">
        <ele>4.7</ele>
        <time>2015-04-21T16:30:53Z</time>
      </trkpt>
      <trkpt lat="47.12017" lon="-1.52597">
        <ele>4.7</ele>
        <time>2015-04-21T16:30:56Z</time>
      </trkpt>
      <trkpt lat="47.11998" lon="-1.52592">
        <ele>4.8</ele>
        <time>2015-04-21T16:30:59Z</time>
      </trkpt>
      <trkpt lat="47.11978" lon="-1.52584">
        <ele>4</ele>
        <time>2015-04-21T16:31:02Z</time>
      </trkpt>
      <trkpt lat="47.11959" lon="-1.52576">
        <ele>3.1</ele>
        <time>2015-04-21T16:31:05Z</time>
      </trkpt>
      <trkpt lat="47.11939" lon="-1.52564">
        <ele>2.3</ele>
        <time>2015-04-21T16:31:08Z</time>
      </trkpt>
      <trkpt lat="47.1192" lon="-1.52549">
        <ele>1.7</ele>
        <time>2015-04-21T16:31:11Z</time>
      </trkpt>
      <trkpt lat="47.11902" lon="-1.5253">
        <ele>1.3</ele>
        <time>2015-04-21T16:31:14Z</time>
      </trkpt>
      <trkpt lat="47.11886" lon="-1.5251">
        <ele>1.1</ele>
        <time>2015-04-21T16:31:17Z</time>
      </trkpt>
      <trkpt lat="47.11867" lon="-1.52486">
        <ele>0.4</ele>
        <time>2015-04-21T16:31:21Z</time>
      </trkpt>
      <trkpt lat="47.11851" lon="-1.52465">
        <ele>-1.6</ele>
        <time>2015-04-21T16:31:25Z</time>
      </trkpt>
      <trkpt lat="47.11835" lon="-1.52446">
        <ele>-1.4</ele>
        <time>2015-04-21T16:31:29Z</time>
      </trkpt>
      <trkpt lat="47.1182" lon="-1.52427">
        <ele>-1.5</ele>
        <time>2015-04-21T16:31:33Z</time>
      </trkpt>
      <trkpt lat="47.11806" lon="-1.52409">
        <ele>-1.7</ele>
        <time>2015-04-21T16:31:37Z</time>
      </trkpt>
      <trkpt lat="47.11791" lon="-1.52386">
        <ele>-1.2</ele>
        <time>2015-04-21T16:31:42Z</time>
      </trkpt>
      <trkpt lat="47.11777" lon="-1.52369">
        <ele>-1.6</ele>
        <time>2015-04-21T16:31:46Z</time>
      </trkpt>
      <trkpt lat="47.11761" lon="-1.52347">
        <ele>-0.5</ele>
        <time>2015-04-21T16:31:51Z</time>
      </trkpt>
      <trkpt lat="47.11744" lon="-1.52328">
        <ele>-1.3</ele>
        <time>2015-04-21T16:31:55Z</time>
      </trkpt>
      <trkpt lat="47.11728" lon="-1.5231">
        <ele>-2.1</ele>
        <time>2015-04-21T16:31:59Z</time>
      </trkpt>
      <trkpt lat="47.11708" lon="-1.52293">
        <ele>-2.2</ele>
        <time>2015-04-21T16:32:04Z</time>
      </trkpt>
      <trkpt lat="47.11687" lon="-1.52282">
        <ele>0.3</ele>
        <time>2015-04-21T16:32:08Z</time>
      </trkpt>
      <trkpt lat="47.11666" lon="-1.5227">
        <ele>-0.3</ele>
        <time>2015-04-21T16:32:12Z</time>
      </trkpt>
      <trkpt lat="47.11649" lon="-1.5226">
        <ele>-0.1</ele>
        <time>2015-04-21T16:32:15Z</time>
      </trkpt>
      <trkpt lat="47.1163" lon="-1.52247">
        <ele>-0.1</ele>
        <time>2015-04-21T16:32:18Z</time>
      </trkpt>
      <trkpt lat="47.11612" lon="-1.52235">
        <ele>0.8</ele>
        <time>2015-04-21T16:32:21Z</time>
      </trkpt>
      <trkpt lat="47.11596" lon="-1.52221">
        <ele>1.3</ele>
        <time>2015-04-21T16:32:24Z</time>
      </trkpt>
      <trkpt lat="47.11579" lon="-1.52203">
        <ele>1.1</ele>
        <time>2015-04-21T16:32:27Z</time>
      </trkpt>
      <trkpt lat="47.11565" lon="-1.52182">
        <ele>1.8</ele>
        <time>2015-04-21T16:32:30Z</time>
      </trkpt>
      <trkpt lat="47.11552" lon="-1.5216">
        <ele>1.3</ele>
        <time>2015-04-21T16:32:33Z</time>
      </trkpt>
      <trkpt lat="47.11539" lon="-1.52138">
        <ele>0.5</ele>
        <time>2015-04-21T16:32:36Z</time>
      </trkpt>
      <trkpt lat="47.11526" lon="-1.52116">
        <ele>-0.9</ele>
        <time>2015-04-21T16:32:39Z</time>
      </trkpt>
      <trkpt lat="47.11515" lon="-1.52094">
        <ele>-1.6</ele>
        <time>2015-04-21T16:32:42Z</time>
      </trkpt>
      <trkpt lat="47.11503" lon="-1.52072">
        <ele>-2.9</ele>
        <time>2015-04-21T16:32:45Z</time>
      </trkpt>
      <trkpt lat="47.1149" lon="-1.5205">
        <ele>-1.6</ele>
        <time>2015-04-21T16:32:48Z</time>
      </trkpt>
      <trkpt lat="47.11478" lon="-1.52029">
        <ele>-2.3</ele>
        <time>2015-04-21T16:32:51Z</time>
      </trkpt>
      <trkpt lat="47.11467" lon="-1.52008">
        <ele>-2.6</ele>
        <time>2015-04-21T16:32:54Z</time>
      </trkpt>
      <trkpt lat="47.11456" lon="-1.51985">
        <ele>-2.8</ele>
        <time>2015-04-21T16:32:57Z</time>
      </trkpt>
      <trkpt lat="47.11444" lon="-1.51964">
        <ele>-2.9</ele>
        <time>2015-04-21T16:33:00Z</time>
      </trkpt>
      <trkpt lat="47.11432" lon="-1.51942">
        <ele>-3.4</ele>
        <time>2015-04-21T16:33:03Z</time>
      </trkpt>
      <trkpt lat="47.1142" lon="-1.51921">
        <ele>-3.2</ele>
        <time>2015-04-21T16:33:06Z</time>
      </trkpt>
      <trkpt lat="47.11405" lon="-1.51895">
        <ele>-3.9</ele>
        <time>2015-04-21T16:33:10Z</time>
      </trkpt>
      <trkpt lat="47.11391" lon="-1.5187">
        <ele>-5.7</ele>
        <time>2015-04-21T16:33:14Z</time>
      </trkpt>
      <trkpt lat="47.11377" lon="-1.51844">
        <ele>-7.9</ele>
        <time>2015-04-21T16:33:18Z</time>
      </trkpt>
      <trkpt lat="47.11365" lon="-1.51824">
        <ele>-5</ele>
        <time>2015-04-21T16:33:21Z</time>
      </trkpt>
      <trkpt lat="47.11351" lon="-1.51805">
        <ele>-4</ele>
        <time>2015-04-21T16:33:24Z</time>
      </trkpt>
      <trkpt lat="47.11333" lon="-1.51782">
        <ele>-4.2</ele>
        <time>2015-04-21T16:33:28Z</time>
      </trkpt>
      <trkpt lat="47.11313" lon="-1.51766">
        <ele>-4.1</ele>
        <time>2015-04-21T16:33:32Z</time>
      </trkpt>
      <trkpt lat="47.11294" lon="-1.5175">
        <ele>-4</ele>
        <time>2015-04-21T16:33:36Z</time>
      </trkpt>
      <trkpt lat="47.11274" lon="-1.51735">
        <ele>-4</ele>
        <time>2015-04-21T16:33:40Z</time>
      </trkpt>
      <trkpt lat="47.11256" lon="-1.51722">
        <ele>-3.7</ele>
        <time>2015-04-21T16:33:44Z</time>
      </trkpt>
      <trkpt lat="47.11238" lon="-1.51708">
        <ele>-4.2</ele>
        <time>2015-04-21T16:33:48Z</time>
      </trkpt>
      <trkpt lat="47.11222" lon="-1.51694">
        <ele>-3.5</ele>
        <time>2015-04-21T16:33:52Z</time>
      </trkpt>
      <trkpt lat="47.11203" lon="-1.51676">
        <ele>-3.2</ele>
        <time>2015-04-21T16:33:57Z</time>
      </trkpt>
      <trkpt lat="47.11187" lon="-1.5166">
        <ele>-3.1</ele>
        <time>2015-04-21T16:34:01Z</time>
      </trkpt>
      <trkpt lat="47.11172" lon="-1.51639">
        <ele>-1.7</ele>
        <time>2015-04-21T16:34:06Z</time>
      </trkpt>
      <trkpt lat="47.11159" lon="-1.51619">
        <ele>-1.4</ele>
        <time>2015-04-21T16:34:10Z</time>
      </trkpt>
      <trkpt lat="47.11144" lon="-1.51595">
        <ele>-1</ele>
        <time>2015-04-21T16:34:15Z</time>
      </trkpt>
      <trkpt lat="47.11132" lon="-1.51572">
        <ele>-0.5</ele>
        <time>2015-04-21T16:34:20Z</time>
      </trkpt>
      <trkpt lat="47.11118" lon="-1.5155">
        <ele>2.1</ele>
        <time>2015-04-21T16:34:25Z</time>
      </trkpt>
      <trkpt lat="47.11104" lon="-1.51528">
        <ele>2.5</ele>
        <time>2015-04-21T16:34:30Z</time>
      </trkpt>
      <trkpt lat="47.11088" lon="-1.51505">
        <ele>2.2</ele>
        <time>2015-04-21T16:34:35Z</time>
      </trkpt>
      <trkpt lat="47.11074" lon="-1.51489">
        <ele>2.5</ele>
        <time>2015-04-21T16:34:39Z</time>
      </trkpt>
      <trkpt lat="47.11058" lon="-1.51473">
        <ele>2.9</ele>
        <time>2015-04-21T16:34:43Z</time>
      </trkpt>
      <trkpt lat="47.11042" lon="-1.51459">
        <ele>3.8</ele>
        <time>2015-04-21T16:34:47Z</time>
      </trkpt>
      <trkpt lat="47.11027" lon="-1.51444">
        <ele>3.5</ele>
        <time>2015-04-21T16:34:51Z</time>
      </trkpt>
      <trkpt lat="47.11011" lon="-1.51428">
        <ele>3.7</ele>
        <time>2015-04-21T16:34:55Z</time>
      </trkpt>
      <trkpt lat="47.10996" lon="-1.51413">
        <ele>5</ele>
        <time>2015-04-21T16:34:59Z</time>
      </trkpt>
      <trkpt lat="47.10979" lon="-1.51398">
        <ele>5.6</ele>
        <time>2015-04-21T16:35:03Z</time>
      </trkpt>
      <trkpt lat="47.10964" lon="-1.51382">
        <ele>6.4</ele>
        <time>2015-04-21T16:35:07Z</time>
      </trkpt>
      <trkpt lat="47.10948" lon="-1.51367">
        <ele>7.4</ele>
        <time>2015-04-21T16:35:11Z</time>
      </trkpt>
      <trkpt lat="47.10933" lon="-1.5135">
        <ele>10</ele>
        <time>2015-04-21T16:35:15Z</time>
      </trkpt>
      <trkpt lat="47.10917" lon="-1.51334">
        <ele>12.2</ele>
        <time>2015-04-21T16:35:19Z</time>
      </trkpt>
      <trkpt lat="47.109" lon="-1.51318">
        <ele>13.3</ele>
        <time>2015-04-21T16:35:23Z</time>
      </trkpt>
      <trkpt lat="47.10882" lon="-1.51303">
        <ele>11.8</ele>
        <time>2015-04-21T16:35:27Z</time>
      </trkpt>
      <trkpt lat="47.10865" lon="-1.51287">
        <ele>11.8</ele>
        <time>2015-04-21T16:35:31Z</time>
      </trkpt>
      <trkpt lat="47.10847" lon="-1.51269">
        <ele>10.8</ele>
        <time>2015-04-21T16:35:35Z</time>
      </trkpt>
      <trkpt lat="47.1083" lon="-1.51251">
        <ele>11.6</ele>
        <time>2015-04-21T16:35:39Z</time>
      </trkpt>
      <trkpt lat="47.10813" lon="-1.51234">
        <ele>10.9</ele>
        <time>2015-04-21T16:35:43Z</time>
      </trkpt>
      <trkpt lat="47.10796" lon="-1.51218">
        <ele>11.3</ele>
        <time>2015-04-21T16:35:47Z</time>
      </trkpt>
      <trkpt lat="47.10779" lon="-1.51202">
        <ele>11.1</ele>
        <time>2015-04-21T16:35:51Z</time>
      </trkpt>
      <trkpt lat="47.10762" lon="-1.51186">
        <ele>10</ele>
        <time>2015-04-21T16:35:55Z</time>
      </trkpt>
      <trkpt lat="47.10744" lon="-1.51167">
        <ele>9.8</ele>
        <time>2015-04-21T16:35:59Z</time>
      </trkpt>
      <trkpt lat="47.10725" lon="-1.5115">
        <ele>9.7</ele>
        <time>2015-04-21T16:36:03Z</time>
      </trkpt>
      <trkpt lat="47.1071" lon="-1.51136">
        <ele>9.5</ele>
        <time>2015-04-21T16:36:06Z</time>
      </trkpt>
      <trkpt lat="47.10691" lon="-1.51116">
        <ele>9.2</ele>
        <time>2015-04-21T16:36:10Z</time>
      </trkpt>
      <trkpt lat="47.10676" lon="-1.51089">
        <ele>6.8</ele>
        <time>2015-04-21T16:36:14Z</time>
      </trkpt>
      <trkpt lat="47.10666" lon="-1.51058">
        <ele>6</ele>
        <time>2015-04-21T16:36:18Z</time>
      </trkpt>
      <trkpt lat="47.10658" lon="-1.51033">
        <ele>5.2</ele>
        <time>2015-04-21T16:36:21Z</time>
      </trkpt>
      <trkpt lat="47.10648" lon="-1.51008">
        <ele>4.4</ele>
        <time>2015-04-21T16:36:24Z</time>
      </trkpt>
      <trkpt lat="47.10634" lon="-1.50986">
        <ele>3.9</ele>
        <time>2015-04-21T16:36:27Z</time>
      </trkpt>
      <trkpt lat="47.10618" lon="-1.50967">
        <ele>3.3</ele>
        <time>2015-04-21T16:36:30Z</time>
      </trkpt>
      <trkpt lat="47.10602" lon="-1.50948">
        <ele>1.8</ele>
        <time>2015-04-21T16:36:33Z</time>
      </trkpt>
      <trkpt lat="47.10586" lon="-1.50929">
        <ele>0.1</ele>
        <time>2015-04-21T16:36:36Z</time>
      </trkpt>
      <trkpt lat="47.10569" lon="-1.5091">
        <ele>-0.7</ele>
        <time>2015-04-21T16:36:39Z</time>
      </trkpt>
      <trkpt lat="47.10552" lon="-1.50892">
        <ele>-1.1</ele>
        <time>2015-04-21T16:36:42Z</time>
      </trkpt>
      <trkpt lat="47.10534" lon="-1.50874">
        <ele>-0.4</ele>
        <time>2015-04-21T16:36:45Z</time>
      </trkpt>
      <trkpt lat="47.1052" lon="-1.50853">
        <ele>-0.4</ele>
        <time>2015-04-21T16:36:48Z</time>
      </trkpt>
      <trkpt lat="47.10508" lon="-1.50831">
        <ele>-0.7</ele>
        <time>2015-04-21T16:36:51Z</time>
      </trkpt>
      <trkpt lat="47.10495" lon="-1.50808">
        <ele>-1.2</ele>
        <time>2015-04-21T16:36:54Z</time>
      </trkpt>
      <trkpt lat="47.10482" lon="-1.50784">
        <ele>-1.5</ele>
        <time>2015-04-21T16:36:57Z</time>
      </trkpt>
      <trkpt lat="47.10471" lon="-1.50761">
        <ele>-1.7</ele>
        <time>2015-04-21T16:37:00Z</time>
      </trkpt>
      <trkpt lat="47.10462" lon="-1.50734">
        <ele>-1.7</ele>
        <time>2015-04-21T16:37:03Z</time>
      </trkpt>
      <trkpt lat="47.10455" lon="-1.50707">
        <ele>-2.1</ele>
        <time>2015-04-21T16:37:06Z</time>
      </trkpt>
      <trkpt lat="47.10449" lon="-1.50681">
        <ele>-2.4</ele>
        <time>2015-04-21T16:37:09Z</time>
      </trkpt>
      <trkpt lat="47.10441" lon="-1.50657">
        <ele>-2.7</ele>
        <time>2015-04-21T16:37:12Z</time>
      </trkpt>
      <trkpt lat="47.10428" lon="-1.50637">
        <ele>-3.4</ele>
        <time>2015-04-21T16:37:15Z</time>
      </trkpt>
      <trkpt lat="47.10412" lon="-1.50622">
        <ele>-2.6</ele>
        <time>2015-04-21T16:37:18Z</time>
      </trkpt>
      <trkpt lat="47.10392" lon="-1.50607">
        <ele>-2.3</ele>
        <time>2015-04-21T16:37:22Z</time>
      </trkpt>
      <trkpt lat="47.10374" lon="-1.50588">
        <ele>-2.3</ele>
        <time>2015-04-21T16:37:26Z</time>
      </trkpt>
      <trkpt lat="47.10359" lon="-1.50565">
        <ele>-2.8</ele>
        <time>2015-04-21T16:37:30Z</time>
      </trkpt>
      <trkpt lat="47.10345" lon="-1.50541">
        <ele>-2.7</ele>
        <time>2015-04-21T16:37:34Z</time>
      </trkpt>
      <trkpt lat="47.10331" lon="-1.50516">
        <ele>-3.2</ele>
        <time>2015-04-21T16:37:38Z</time>
      </trkpt>
      <trkpt lat="47.10315" lon="-1.50493">
        <ele>-3</ele>
        <time>2015-04-21T16:37:42Z</time>
      </trkpt>
      <trkpt lat="47.10302" lon="-1.50471">
        <ele>-1.5</ele>
        <time>2015-04-21T16:37:46Z</time>
      </trkpt>
      <trkpt lat="47.10289" lon="-1.50448">
        <ele>-1.8</ele>
        <time>2015-04-21T16:37:50Z</time>
      </trkpt>
      <trkpt lat="47.10276" lon="-1.50425">
        <ele>-1.7</ele>
        <time>2015-04-21T16:37:54Z</time>
      </trkpt>
      <trkpt lat="47.10263" lon="-1.50402">
        <ele>-1.5</ele>
        <time>2015-04-21T16:37:58Z</time>
      </trkpt>
      <trkpt lat="47.10249" lon="-1.50379">
        <ele>-0.9</ele>
        <time>2015-04-21T16:38:02Z</time>
      </trkpt>
      <trkpt lat="47.10235" lon="-1.50357">
        <ele>-0.7</ele>
        <time>2015-04-21T16:38:06Z</time>
      </trkpt>
      <trkpt lat="47.10223" lon="-1.50337">
        <ele>-0.6</ele>
        <time>2015-04-21T16:38:10Z</time>
      </trkpt>
      <trkpt lat="47.10206" lon="-1.50315">
        <ele>1</ele>
        <time>2015-04-21T16:38:15Z</time>
      </trkpt>
      <trkpt lat="47.10191" lon="-1.503">
        <ele>2.7</ele>
        <time>2015-04-21T16:38:19Z</time>
      </trkpt>
      <trkpt lat="47.10174" lon="-1.50288">
        <ele>4.8</ele>
        <time>2015-04-21T16:38:23Z</time>
      </trkpt>
      <trkpt lat="47.10154" lon="-1.50273">
        <ele>6.7</ele>
        <time>2015-04-21T16:38:28Z</time>
      </trkpt>
      <trkpt lat="47.10135" lon="-1.50258">
        <ele>8.2</ele>
        <time>2015-04-21T16:38:33Z</time>
      </trkpt>
      <trkpt lat="47.10118" lon="-1.50245">
        <ele>10.7</ele>
        <time>2015-04-21T16:38:38Z</time>
      </trkpt>
      <trkpt lat="47.10102" lon="-1.50231">
        <ele>13.5</ele>
        <time>2015-04-21T16:38:42Z</time>
      </trkpt>
      <trkpt lat="47.10086" lon="-1.50209">
        <ele>14</ele>
        <time>2015-04-21T16:38:47Z</time>
      </trkpt>
      <trkpt lat="47.10079" lon="-1.5018">
        <ele>14.8</ele>
        <time>2015-04-21T16:38:52Z</time>
      </trkpt>
      <trkpt lat="47.10077" lon="-1.50149">
        <ele>13.9</ele>
        <time>2015-04-21T16:38:57Z</time>
      </trkpt>
      <trkpt lat="47.10077" lon="-1.50119">
        <ele>12.9</ele>
        <time>2015-04-21T16:39:02Z</time>
      </trkpt>
      <trkpt lat="47.10076" lon="-1.5009">
        <ele>11.4</ele>
        <time>2015-04-21T16:39:07Z</time>
      </trkpt>
      <trkpt lat="47.10075" lon="-1.50062">
        <ele>11.1</ele>
        <time>2015-04-21T16:39:12Z</time>
      </trkpt>
      <trkpt lat="47.10074" lon="-1.50032">
        <ele>10.3</ele>
        <time>2015-04-21T16:39:17Z</time>
      </trkpt>
      <trkpt lat="47.10072" lon="-1.5">
        <ele>9.6</ele>
        <time>2015-04-21T16:39:22Z</time>
      </trkpt>
      <trkpt lat="47.10071" lon="-1.49968">
        <ele>9.4</ele>
        <time>2015-04-21T16:39:27Z</time>
      </trkpt>
      <trkpt lat="47.1007" lon="-1.49941">
        <ele>9.9</ele>
        <time>2015-04-21T16:39:31Z</time>
      </trkpt>
      <trkpt lat="47.10068" lon="-1.49908">
        <ele>9.6</ele>
        <time>2015-04-21T16:39:36Z</time>
      </trkpt>
      <trkpt lat="47.10062" lon="-1.49878">
        <ele>8.2</ele>
        <time>2015-04-21T16:39:40Z</time>
      </trkpt>
      <trkpt lat="47.10053" lon="-1.4985">
        <ele>6.1</ele>
        <time>2015-04-21T16:39:44Z</time>
      </trkpt>
      <trkpt lat="47.10042" lon="-1.49824">
        <ele>4.3</ele>
        <time>2015-04-21T16:39:48Z</time>
      </trkpt>
      <trkpt lat="47.10031" lon="-1.49798">
        <ele>5.5</ele>
        <time>2015-04-21T16:39:52Z</time>
      </trkpt>
      <trkpt lat="47.10018" lon="-1.49773">
        <ele>6.7</ele>
        <time>2015-04-21T16:39:56Z</time>
      </trkpt>
      <trkpt lat="47.10007" lon="-1.49747">
        <ele>7.2</ele>
        <time>2015-04-21T16:40:00Z</time>
      </trkpt>
      <trkpt lat="47.09995" lon="-1.49719">
        <ele>7.8</ele>
        <time>2015-04-21T16:40:04Z</time>
      </trkpt>
      <trkpt lat="47.09982" lon="-1.49691">
        <ele>7.5</ele>
        <time>2015-04-21T16:40:08Z</time>
      </trkpt>
      <trkpt lat="47.09969" lon="-1.49665">
        <ele>7.7</ele>
        <time>2015-04-21T16:40:12Z</time>
      </trkpt>
      <trkpt lat="47.09958" lon="-1.49637">
        <ele>6.1</ele>
        <time>2015-04-21T16:40:16Z</time>
      </trkpt>
      <trkpt lat="47.09946" lon="-1.49612">
        <ele>6.7</ele>
        <time>2015-04-21T16:40:20Z</time>
      </trkpt>
      <trkpt lat="47.09935" lon="-1.49585">
        <ele>6.9</ele>
        <time>2015-04-21T16:40:24Z</time>
      </trkpt>
      <trkpt lat="47.09925" lon="-1.49558">
        <ele>5.3</ele>
        <time>2015-04-21T16:40:28Z</time>
      </trkpt>
      <trkpt lat="47.09914" lon="-1.49533">
        <ele>6.6</ele>
        <time>2015-04-21T16:40:32Z</time>
      </trkpt>
      <trkpt lat="47.09901" lon="-1.49508">
        <ele>7.2</ele>
        <time>2015-04-21T16:40:36Z</time>
      </trkpt>
      <trkpt lat="47.09889" lon="-1.49481">
        <ele>7.1</ele>
        <time>2015-04-21T16:40:40Z</time>
      </trkpt>
      <trkpt lat="47.09878" lon="-1.49453">
        <ele>7.5</ele>
        <time>2015-04-21T16:40:44Z</time>
      </trkpt>
      <trkpt lat="47.0987" lon="-1.49429">
        <ele>9.1</ele>
        <time>2015-04-21T16:40:48Z</time>
      </trkpt>
      <trkpt lat="47.09867" lon="-1.49401">
        <ele>8.9</ele>
        <time>2015-04-21T16:40:52Z</time>
      </trkpt>
      <trkpt lat="47.09864" lon="-1.49372">
        <ele>9.7</ele>
        <time>2015-04-21T16:40:56Z</time>
      </trkpt>
      <trkpt lat="47.09862" lon="-1.49344">
        <ele>10.8</ele>
        <time>2015-04-21T16:41:00Z</time>
      </trkpt>
      <trkpt lat="47.0986" lon="-1.49312">
        <ele>10.6</ele>
        <time>2015-04-21T16:41:05Z</time>
      </trkpt>
      <trkpt lat="47.09859" lon="-1.49285">
        <ele>10.6</ele>
        <time>2015-04-21T16:41:09Z</time>
      </trkpt>
      <trkpt lat="47.09858" lon="-1.49256">
        <ele>10.7</ele>
        <time>2015-04-21T16:41:13Z</time>
      </trkpt>
      <trkpt lat="47.09856" lon="-1.49225">
        <ele>10.7</ele>
        <time>2015-04-21T16:41:17Z</time>
      </trkpt>
      <trkpt lat="47.09855" lon="-1.49196">
        <ele>10.7</ele>
        <time>2015-04-21T16:41:21Z</time>
      </trkpt>
      <trkpt lat="47.09853" lon="-1.49165">
        <ele>11.1</ele>
        <time>2015-04-21T16:41:25Z</time>
      </trkpt>
      <trkpt lat="47.09852" lon="-1.49134">
        <ele>11.8</ele>
        <time>2015-04-21T16:41:29Z</time>
      </trkpt>
      <trkpt lat="47.09854" lon="-1.49107">
        <ele>12.6</ele>
        <time>2015-04-21T16:41:33Z</time>
      </trkpt>
      <trkpt lat="47.09872" lon="-1.49107">
        <ele>14.4</ele>
        <time>2015-04-21T16:41:37Z</time>
      </trkpt>
      <trkpt lat="47.09893" lon="-1.49096">
        <ele>13.8</ele>
        <time>2015-04-21T16:41:41Z</time>
      </trkpt>
      <trkpt lat="47.09914" lon="-1.49092">
        <ele>14.3</ele>
        <time>2015-04-21T16:41:45Z</time>
      </trkpt>
      <trkpt lat="47.09934" lon="-1.49086">
        <ele>14.2</ele>
        <time>2015-04-21T16:41:49Z</time>
      </trkpt>
      <trkpt lat="47.09952" lon="-1.49075">
        <ele>14.6</ele>
        <time>2015-04-21T16:41:53Z</time>
      </trkpt>
      <trkpt lat="47.09969" lon="-1.49059">
        <ele>14.8</ele>
        <time>2015-04-21T16:41:57Z</time>
      </trkpt>
      <trkpt lat="47.09987" lon="-1.49044">
        <ele>14.2</ele>
        <time>2015-04-21T16:42:01Z</time>
      </trkpt>
      <trkpt lat="47.10006" lon="-1.49035">
        <ele>12.9</ele>
        <time>2015-04-21T16:42:05Z</time>
      </trkpt>
      <trkpt lat="47.10026" lon="-1.49034">
        <ele>13.5</ele>
        <time>2015-04-21T16:42:09Z</time>
      </trkpt>
      <trkpt lat="47.10045" lon="-1.49035">
        <ele>12.9</ele>
        <time>2015-04-21T16:42:13Z</time>
      </trkpt>
      <trkpt lat="47.10065" lon="-1.49036">
        <ele>13.1</ele>
        <time>2015-04-21T16:42:17Z</time>
      </trkpt>
      <trkpt lat="47.10085" lon="-1.49036">
        <ele>13.1</ele>
        <time>2015-04-21T16:42:21Z</time>
      </trkpt>
      <trkpt lat="47.10104" lon="-1.49032">
        <ele>14.8</ele>
        <time>2015-04-21T16:42:25Z</time>
      </trkpt>
      <trkpt lat="47.10123" lon="-1.49027">
        <ele>16.2</ele>
        <time>2015-04-21T16:42:29Z</time>
      </trkpt>
      <trkpt lat="47.10141" lon="-1.49018">
        <ele>14.9</ele>
        <time>2015-04-21T16:42:33Z</time>
      </trkpt>
      <trkpt lat="47.10159" lon="-1.49007">
        <ele>14.2</ele>
        <time>2015-04-21T16:42:37Z</time>
      </trkpt>
      <trkpt lat="47.10178" lon="-1.49">
        <ele>16.1</ele>
        <time>2015-04-21T16:42:41Z</time>
      </trkpt>
      <trkpt lat="47.10198" lon="-1.48995">
        <ele>16.2</ele>
        <time>2015-04-21T16:42:45Z</time>
      </trkpt>
      <trkpt lat="47.10218" lon="-1.48993">
        <ele>16.9</ele>
        <time>2015-04-21T16:42:49Z</time>
      </trkpt>
      <trkpt lat="47.10238" lon="-1.48994">
        <ele>17.9</ele>
        <time>2015-04-21T16:42:53Z</time>
      </trkpt>
      <trkpt lat="47.10256" lon="-1.48996">
        <ele>19.7</ele>
        <time>2015-04-21T16:42:57Z</time>
      </trkpt>
      <trkpt lat="47.10275" lon="-1.48998">
        <ele>20.7</ele>
        <time>2015-04-21T16:43:01Z</time>
      </trkpt>
      <trkpt lat="47.10294" lon="-1.48999">
        <ele>20.8</ele>
        <time>2015-04-21T16:43:05Z</time>
      </trkpt>
      <trkpt lat="47.10313" lon="-1.49">
        <ele>21.1</ele>
        <time>2015-04-21T16:43:09Z</time>
      </trkpt>
      <trkpt lat="47.10333" lon="-1.49002">
        <ele>20.5</ele>
        <time>2015-04-21T16:43:13Z</time>
      </trkpt>
      <trkpt lat="47.10353" lon="-1.49004">
        <ele>20.5</ele>
        <time>2015-04-21T16:43:17Z</time>
      </trkpt>
      <trkpt lat="47.10374" lon="-1.49005">
        <ele>19.5</ele>
        <time>2015-04-21T16:43:21Z</time>
      </trkpt>
      <trkpt lat="47.10395" lon="-1.49006">
        <ele>18.5</ele>
        <time>2015-04-21T16:43:25Z</time>
      </trkpt>
      <trkpt lat="47.10417" lon="-1.49008">
        <ele>18.5</ele>
        <time>2015-04-21T16:43:29Z</time>
      </trkpt>
      <trkpt lat="47.10439" lon="-1.49008">
        <ele>18</ele>
        <time>2015-04-21T16:43:33Z</time>
      </trkpt>
      <trkpt lat="47.10461" lon="-1.49006">
        <ele>15.1</ele>
        <time>2015-04-21T16:43:37Z</time>
      </trkpt>
      <trkpt lat="47.10483" lon="-1.49">
        <ele>15.4</ele>
        <time>2015-04-21T16:43:41Z</time>
      </trkpt>
      <trkpt lat="47.10506" lon="-1.48993">
        <ele>14.6</ele>
        <time>2015-04-21T16:43:45Z</time>
      </trkpt>
      <trkpt lat="47.10524" lon="-1.48991">
        <ele>13.6</ele>
        <time>2015-04-21T16:43:48Z</time>
      </trkpt>
      <trkpt lat="47.10542" lon="-1.48992">
        <ele>13.9</ele>
        <time>2015-04-21T16:43:51Z</time>
      </trkpt>
      <trkpt lat="47.10564" lon="-1.48994">
        <ele>14.1</ele>
        <time>2015-04-21T16:43:55Z</time>
      </trkpt>
      <trkpt lat="47.10587" lon="-1.48996">
        <ele>14.1</ele>
        <time>2015-04-21T16:43:59Z</time>
      </trkpt>
      <trkpt lat="47.10609" lon="-1.48997">
        <ele>14.8</ele>
        <time>2015-04-21T16:44:03Z</time>
      </trkpt>
      <trkpt lat="47.10632" lon="-1.48994">
        <ele>13.7</ele>
        <time>2015-04-21T16:44:07Z</time>
      </trkpt>
      <trkpt lat="47.10651" lon="-1.48986">
        <ele>13.5</ele>
        <time>2015-04-21T16:44:11Z</time>
      </trkpt>
      <trkpt lat="47.10672" lon="-1.48976">
        <ele>13.1</ele>
        <time>2015-04-21T16:44:15Z</time>
      </trkpt>
      <trkpt lat="47.10692" lon="-1.48964">
        <ele>12.7</ele>
        <time>2015-04-21T16:44:19Z</time>
      </trkpt>
      <trkpt lat="47.10712" lon="-1.48954">
        <ele>12.6</ele>
        <time>2015-04-21T16:44:23Z</time>
      </trkpt>
      <trkpt lat="47.10732" lon="-1.48943">
        <ele>13</ele>
        <time>2015-04-21T16:44:27Z</time>
      </trkpt>
      <trkpt lat="47.10751" lon="-1.48935">
        <ele>13.4</ele>
        <time>2015-04-21T16:44:31Z</time>
      </trkpt>
      <trkpt lat="47.10771" lon="-1.48927">
        <ele>13.2</ele>
        <time>2015-04-21T16:44:35Z</time>
      </trkpt>
      <trkpt lat="47.1079" lon="-1.4892">
        <ele>13.3</ele>
        <time>2015-04-21T16:44:39Z</time>
      </trkpt>
      <trkpt lat="47.1081" lon="-1.48913">
        <ele>13.1</ele>
        <time>2015-04-21T16:44:43Z</time>
      </trkpt>
      <trkpt lat="47.10829" lon="-1.48904">
        <ele>12.9</ele>
        <time>2015-04-21T16:44:47Z</time>
      </trkpt>
      <trkpt lat="47.10848" lon="-1.48898">
        <ele>12.8</ele>
        <time>2015-04-21T16:44:51Z</time>
      </trkpt>
      <trkpt lat="47.10867" lon="-1.4889">
        <ele>13.5</ele>
        <time>2015-04-21T16:44:55Z</time>
      </trkpt>
      <trkpt lat="47.10886" lon="-1.48883">
        <ele>15.4</ele>
        <time>2015-04-21T16:44:59Z</time>
      </trkpt>
      <trkpt lat="47.10907" lon="-1.48876">
        <ele>17.4</ele>
        <time>2015-04-21T16:45:04Z</time>
      </trkpt>
      <trkpt lat="47.10925" lon="-1.48868">
        <ele>19.4</ele>
        <time>2015-04-21T16:45:09Z</time>
      </trkpt>
      <trkpt lat="47.10944" lon="-1.4886">
        <ele>19.1</ele>
        <time>2015-04-21T16:45:14Z</time>
      </trkpt>
      <trkpt lat="47.10962" lon="-1.48853">
        <ele>19.5</ele>
        <time>2015-04-21T16:45:19Z</time>
      </trkpt>
      <trkpt lat="47.10981" lon="-1.48844">
        <ele>20.9</ele>
        <time>2015-04-21T16:45:24Z</time>
      </trkpt>
      <trkpt lat="47.11001" lon="-1.48836">
        <ele>22</ele>
        <time>2015-04-21T16:45:29Z</time>
      </trkpt>
      <trkpt lat="47.1102" lon="-1.48828">
        <ele>22.8</ele>
        <time>2015-04-21T16:45:34Z</time>
      </trkpt>
      <trkpt lat="47.11041" lon="-1.48821">
        <ele>25.2</ele>
        <time>2015-04-21T16:45:39Z</time>
      </trkpt>
      <trkpt lat="47.11059" lon="-1.48815">
        <ele>26.1</ele>
        <time>2015-04-21T16:45:43Z</time>
      </trkpt>
      <trkpt lat="47.1108" lon="-1.48807">
        <ele>25.1</ele>
        <time>2015-04-21T16:45:48Z</time>
      </trkpt>
      <trkpt lat="47.11099" lon="-1.48799">
        <ele>24.7</ele>
        <time>2015-04-21T16:45:52Z</time>
      </trkpt>
      <trkpt lat="47.11117" lon="-1.4879">
        <ele>25.7</ele>
        <time>2015-04-21T16:45:56Z</time>
      </trkpt>
      <trkpt lat="47.11137" lon="-1.48782">
        <ele>25.5</ele>
        <time>2015-04-21T16:46:00Z</time>
      </trkpt>
      <trkpt lat="47.11158" lon="-1.48774">
        <ele>22.3</ele>
        <time>2015-04-21T16:46:04Z</time>
      </trkpt>
      <trkpt lat="47.1118" lon="-1.48765">
        <ele>20.6</ele>
        <time>2015-04-21T16:46:08Z</time>
      </trkpt>
      <trkpt lat="47.11203" lon="-1.48755">
        <ele>20.3</ele>
        <time>2015-04-21T16:46:12Z</time>
      </trkpt>
      <trkpt lat="47.11226" lon="-1.48746">
        <ele>19.2</ele>
        <time>2015-04-21T16:46:16Z</time>
      </trkpt>
      <trkpt lat="47.11248" lon="-1.48736">
        <ele>18.4</ele>
        <time>2015-04-21T16:46:20Z</time>
      </trkpt>
      <trkpt lat="47.11269" lon="-1.48727">
        <ele>17.4</ele>
        <time>2015-04-21T16:46:24Z</time>
      </trkpt>
      <trkpt lat="47.11289" lon="-1.48719">
        <ele>17.3</ele>
        <time>2015-04-21T16:46:28Z</time>
      </trkpt>
      <trkpt lat="47.11308" lon="-1.48711">
        <ele>18.4</ele>
        <time>2015-04-21T16:46:32Z</time>
      </trkpt>
      <trkpt lat="47.11327" lon="-1.48701">
        <ele>19</ele>
        <time>2015-04-21T16:46:37Z</time>
      </trkpt>
      <trkpt lat="47.11347" lon="-1.48692">
        <ele>20.8</ele>
        <time>2015-04-21T16:46:42Z</time>
      </trkpt>
      <trkpt lat="47.11367" lon="-1.48686">
        <ele>23.3</ele>
        <time>2015-04-21T16:46:47Z</time>
      </trkpt>
      <trkpt lat="47.11387" lon="-1.4868">
        <ele>25</ele>
        <time>2015-04-21T16:46:52Z</time>
      </trkpt>
      <trkpt lat="47.11406" lon="-1.48676">
        <ele>27.5</ele>
        <time>2015-04-21T16:46:57Z</time>
      </trkpt>
      <trkpt lat="47.11427" lon="-1.48672">
        <ele>28.2</ele>
        <time>2015-04-21T16:47:02Z</time>
      </trkpt>
      <trkpt lat="47.11447" lon="-1.48667">
        <ele>31.2</ele>
        <time>2015-04-21T16:47:08Z</time>
      </trkpt>
      <trkpt lat="47.11469" lon="-1.48662">
        <ele>35.2</ele>
        <time>2015-04-21T16:47:14Z</time>
      </trkpt>
      <trkpt lat="47.11487" lon="-1.48656">
        <ele>33.5</ele>
        <time>2015-04-21T16:47:19Z</time>
      </trkpt>
      <trkpt lat="47.11505" lon="-1.48652">
        <ele>33.9</ele>
        <time>2015-04-21T16:47:24Z</time>
      </trkpt>
      <trkpt lat="47.11525" lon="-1.48647">
        <ele>36.1</ele>
        <time>2015-04-21T16:47:30Z</time>
      </trkpt>
      <trkpt lat="47.11545" lon="-1.48643">
        <ele>36.3</ele>
        <time>2015-04-21T16:47:35Z</time>
      </trkpt>
      <trkpt lat="47.11564" lon="-1.48639">
        <ele>36.2</ele>
        <time>2015-04-21T16:47:40Z</time>
      </trkpt>
      <trkpt lat="47.11583" lon="-1.48634">
        <ele>36.9</ele>
        <time>2015-04-21T16:47:45Z</time>
      </trkpt>
      <trkpt lat="47.11603" lon="-1.48628">
        <ele>37.5</ele>
        <time>2015-04-21T16:47:50Z</time>
      </trkpt>
      <trkpt lat="47.11624" lon="-1.48624">
        <ele>37.7</ele>
        <time>2015-04-21T16:47:55Z</time>
      </trkpt>
      <trkpt lat="47.11644" lon="-1.48619">
        <ele>38.9</ele>
        <time>2015-04-21T16:48:00Z</time>
      </trkpt>
      <trkpt lat="47.11663" lon="-1.48614">
        <ele>42.4</ele>
        <time>2015-04-21T16:48:05Z</time>
      </trkpt>
      <trkpt lat="47.11682" lon="-1.48607">
        <ele>42.7</ele>
        <time>2015-04-21T16:48:10Z</time>
      </trkpt>
      <trkpt lat="47.11701" lon="-1.48595">
        <ele>42.7</ele>
        <time>2015-04-21T16:48:15Z</time>
      </trkpt>
      <trkpt lat="47.11717" lon="-1.4858">
        <ele>42.4</ele>
        <time>2015-04-21T16:48:20Z</time>
      </trkpt>
      <trkpt lat="47.11729" lon="-1.48559">
        <ele>41.5</ele>
        <time>2015-04-21T16:48:26Z</time>
      </trkpt>
      <trkpt lat="47.11742" lon="-1.48531">
        <ele>42</ele>
        <time>2015-04-21T16:48:31Z</time>
      </trkpt>
      <trkpt lat="47.11755" lon="-1.4851">
        <ele>42.9</ele>
        <time>2015-04-21T16:48:35Z</time>
      </trkpt>
      <trkpt lat="47.1175" lon="-1.48484">
        <ele>43.8</ele>
        <time>2015-04-21T16:48:39Z</time>
      </trkpt>
      <trkpt lat="47.11747" lon="-1.48454">
        <ele>44.7</ele>
        <time>2015-04-21T16:48:44Z</time>
      </trkpt>
      <trkpt lat="47.11744" lon="-1.48425">
        <ele>46.7</ele>
        <time>2015-04-21T16:48:50Z</time>
      </trkpt>
      <trkpt lat="47.1174" lon="-1.48394">
        <ele>48.2</ele>
        <time>2015-04-21T16:48:56Z</time>
      </trkpt>
      <trkpt lat="47.11733" lon="-1.48367">
        <ele>50.9</ele>
        <time>2015-04-21T16:49:01Z</time>
      </trkpt>
      <trkpt lat="47.11722" lon="-1.4834">
        <ele>50.2</ele>
        <time>2015-04-21T16:49:06Z</time>
      </trkpt>
      <trkpt lat="47.11712" lon="-1.48318">
        <ele>50.3</ele>
        <time>2015-04-21T16:49:10Z</time>
      </trkpt>
      <trkpt lat="47.117" lon="-1.48296">
        <ele>49.1</ele>
        <time>2015-04-21T16:49:14Z</time>
      </trkpt>
      <trkpt lat="47.11687" lon="-1.48272">
        <ele>48</ele>
        <time>2015-04-21T16:49:18Z</time>
      </trkpt>
      <trkpt lat="47.11675" lon="-1.4825">
        <ele>48.6</ele>
        <time>2015-04-21T16:49:22Z</time>
      </trkpt>
      <trkpt lat="47.11663" lon="-1.48227">
        <ele>48.6</ele>
        <time>2015-04-21T16:49:26Z</time>
      </trkpt>
      <trkpt lat="47.11647" lon="-1.48204">
        <ele>48.7</ele>
        <time>2015-04-21T16:49:31Z</time>
      </trkpt>
      <trkpt lat="47.11635" lon="-1.4818">
        <ele>48.2</ele>
        <time>2015-04-21T16:49:35Z</time>
      </trkpt>
      <trkpt lat="47.11623" lon="-1.48155">
        <ele>48.5</ele>
        <time>2015-04-21T16:49:39Z</time>
      </trkpt>
      <trkpt lat="47.11607" lon="-1.4813">
        <ele>48.1</ele>
        <time>2015-04-21T16:49:43Z</time>
      </trkpt>
      <trkpt lat="47.11593" lon="-1.48104">
        <ele>47.5</ele>
        <time>2015-04-21T16:49:47Z</time>
      </trkpt>
      <trkpt lat="47.11581" lon="-1.48079">
        <ele>48.2</ele>
        <time>2015-04-21T16:49:51Z</time>
      </trkpt>
      <trkpt lat="47.11573" lon="-1.48051">
        <ele>51.1</ele>
        <time>2015-04-21T16:49:55Z</time>
      </trkpt>
      <trkpt lat="47.1158" lon="-1.4802">
        <ele>51.9</ele>
        <time>2015-04-21T16:49:59Z</time>
      </trkpt>
      <trkpt lat="47.11593" lon="-1.47994">
        <ele>51.7</ele>
        <time>2015-04-21T16:50:03Z</time>
      </trkpt>
      <trkpt lat="47.11603" lon="-1.47972">
        <ele>51</ele>
        <time>2015-04-21T16:50:06Z</time>
      </trkpt>
      <trkpt lat="47.11617" lon="-1.47944">
        <ele>49.4</ele>
        <time>2015-04-21T16:50:10Z</time>
      </trkpt>
      <trkpt lat="47.11628" lon="-1.47921">
        <ele>49.1</ele>
        <time>2015-04-21T16:50:13Z</time>
      </trkpt>
      <trkpt lat="47.11633" lon="-1.47895">
        <ele>48.7</ele>
        <time>2015-04-21T16:50:16Z</time>
      </trkpt>
      <trkpt lat="47.11634" lon="-1.4786">
        <ele>48.3</ele>
        <time>2015-04-21T16:50:20Z</time>
      </trkpt>
      <trkpt lat="47.11633" lon="-1.47827">
        <ele>48.1</ele>
        <time>2015-04-21T16:50:24Z</time>
      </trkpt>
      <trkpt lat="47.11632" lon="-1.47795">
        <ele>47.8</ele>
        <time>2015-04-21T16:50:28Z</time>
      </trkpt>
      <trkpt lat="47.11633" lon="-1.47765">
        <ele>48</ele>
        <time>2015-04-21T16:50:32Z</time>
      </trkpt>
      <trkpt lat="47.11635" lon="-1.47728">
        <ele>48.3</ele>
        <time>2015-04-21T16:50:36Z</time>
      </trkpt>
      <trkpt lat="47.11635" lon="-1.47701">
        <ele>47.9</ele>
        <time>2015-04-21T16:50:39Z</time>
      </trkpt>
      <trkpt lat="47.11635" lon="-1.47665">
        <ele>47.2</ele>
        <time>2015-04-21T16:50:43Z</time>
      </trkpt>
      <trkpt lat="47.11634" lon="-1.47634">
        <ele>46.9</ele>
        <time>2015-04-21T16:50:47Z</time>
      </trkpt>
      <trkpt lat="47.11634" lon="-1.47602">
        <ele>46.4</ele>
        <time>2015-04-21T16:50:51Z</time>
      </trkpt>
      <trkpt lat="47.11634" lon="-1.47569">
        <ele>46</ele>
        <time>2015-04-21T16:50:55Z</time>
      </trkpt>
      <trkpt lat="47.11633" lon="-1.47537">
        <ele>45.2</ele>
        <time>2015-04-21T16:50:59Z</time>
      </trkpt>
      <trkpt lat="47.11633" lon="-1.47504">
        <ele>44.7</ele>
        <time>2015-04-21T16:51:03Z</time>
      </trkpt>
      <trkpt lat="47.11634" lon="-1.47471">
        <ele>44.1</ele>
        <time>2015-04-21T16:51:07Z</time>
      </trkpt>
      <trkpt lat="47.11635" lon="-1.47439">
        <ele>43.6</ele>
        <time>2015-04-21T16:51:11Z</time>
      </trkpt>
      <trkpt lat="47.11631" lon="-1.47413">
        <ele>41.9</ele>
        <time>2015-04-21T16:51:15Z</time>
      </trkpt>
      <trkpt lat="47.1163" lon="-1.47381">
        <ele>40.6</ele>
        <time>2015-04-21T16:51:19Z</time>
      </trkpt>
      <trkpt lat="47.11633" lon="-1.47354">
        <ele>40</ele>
        <time>2015-04-21T16:51:22Z</time>
      </trkpt>
      <trkpt lat="47.11633" lon="-1.47321">
        <ele>39.6</ele>
        <time>2015-04-21T16:51:26Z</time>
      </trkpt>
      <trkpt lat="47.11632" lon="-1.47287">
        <ele>38.1</ele>
        <time>2015-04-21T16:51:30Z</time>
      </trkpt>
      <trkpt lat="47.11632" lon="-1.4726">
        <ele>36.6</ele>
        <time>2015-04-21T16:51:33Z</time>
      </trkpt>
      <trkpt lat="47.11632" lon="-1.47225">
        <ele>36.5</ele>
        <time>2015-04-21T16:51:37Z</time>
      </trkpt>
      <trkpt lat="47.11631" lon="-1.47191">
        <ele>35</ele>
        <time>2015-04-21T16:51:41Z</time>
      </trkpt>
      <trkpt lat="47.11631" lon="-1.47156">
        <ele>33.5</ele>
        <time>2015-04-21T16:51:45Z</time>
      </trkpt>
      <trkpt lat="47.11632" lon="-1.47122">
        <ele>32.7</ele>
        <time>2015-04-21T16:51:49Z</time>
      </trkpt>
      <trkpt lat="47.11632" lon="-1.47088">
        <ele>32.2</ele>
        <time>2015-04-21T16:51:53Z</time>
      </trkpt>
      <trkpt lat="47.11632" lon="-1.47054">
        <ele>31.3</ele>
        <time>2015-04-21T16:51:57Z</time>
      </trkpt>
      <trkpt lat="47.11631" lon="-1.47023">
        <ele>30.6</ele>
        <time>2015-04-21T16:52:01Z</time>
      </trkpt>
      <trkpt lat="47.1163" lon="-1.46991">
        <ele>30.6</ele>
        <time>2015-04-21T16:52:05Z</time>
      </trkpt>
      <trkpt lat="47.1163" lon="-1.46958">
        <ele>31.4</ele>
        <time>2015-04-21T16:52:09Z</time>
      </trkpt>
      <trkpt lat="47.11628" lon="-1.46931">
        <ele>31.8</ele>
        <time>2015-04-21T16:52:12Z</time>
      </trkpt>
      <trkpt lat="47.11628" lon="-1.46898">
        <ele>33.2</ele>
        <time>2015-04-21T16:52:16Z</time>
      </trkpt>
      <trkpt lat="47.11629" lon="-1.46865">
        <ele>34.7</ele>
        <time>2015-04-21T16:52:20Z</time>
      </trkpt>
      <trkpt lat="47.11633" lon="-1.46834">
        <ele>36</ele>
        <time>2015-04-21T16:52:24Z</time>
      </trkpt>
      <trkpt lat="47.11633" lon="-1.46801">
        <ele>36.7</ele>
        <time>2015-04-21T16:52:28Z</time>
      </trkpt>
      <trkpt lat="47.11633" lon="-1.46766">
        <ele>37.4</ele>
        <time>2015-04-21T16:52:32Z</time>
      </trkpt>
      <trkpt lat="47.11634" lon="-1.46733">
        <ele>37.2</ele>
        <time>2015-04-21T16:52:36Z</time>
      </trkpt>
      <trkpt lat="47.11634" lon="-1.46701">
        <ele>37.8</ele>
        <time>2015-04-21T16:52:40Z</time>
      </trkpt>
      <trkpt lat="47.11637" lon="-1.46667">
        <ele>39</ele>
        <time>2015-04-21T16:52:44Z</time>
      </trkpt>
      <trkpt lat="47.1164" lon="-1.46634">
        <ele>39.7</ele>
        <time>2015-04-21T16:52:48Z</time>
      </trkpt>
      <trkpt lat="47.11644" lon="-1.466">
        <ele>39.7</ele>
        <time>2015-04-21T16:52:52Z</time>
      </trkpt>
      <trkpt lat="47.11648" lon="-1.4657">
        <ele>39.8</ele>
        <time>2015-04-21T16:52:56Z</time>
      </trkpt>
      <trkpt lat="47.11652" lon="-1.4654">
        <ele>39.5</ele>
        <time>2015-04-21T16:53:00Z</time>
      </trkpt>
      <trkpt lat="47.11654" lon="-1.46511">
        <ele>39.9</ele>
        <time>2015-04-21T16:53:04Z</time>
      </trkpt>
      <trkpt lat="47.11656" lon="-1.46483">
        <ele>40.6</ele>
        <time>2015-04-21T16:53:08Z</time>
      </trkpt>
      <trkpt lat="47.1166" lon="-1.46454">
        <ele>41.5</ele>
        <time>2015-04-21T16:53:12Z</time>
      </trkpt>
      <trkpt lat="47.11659" lon="-1.46423">
        <ele>41.5</ele>
        <time>2015-04-21T16:53:16Z</time>
      </trkpt>
      <trkpt lat="47.1166" lon="-1.46391">
        <ele>41.9</ele>
        <time>2015-04-21T16:53:20Z</time>
      </trkpt>
      <trkpt lat="47.11659" lon="-1.46359">
        <ele>41.8</ele>
        <time>2015-04-21T16:53:24Z</time>
      </trkpt>
      <trkpt lat="47.11657" lon="-1.4633">
        <ele>41.5</ele>
        <time>2015-04-21T16:53:28Z</time>
      </trkpt>
      <trkpt lat="47.11655" lon="-1.46299">
        <ele>38.7</ele>
        <time>2015-04-21T16:53:32Z</time>
      </trkpt>
      <trkpt lat="47.11653" lon="-1.46269">
        <ele>36.1</ele>
        <time>2015-04-21T16:53:36Z</time>
      </trkpt>
      <trkpt lat="47.11651" lon="-1.46238">
        <ele>35.6</ele>
        <time>2015-04-21T16:53:40Z</time>
      </trkpt>
      <trkpt lat="47.11647" lon="-1.46206">
        <ele>35</ele>
        <time>2015-04-21T16:53:44Z</time>
      </trkpt>
      <trkpt lat="47.11646" lon="-1.46176">
        <ele>34.6</ele>
        <time>2015-04-21T16:53:48Z</time>
      </trkpt>
      <trkpt lat="47.11644" lon="-1.46144">
        <ele>34</ele>
        <time>2015-04-21T16:53:52Z</time>
      </trkpt>
      <trkpt lat="47.11643" lon="-1.46115">
        <ele>34.1</ele>
        <time>2015-04-21T16:53:56Z</time>
      </trkpt>
      <trkpt lat="47.11642" lon="-1.46085">
        <ele>33.7</ele>
        <time>2015-04-21T16:54:00Z</time>
      </trkpt>
      <trkpt lat="47.1164" lon="-1.46055">
        <ele>33.1</ele>
        <time>2015-04-21T16:54:04Z</time>
      </trkpt>
      <trkpt lat="47.11638" lon="-1.46024">
        <ele>32.1</ele>
        <time>2015-04-21T16:54:08Z</time>
      </trkpt>
      <trkpt lat="47.11636" lon="-1.45993">
        <ele>30.4</ele>
        <time>2015-04-21T16:54:12Z</time>
      </trkpt>
      <trkpt lat="47.11631" lon="-1.45962">
        <ele>30.2</ele>
        <time>2015-04-21T16:54:16Z</time>
      </trkpt>
      <trkpt lat="47.11627" lon="-1.4593">
        <ele>29.5</ele>
        <time>2015-04-21T16:54:20Z</time>
      </trkpt>
      <trkpt lat="47.11623" lon="-1.45899">
        <ele>28.8</ele>
        <time>2015-04-21T16:54:24Z</time>
      </trkpt>
      <trkpt lat="47.11615" lon="-1.4587">
        <ele>29.5</ele>
        <time>2015-04-21T16:54:28Z</time>
      </trkpt>
      <trkpt lat="47.11603" lon="-1.45841">
        <ele>28.8</ele>
        <time>2015-04-21T16:54:32Z</time>
      </trkpt>
      <trkpt lat="47.11588" lon="-1.45818">
        <ele>29.5</ele>
        <time>2015-04-21T16:54:36Z</time>
      </trkpt>
      <trkpt lat="47.1157" lon="-1.45796">
        <ele>29.8</ele>
        <time>2015-04-21T16:54:40Z</time>
      </trkpt>
      <trkpt lat="47.11552" lon="-1.45775">
        <ele>31.3</ele>
        <time>2015-04-21T16:54:44Z</time>
      </trkpt>
      <trkpt lat="47.11538" lon="-1.45758">
        <ele>32.2</ele>
        <time>2015-04-21T16:54:47Z</time>
      </trkpt>
      <trkpt lat="47.11524" lon="-1.45733">
        <ele>33.1</ele>
        <time>2015-04-21T16:54:51Z</time>
      </trkpt>
      <trkpt lat="47.11515" lon="-1.45708">
        <ele>32.9</ele>
        <time>2015-04-21T16:54:55Z</time>
      </trkpt>
      <trkpt lat="47.11507" lon="-1.45681">
        <ele>32.7</ele>
        <time>2015-04-21T16:54:59Z</time>
      </trkpt>
      <trkpt lat="47.115" lon="-1.45653">
        <ele>32.8</ele>
        <time>2015-04-21T16:55:03Z</time>
      </trkpt>
      <trkpt lat="47.11493" lon="-1.45626">
        <ele>32.2</ele>
        <time>2015-04-21T16:55:07Z</time>
      </trkpt>
      <trkpt lat="47.11482" lon="-1.456">
        <ele>32.3</ele>
        <time>2015-04-21T16:55:11Z</time>
      </trkpt>
      <trkpt lat="47.11468" lon="-1.45574">
        <ele>33.3</ele>
        <time>2015-04-21T16:55:15Z</time>
      </trkpt>
      <trkpt lat="47.1145" lon="-1.45552">
        <ele>34</ele>
        <time>2015-04-21T16:55:19Z</time>
      </trkpt>
      <trkpt lat="47.11432" lon="-1.4553">
        <ele>33.4</ele>
        <time>2015-04-21T16:55:23Z</time>
      </trkpt>
      <trkpt lat="47.11416" lon="-1.45506">
        <ele>34.3</ele>
        <time>2015-04-21T16:55:27Z</time>
      </trkpt>
      <trkpt lat="47.11406" lon="-1.45477">
        <ele>35.3</ele>
        <time>2015-04-21T16:55:31Z</time>
      </trkpt>
      <trkpt lat="47.11404" lon="-1.45447">
        <ele>35.9</ele>
        <time>2015-04-21T16:55:35Z</time>
      </trkpt>
      <trkpt lat="47.11407" lon="-1.45418">
        <ele>35.1</ele>
        <time>2015-04-21T16:55:39Z</time>
      </trkpt>
      <trkpt lat="47.11412" lon="-1.4539">
        <ele>35.6</ele>
        <time>2015-04-21T16:55:43Z</time>
      </trkpt>
      <trkpt lat="47.11418" lon="-1.45363">
        <ele>35.8</ele>
        <time>2015-04-21T16:55:47Z</time>
      </trkpt>
      <trkpt lat="47.11424" lon="-1.45336">
        <ele>35.3</ele>
        <time>2015-04-21T16:55:51Z</time>
      </trkpt>
      <trkpt lat="47.11429" lon="-1.45307">
        <ele>35.4</ele>
        <time>2015-04-21T16:55:55Z</time>
      </trkpt>
      <trkpt lat="47.11433" lon="-1.45281">
        <ele>34.4</ele>
        <time>2015-04-21T16:55:59Z</time>
      </trkpt>
      <trkpt lat="47.11439" lon="-1.45249">
        <ele>34.2</ele>
        <time>2015-04-21T16:56:04Z</time>
      </trkpt>
      <trkpt lat="47.11449" lon="-1.45225">
        <ele>35.1</ele>
        <time>2015-04-21T16:56:08Z</time>
      </trkpt>
      <trkpt lat="47.1146" lon="-1.45204">
        <ele>36.9</ele>
        <time>2015-04-21T16:56:12Z</time>
      </trkpt>
      <trkpt lat="47.11474" lon="-1.45178">
        <ele>38.1</ele>
        <time>2015-04-21T16:56:17Z</time>
      </trkpt>
      <trkpt lat="47.11487" lon="-1.45153">
        <ele>39.1</ele>
        <time>2015-04-21T16:56:22Z</time>
      </trkpt>
      <trkpt lat="47.11501" lon="-1.45128">
        <ele>39.7</ele>
        <time>2015-04-21T16:56:27Z</time>
      </trkpt>
      <trkpt lat="47.11511" lon="-1.45107">
        <ele>40.4</ele>
        <time>2015-04-21T16:56:31Z</time>
      </trkpt>
      <trkpt lat="47.11525" lon="-1.45081">
        <ele>40.3</ele>
        <time>2015-04-21T16:56:36Z</time>
      </trkpt>
      <trkpt lat="47.11535" lon="-1.45058">
        <ele>40.6</ele>
        <time>2015-04-21T16:56:40Z</time>
      </trkpt>
      <trkpt lat="47.11544" lon="-1.45032">
        <ele>40.7</ele>
        <time>2015-04-21T16:56:44Z</time>
      </trkpt>
      <trkpt lat="47.1155" lon="-1.45006">
        <ele>40.2</ele>
        <time>2015-04-21T16:56:48Z</time>
      </trkpt>
      <trkpt lat="47.11557" lon="-1.4498">
        <ele>40.2</ele>
        <time>2015-04-21T16:56:52Z</time>
      </trkpt>
      <trkpt lat="47.11564" lon="-1.44955">
        <ele>40.3</ele>
        <time>2015-04-21T16:56:56Z</time>
      </trkpt>
      <trkpt lat="47.11572" lon="-1.4493">
        <ele>40.9</ele>
        <time>2015-04-21T16:57:00Z</time>
      </trkpt>
      <trkpt lat="47.11579" lon="-1.44905">
        <ele>41.4</ele>
        <time>2015-04-21T16:57:04Z</time>
      </trkpt>
      <trkpt lat="47.11588" lon="-1.44881">
        <ele>40.7</ele>
        <time>2015-04-21T16:57:08Z</time>
      </trkpt>
      <trkpt lat="47.11599" lon="-1.44854">
        <ele>40.6</ele>
        <time>2015-04-21T16:57:13Z</time>
      </trkpt>
      <trkpt lat="47.11609" lon="-1.4483">
        <ele>40.7</ele>
        <time>2015-04-21T16:57:17Z</time>
      </trkpt>
      <trkpt lat="47.11619" lon="-1.44806">
        <ele>40.2</ele>
        <time>2015-04-21T16:57:21Z</time>
      </trkpt>
      <trkpt lat="47.11631" lon="-1.44779">
        <ele>39.4</ele>
        <time>2015-04-21T16:57:25Z</time>
      </trkpt>
      <trkpt lat="47.11642" lon="-1.44751">
        <ele>38.8</ele>
        <time>2015-04-21T16:57:29Z</time>
      </trkpt>
      <trkpt lat="47.11654" lon="-1.44722">
        <ele>38.1</ele>
        <time>2015-04-21T16:57:33Z</time>
      </trkpt>
      <trkpt lat="47.11664" lon="-1.44698">
        <ele>37.1</ele>
        <time>2015-04-21T16:57:36Z</time>
      </trkpt>
      <trkpt lat="47.11671" lon="-1.44673">
        <ele>36.4</ele>
        <time>2015-04-21T16:57:39Z</time>
      </trkpt>
      <trkpt lat="47.11674" lon="-1.44646">
        <ele>35.3</ele>
        <time>2015-04-21T16:57:42Z</time>
      </trkpt>
      <trkpt lat="47.11673" lon="-1.44612">
        <ele>34.2</ele>
        <time>2015-04-21T16:57:46Z</time>
      </trkpt>
      <trkpt lat="47.11673" lon="-1.44586">
        <ele>33.3</ele>
        <time>2015-04-21T16:57:49Z</time>
      </trkpt>
      <trkpt lat="47.11671" lon="-1.44557">
        <ele>32.7</ele>
        <time>2015-04-21T16:57:52Z</time>
      </trkpt>
      <trkpt lat="47.11669" lon="-1.44529">
        <ele>32.4</ele>
        <time>2015-04-21T16:57:55Z</time>
      </trkpt>
      <trkpt lat="47.11672" lon="-1.44502">
        <ele>32.4</ele>
        <time>2015-04-21T16:57:58Z</time>
      </trkpt>
      <trkpt lat="47.1168" lon="-1.44476">
        <ele>32</ele>
        <time>2015-04-21T16:58:01Z</time>
      </trkpt>
      <trkpt lat="47.1169" lon="-1.44452">
        <ele>31</ele>
        <time>2015-04-21T16:58:04Z</time>
      </trkpt>
      <trkpt lat="47.11698" lon="-1.44427">
        <ele>30.1</ele>
        <time>2015-04-21T16:58:07Z</time>
      </trkpt>
      <trkpt lat="47.11705" lon="-1.444">
        <ele>28.6</ele>
        <time>2015-04-21T16:58:10Z</time>
      </trkpt>
      <trkpt lat="47.11707" lon="-1.44366">
        <ele>27.5</ele>
        <time>2015-04-21T16:58:14Z</time>
      </trkpt>
      <trkpt lat="47.11707" lon="-1.44332">
        <ele>26.4</ele>
        <time>2015-04-21T16:58:18Z</time>
      </trkpt>
      <trkpt lat="47.11708" lon="-1.443">
        <ele>26</ele>
        <time>2015-04-21T16:58:22Z</time>
      </trkpt>
      <trkpt lat="47.11709" lon="-1.44274">
        <ele>26.6</ele>
        <time>2015-04-21T16:58:26Z</time>
      </trkpt>
      <trkpt lat="47.11716" lon="-1.44249">
        <ele>28.5</ele>
        <time>2015-04-21T16:58:30Z</time>
      </trkpt>
      <trkpt lat="47.11731" lon="-1.44225">
        <ele>30</ele>
        <time>2015-04-21T16:58:35Z</time>
      </trkpt>
      <trkpt lat="47.11749" lon="-1.44211">
        <ele>31.2</ele>
        <time>2015-04-21T16:58:40Z</time>
      </trkpt>
      <trkpt lat="47.11768" lon="-1.44201">
        <ele>31.4</ele>
        <time>2015-04-21T16:58:45Z</time>
      </trkpt>
      <trkpt lat="47.11785" lon="-1.44192">
        <ele>32</ele>
        <time>2015-04-21T16:58:49Z</time>
      </trkpt>
      <trkpt lat="47.11805" lon="-1.44182">
        <ele>33.2</ele>
        <time>2015-04-21T16:58:53Z</time>
      </trkpt>
      <trkpt lat="47.11823" lon="-1.44173">
        <ele>33.4</ele>
        <time>2015-04-21T16:58:57Z</time>
      </trkpt>
      <trkpt lat="47.11842" lon="-1.44164">
        <ele>33.4</ele>
        <time>2015-04-21T16:59:02Z</time>
      </trkpt>
      <trkpt lat="47.11861" lon="-1.44156">
        <ele>33.9</ele>
        <time>2015-04-21T16:59:07Z</time>
      </trkpt>
      <trkpt lat="47.11881" lon="-1.44145">
        <ele>33.5</ele>
        <time>2015-04-21T16:59:12Z</time>
      </trkpt>
      <trkpt lat="47.11897" lon="-1.44128">
        <ele>32.9</ele>
        <time>2015-04-21T16:59:17Z</time>
      </trkpt>
      <trkpt lat="47.11911" lon="-1.44105">
        <ele>33.7</ele>
        <time>2015-04-21T16:59:22Z</time>
      </trkpt>
      <trkpt lat="47.11923" lon="-1.44081">
        <ele>35.2</ele>
        <time>2015-04-21T16:59:27Z</time>
      </trkpt>
      <trkpt lat="47.11933" lon="-1.44053">
        <ele>35.6</ele>
        <time>2015-04-21T16:59:32Z</time>
      </trkpt>
      <trkpt lat="47.11941" lon="-1.44023">
        <ele>36.2</ele>
        <time>2015-04-21T16:59:37Z</time>
      </trkpt>
      <trkpt lat="47.11947" lon="-1.43998">
        <ele>36.4</ele>
        <time>2015-04-21T16:59:41Z</time>
      </trkpt>
      <trkpt lat="47.11954" lon="-1.43973">
        <ele>36.4</ele>
        <time>2015-04-21T16:59:45Z</time>
      </trkpt>
      <trkpt lat="47.1196" lon="-1.43948">
        <ele>36.8</ele>
        <time>2015-04-21T16:59:49Z</time>
      </trkpt>
      <trkpt lat="47.11968" lon="-1.43923">
        <ele>36.9</ele>
        <time>2015-04-21T16:59:53Z</time>
      </trkpt>
      <trkpt lat="47.11975" lon="-1.43896">
        <ele>35.4</ele>
        <time>2015-04-21T16:59:57Z</time>
      </trkpt>
      <trkpt lat="47.11983" lon="-1.43869">
        <ele>35</ele>
        <time>2015-04-21T17:00:01Z</time>
      </trkpt>
      <trkpt lat="47.11992" lon="-1.4384">
        <ele>34</ele>
        <time>2015-04-21T17:00:05Z</time>
      </trkpt>
      <trkpt lat="47.12" lon="-1.4381">
        <ele>32.7</ele>
        <time>2015-04-21T17:00:09Z</time>
      </trkpt>
      <trkpt lat="47.12008" lon="-1.4378">
        <ele>31.4</ele>
        <time>2015-04-21T17:00:13Z</time>
      </trkpt>
      <trkpt lat="47.12016" lon="-1.43752">
        <ele>30.3</ele>
        <time>2015-04-21T17:00:17Z</time>
      </trkpt>
      <trkpt lat="47.12027" lon="-1.43724">
        <ele>30</ele>
        <time>2015-04-21T17:00:21Z</time>
      </trkpt>
      <trkpt lat="47.12041" lon="-1.43697">
        <ele>29.3</ele>
        <time>2015-04-21T17:00:25Z</time>
      </trkpt>
      <trkpt lat="47.12055" lon="-1.43675">
        <ele>29.8</ele>
        <time>2015-04-21T17:00:29Z</time>
      </trkpt>
      <trkpt lat="47.12066" lon="-1.43651">
        <ele>29.6</ele>
        <time>2015-04-21T17:00:33Z</time>
      </trkpt>
      <trkpt lat="47.12077" lon="-1.43626">
        <ele>28.7</ele>
        <time>2015-04-21T17:00:37Z</time>
      </trkpt>
      <trkpt lat="47.12085" lon="-1.43596">
        <ele>29.1</ele>
        <time>2015-04-21T17:00:42Z</time>
      </trkpt>
      <trkpt lat="47.12088" lon="-1.43563">
        <ele>29</ele>
        <time>2015-04-21T17:00:47Z</time>
      </trkpt>
      <trkpt lat="47.12089" lon="-1.43536">
        <ele>29.5</ele>
        <time>2015-04-21T17:00:51Z</time>
      </trkpt>
      <trkpt lat="47.12093" lon="-1.43505">
        <ele>30.2</ele>
        <time>2015-04-21T17:00:56Z</time>
      </trkpt>
      <trkpt lat="47.12098" lon="-1.43478">
        <ele>31.1</ele>
        <time>2015-04-21T17:01:01Z</time>
      </trkpt>
      <trkpt lat="47.12102" lon="-1.43448">
        <ele>31.8</ele>
        <time>2015-04-21T17:01:06Z</time>
      </trkpt>
      <trkpt lat="47.12108" lon="-1.43421">
        <ele>32.4</ele>
        <time>2015-04-21T17:01:11Z</time>
      </trkpt>
      <trkpt lat="47.12118" lon="-1.43396">
        <ele>33.3</ele>
        <time>2015-04-21T17:01:16Z</time>
      </trkpt>
      <trkpt lat="47.12126" lon="-1.43373">
        <ele>34.3</ele>
        <time>2015-04-21T17:01:21Z</time>
      </trkpt>
      <trkpt lat="47.12134" lon="-1.43349">
        <ele>36.1</ele>
        <time>2015-04-21T17:01:26Z</time>
      </trkpt>
      <trkpt lat="47.12142" lon="-1.43323">
        <ele>36.8</ele>
        <time>2015-04-21T17:01:31Z</time>
      </trkpt>
      <trkpt lat="47.12149" lon="-1.43297">
        <ele>39.8</ele>
        <time>2015-04-21T17:01:36Z</time>
      </trkpt>
      <trkpt lat="47.12155" lon="-1.43271">
        <ele>39.8</ele>
        <time>2015-04-21T17:01:41Z</time>
      </trkpt>
      <trkpt lat="47.1216" lon="-1.43243">
        <ele>40.7</ele>
        <time>2015-04-21T17:01:46Z</time>
      </trkpt>
      <trkpt lat="47.12164" lon="-1.43217">
        <ele>42.6</ele>
        <time>2015-04-21T17:01:51Z</time>
      </trkpt>
      <trkpt lat="47.12168" lon="-1.43186">
        <ele>43.1</ele>
        <time>2015-04-21T17:01:57Z</time>
      </trkpt>
      <trkpt lat="47.1217" lon="-1.43159">
        <ele>43.4</ele>
        <time>2015-04-21T17:02:02Z</time>
      </trkpt>
      <trkpt lat="47.12175" lon="-1.43132">
        <ele>44.2</ele>
        <time>2015-04-21T17:02:07Z</time>
      </trkpt>
      <trkpt lat="47.12182" lon="-1.43106">
        <ele>43.9</ele>
        <time>2015-04-21T17:02:12Z</time>
      </trkpt>
      <trkpt lat="47.12192" lon="-1.4308">
        <ele>44.7</ele>
        <time>2015-04-21T17:02:17Z</time>
      </trkpt>
      <trkpt lat="47.12201" lon="-1.43054">
        <ele>44.3</ele>
        <time>2015-04-21T17:02:22Z</time>
      </trkpt>
      <trkpt lat="47.12212" lon="-1.43029">
        <ele>44</ele>
        <time>2015-04-21T17:02:27Z</time>
      </trkpt>
      <trkpt lat="47.12223" lon="-1.43005">
        <ele>44.4</ele>
        <time>2015-04-21T17:02:32Z</time>
      </trkpt>
      <trkpt lat="47.12236" lon="-1.42982">
        <ele>44.5</ele>
        <time>2015-04-21T17:02:37Z</time>
      </trkpt>
      <trkpt lat="47.12248" lon="-1.42957">
        <ele>44.9</ele>
        <time>2015-04-21T17:02:42Z</time>
      </trkpt>
      <trkpt lat="47.12258" lon="-1.4293">
        <ele>44.3</ele>
        <time>2015-04-21T17:02:47Z</time>
      </trkpt>
      <trkpt lat="47.12263" lon="-1.42901">
        <ele>44.8</ele>
        <time>2015-04-21T17:02:52Z</time>
      </trkpt>
      <trkpt lat="47.12267" lon="-1.42871">
        <ele>45</ele>
        <time>2015-04-21T17:02:57Z</time>
      </trkpt>
      <trkpt lat="47.12272" lon="-1.42839">
        <ele>44.5</ele>
        <time>2015-04-21T17:03:02Z</time>
      </trkpt>
      <trkpt lat="47.12276" lon="-1.42809">
        <ele>45.2</ele>
        <time>2015-04-21T17:03:07Z</time>
      </trkpt>
      <trkpt lat="47.12281" lon="-1.42778">
        <ele>46.7</ele>
        <time>2015-04-21T17:03:12Z</time>
      </trkpt>
      <trkpt lat="47.12285" lon="-1.42747">
        <ele>46.7</ele>
        <time>2015-04-21T17:03:17Z</time>
      </trkpt>
      <trkpt lat="47.12289" lon="-1.42721">
        <ele>46</ele>
        <time>2015-04-21T17:03:21Z</time>
      </trkpt>
      <trkpt lat="47.12293" lon="-1.42695">
        <ele>45.2</ele>
        <time>2015-04-21T17:03:25Z</time>
      </trkpt>
      <trkpt lat="47.12297" lon="-1.42662">
        <ele>44</ele>
        <time>2015-04-21T17:03:30Z</time>
      </trkpt>
      <trkpt lat="47.12302" lon="-1.42633">
        <ele>45.2</ele>
        <time>2015-04-21T17:03:35Z</time>
      </trkpt>
      <trkpt lat="47.12313" lon="-1.42605">
        <ele>46.9</ele>
        <time>2015-04-21T17:03:40Z</time>
      </trkpt>
      <trkpt lat="47.12327" lon="-1.42585">
        <ele>47</ele>
        <time>2015-04-21T17:03:45Z</time>
      </trkpt>
      <trkpt lat="47.12346" lon="-1.4257">
        <ele>47.2</ele>
        <time>2015-04-21T17:03:50Z</time>
      </trkpt>
      <trkpt lat="47.12362" lon="-1.42557">
        <ele>48.8</ele>
        <time>2015-04-21T17:03:54Z</time>
      </trkpt>
      <trkpt lat="47.12381" lon="-1.42542">
        <ele>49.6</ele>
        <time>2015-04-21T17:03:59Z</time>
      </trkpt>
      <trkpt lat="47.12393" lon="-1.42521">
        <ele>50.8</ele>
        <time>2015-04-21T17:04:04Z</time>
      </trkpt>
      <trkpt lat="47.12397" lon="-1.42495">
        <ele>50.8</ele>
        <time>2015-04-21T17:04:08Z</time>
      </trkpt>
      <trkpt lat="47.12395" lon="-1.42467">
        <ele>51.3</ele>
        <time>2015-04-21T17:04:12Z</time>
      </trkpt>
      <trkpt lat="47.12392" lon="-1.42438">
        <ele>51.2</ele>
        <time>2015-04-21T17:04:16Z</time>
      </trkpt>
      <trkpt lat="47.12393" lon="-1.42411">
        <ele>51.5</ele>
        <time>2015-04-21T17:04:20Z</time>
      </trkpt>
      <trkpt lat="47.12401" lon="-1.42387">
        <ele>52.1</ele>
        <time>2015-04-21T17:04:24Z</time>
      </trkpt>
      <trkpt lat="47.12419" lon="-1.42368">
        <ele>53.6</ele>
        <time>2015-04-21T17:04:29Z</time>
      </trkpt>
      <trkpt lat="47.12425" lon="-1.42342">
        <ele>52.3</ele>
        <time>2015-04-21T17:04:33Z</time>
      </trkpt>
      <trkpt lat="47.12422" lon="-1.42315">
        <ele>50</ele>
        <time>2015-04-21T17:04:37Z</time>
      </trkpt>
      <trkpt lat="47.12418" lon="-1.42285">
        <ele>47.6</ele>
        <time>2015-04-21T17:04:41Z</time>
      </trkpt>
      <trkpt lat="47.12409" lon="-1.42254">
        <ele>45.3</ele>
        <time>2015-04-21T17:04:45Z</time>
      </trkpt>
      <trkpt lat="47.12404" lon="-1.42226">
        <ele>43.9</ele>
        <time>2015-04-21T17:04:49Z</time>
      </trkpt>
      <trkpt lat="47.12396" lon="-1.42197">
        <ele>43.7</ele>
        <time>2015-04-21T17:04:53Z</time>
      </trkpt>
      <trkpt lat="47.12391" lon="-1.42169">
        <ele>41.9</ele>
        <time>2015-04-21T17:04:57Z</time>
      </trkpt>
      <trkpt lat="47.12385" lon="-1.42143">
        <ele>40.2</ele>
        <time>2015-04-21T17:05:01Z</time>
      </trkpt>
      <trkpt lat="47.12371" lon="-1.42118">
        <ele>38.4</ele>
        <time>2015-04-21T17:05:05Z</time>
      </trkpt>
      <trkpt lat="47.12357" lon="-1.42092">
        <ele>37</ele>
        <time>2015-04-21T17:05:09Z</time>
      </trkpt>
      <trkpt lat="47.12346" lon="-1.42065">
        <ele>36.8</ele>
        <time>2015-04-21T17:05:13Z</time>
      </trkpt>
      <trkpt lat="47.1236" lon="-1.42048">
        <ele>36.9</ele>
        <time>2015-04-21T17:05:17Z</time>
      </trkpt>
      <trkpt lat="47.12378" lon="-1.42034">
        <ele>37.6</ele>
        <time>2015-04-21T17:05:21Z</time>
      </trkpt>
      <trkpt lat="47.12395" lon="-1.42017">
        <ele>37.7</ele>
        <time>2015-04-21T17:05:25Z</time>
      </trkpt>
      <trkpt lat="47.12413" lon="-1.41993">
        <ele>38.3</ele>
        <time>2015-04-21T17:05:29Z</time>
      </trkpt>
      <trkpt lat="47.12427" lon="-1.41975">
        <ele>38.5</ele>
        <time>2015-04-21T17:05:32Z</time>
      </trkpt>
      <trkpt lat="47.1244" lon="-1.41956">
        <ele>38.3</ele>
        <time>2015-04-21T17:05:35Z</time>
      </trkpt>
      <trkpt lat="47.12455" lon="-1.41937">
        <ele>37.9</ele>
        <time>2015-04-21T17:05:38Z</time>
      </trkpt>
      <trkpt lat="47.12468" lon="-1.41918">
        <ele>37.7</ele>
        <time>2015-04-21T17:05:41Z</time>
      </trkpt>
      <trkpt lat="47.12486" lon="-1.41899">
        <ele>37.5</ele>
        <time>2015-04-21T17:05:45Z</time>
      </trkpt>
      <trkpt lat="47.12505" lon="-1.41883">
        <ele>37.8</ele>
        <time>2015-04-21T17:05:49Z</time>
      </trkpt>
      <trkpt lat="47.12522" lon="-1.41872">
        <ele>36.5</ele>
        <time>2015-04-21T17:05:52Z</time>
      </trkpt>
      <trkpt lat="47.12543" lon="-1.4186">
        <ele>35.9</ele>
        <time>2015-04-21T17:05:56Z</time>
      </trkpt>
      <trkpt lat="47.12561" lon="-1.41846">
        <ele>34.5</ele>
        <time>2015-04-21T17:05:59Z</time>
      </trkpt>
      <trkpt lat="47.12574" lon="-1.41819">
        <ele>33.7</ele>
        <time>2015-04-21T17:06:02Z</time>
      </trkpt>
      <trkpt lat="47.12581" lon="-1.41787">
        <ele>32.6</ele>
        <time>2015-04-21T17:06:05Z</time>
      </trkpt>
      <trkpt lat="47.12592" lon="-1.41756">
        <ele>31.6</ele>
        <time>2015-04-21T17:06:08Z</time>
      </trkpt>
      <trkpt lat="47.1261" lon="-1.41736">
        <ele>31</ele>
        <time>2015-04-21T17:06:11Z</time>
      </trkpt>
      <trkpt lat="47.12633" lon="-1.41728">
        <ele>30.5</ele>
        <time>2015-04-21T17:06:14Z</time>
      </trkpt>
      <trkpt lat="47.12658" lon="-1.41715">
        <ele>30</ele>
        <time>2015-04-21T17:06:17Z</time>
      </trkpt>
      <trkpt lat="47.12675" lon="-1.41703">
        <ele>29.7</ele>
        <time>2015-04-21T17:06:19Z</time>
      </trkpt>
      <trkpt lat="47.12691" lon="-1.4169">
        <ele>29.5</ele>
        <time>2015-04-21T17:06:21Z</time>
      </trkpt>
      <trkpt lat="47.12709" lon="-1.41682">
        <ele>29.2</ele>
        <time>2015-04-21T17:06:23Z</time>
      </trkpt>
      <trkpt lat="47.12727" lon="-1.41678">
        <ele>28.8</ele>
        <time>2015-04-21T17:06:25Z</time>
      </trkpt>
      <trkpt lat="47.12745" lon="-1.41678">
        <ele>28.2</ele>
        <time>2015-04-21T17:06:27Z</time>
      </trkpt>
      <trkpt lat="47.12763" lon="-1.41674">
        <ele>26.6</ele>
        <time>2015-04-21T17:06:29Z</time>
      </trkpt>
      <trkpt lat="47.1278" lon="-1.41662">
        <ele>25.3</ele>
        <time>2015-04-21T17:06:31Z</time>
      </trkpt>
      <trkpt lat="47.12784" lon="-1.41626">
        <ele>23.3</ele>
        <time>2015-04-21T17:06:34Z</time>
      </trkpt>
      <trkpt lat="47.1277" lon="-1.41597">
        <ele>22.3</ele>
        <time>2015-04-21T17:06:36Z</time>
      </trkpt>
      <trkpt lat="47.1275" lon="-1.41592">
        <ele>21.4</ele>
        <time>2015-04-21T17:06:38Z</time>
      </trkpt>
      <trkpt lat="47.12729" lon="-1.41594">
        <ele>21</ele>
        <time>2015-04-21T17:06:40Z</time>
      </trkpt>
      <trkpt lat="47.1271" lon="-1.41591">
        <ele>20.7</ele>
        <time>2015-04-21T17:06:42Z</time>
      </trkpt>
      <trkpt lat="47.12692" lon="-1.41581">
        <ele>19.8</ele>
        <time>2015-04-21T17:06:44Z</time>
      </trkpt>
      <trkpt lat="47.12671" lon="-1.41579">
        <ele>19</ele>
        <time>2015-04-21T17:06:46Z</time>
      </trkpt>
      <trkpt lat="47.12654" lon="-1.41591">
        <ele>18.5</ele>
        <time>2015-04-21T17:06:48Z</time>
      </trkpt>
      <trkpt lat="47.12636" lon="-1.41592">
        <ele>18.1</ele>
        <time>2015-04-21T17:06:50Z</time>
      </trkpt>
      <trkpt lat="47.1261" lon="-1.41571">
        <ele>16.9</ele>
        <time>2015-04-21T17:06:53Z</time>
      </trkpt>
      <trkpt lat="47.12595" lon="-1.41547">
        <ele>15.2</ele>
        <time>2015-04-21T17:06:55Z</time>
      </trkpt>
      <trkpt lat="47.12582" lon="-1.41521">
        <ele>13.8</ele>
        <time>2015-04-21T17:06:57Z</time>
      </trkpt>
      <trkpt lat="47.12568" lon="-1.41498">
        <ele>12.6</ele>
        <time>2015-04-21T17:06:59Z</time>
      </trkpt>
      <trkpt lat="47.12556" lon="-1.41478">
        <ele>11.6</ele>
        <time>2015-04-21T17:07:01Z</time>
      </trkpt>
      <trkpt lat="47.12539" lon="-1.4145">
        <ele>9.8</ele>
        <time>2015-04-21T17:07:04Z</time>
      </trkpt>
      <trkpt lat="47.12528" lon="-1.41426">
        <ele>8.2</ele>
        <time>2015-04-21T17:07:07Z</time>
      </trkpt>
      <trkpt lat="47.12535" lon="-1.41397">
        <ele>7.7</ele>
        <time>2015-04-21T17:07:11Z</time>
      </trkpt>
      <trkpt lat="47.12547" lon="-1.41378">
        <ele>7.3</ele>
        <time>2015-04-21T17:07:15Z</time>
      </trkpt>
      <trkpt lat="47.12563" lon="-1.41357">
        <ele>7.2</ele>
        <time>2015-04-21T17:07:20Z</time>
      </trkpt>
      <trkpt lat="47.12579" lon="-1.41336">
        <ele>7.3</ele>
        <time>2015-04-21T17:07:25Z</time>
      </trkpt>
      <trkpt lat="47.12594" lon="-1.41316">
        <ele>7.5</ele>
        <time>2015-04-21T17:07:30Z</time>
      </trkpt>
      <trkpt lat="47.12606" lon="-1.41294">
        <ele>8.1</ele>
        <time>2015-04-21T17:07:36Z</time>
      </trkpt>
      <trkpt lat="47.12624" lon="-1.41283">
        <ele>8.4</ele>
        <time>2015-04-21T17:07:42Z</time>
      </trkpt>
      <trkpt lat="47.1264" lon="-1.41271">
        <ele>8.9</ele>
        <time>2015-04-21T17:07:48Z</time>
      </trkpt>
      <trkpt lat="47.12661" lon="-1.41263">
        <ele>9.4</ele>
        <time>2015-04-21T17:07:54Z</time>
      </trkpt>
      <trkpt lat="47.12678" lon="-1.41253">
        <ele>10.5</ele>
        <time>2015-04-21T17:07:59Z</time>
      </trkpt>
      <trkpt lat="47.12696" lon="-1.41239">
        <ele>12.2</ele>
        <time>2015-04-21T17:08:05Z</time>
      </trkpt>
      <trkpt lat="47.12711" lon="-1.41226">
        <ele>14</ele>
        <time>2015-04-21T17:08:11Z</time>
      </trkpt>
      <trkpt lat="47.12727" lon="-1.41206">
        <ele>17.3</ele>
        <time>2015-04-21T17:08:18Z</time>
      </trkpt>
      <trkpt lat="47.12744" lon="-1.41188">
        <ele>19.9</ele>
        <time>2015-04-21T17:08:24Z</time>
      </trkpt>
      <trkpt lat="47.12756" lon="-1.41166">
        <ele>22.5</ele>
        <time>2015-04-21T17:08:31Z</time>
      </trkpt>
      <trkpt lat="47.12764" lon="-1.41141">
        <ele>26.6</ele>
        <time>2015-04-21T17:08:39Z</time>
      </trkpt>
      <trkpt lat="47.12776" lon="-1.41121">
        <ele>30.4</ele>
        <time>2015-04-21T17:08:46Z</time>
      </trkpt>
      <trkpt lat="47.12784" lon="-1.41095">
        <ele>34.2</ele>
        <time>2015-04-21T17:08:53Z</time>
      </trkpt>
      <trkpt lat="47.12791" lon="-1.41065">
        <ele>35.7</ele>
        <time>2015-04-21T17:08:59Z</time>
      </trkpt>
      <trkpt lat="47.12795" lon="-1.41034">
        <ele>37.5</ele>
        <time>2015-04-21T17:09:05Z</time>
      </trkpt>
      <trkpt lat="47.12789" lon="-1.41007">
        <ele>38.6</ele>
        <time>2015-04-21T17:09:09Z</time>
      </trkpt>
      <trkpt lat="47.1278" lon="-1.40981">
        <ele>42.2</ele>
        <time>2015-04-21T17:09:15Z</time>
      </trkpt>
      <trkpt lat="47.1277" lon="-1.40955">
        <ele>45.9</ele>
        <time>2015-04-21T17:09:21Z</time>
      </trkpt>
      <trkpt lat="47.12758" lon="-1.40932">
        <ele>45.2</ele>
        <time>2015-04-21T17:09:27Z</time>
      </trkpt>
      <trkpt lat="47.12741" lon="-1.40919">
        <ele>43.4</ele>
        <time>2015-04-21T17:09:33Z</time>
      </trkpt>
      <trkpt lat="47.1272" lon="-1.40912">
        <ele>42.7</ele>
        <time>2015-04-21T17:09:40Z</time>
      </trkpt>
      <trkpt lat="47.127" lon="-1.40908">
        <ele>44.2</ele>
        <time>2015-04-21T17:09:47Z</time>
      </trkpt>
      <trkpt lat="47.12682" lon="-1.40904">
        <ele>43.9</ele>
        <time>2015-04-21T17:09:52Z</time>
      </trkpt>
      <trkpt lat="47.12662" lon="-1.40899">
        <ele>46.4</ele>
        <time>2015-04-21T17:09:59Z</time>
      </trkpt>
      <trkpt lat="47.12641" lon="-1.40894">
        <ele>47.3</ele>
        <time>2015-04-21T17:10:05Z</time>
      </trkpt>
      <trkpt lat="47.12619" lon="-1.40889">
        <ele>48.7</ele>
        <time>2015-04-21T17:10:11Z</time>
      </trkpt>
      <trkpt lat="47.12598" lon="-1.40882">
        <ele>49.7</ele>
        <time>2015-04-21T17:10:16Z</time>
      </trkpt>
      <trkpt lat="47.12578" lon="-1.40877">
        <ele>50.9</ele>
        <time>2015-04-21T17:10:20Z</time>
      </trkpt>
      <trkpt lat="47.12559" lon="-1.40873">
        <ele>50.6</ele>
        <time>2015-04-21T17:10:24Z</time>
      </trkpt>
      <trkpt lat="47.12541" lon="-1.4087">
        <ele>50.7</ele>
        <time>2015-04-21T17:10:28Z</time>
      </trkpt>
      <trkpt lat="47.12522" lon="-1.40866">
        <ele>50.8</ele>
        <time>2015-04-21T17:10:32Z</time>
      </trkpt>
      <trkpt lat="47.12503" lon="-1.40861">
        <ele>50.3</ele>
        <time>2015-04-21T17:10:36Z</time>
      </trkpt>
      <trkpt lat="47.12484" lon="-1.40856">
        <ele>49.6</ele>
        <time>2015-04-21T17:10:40Z</time>
      </trkpt>
      <trkpt lat="47.12465" lon="-1.4085">
        <ele>49.9</ele>
        <time>2015-04-21T17:10:44Z</time>
      </trkpt>
      <trkpt lat="47.12445" lon="-1.40839">
        <ele>50.1</ele>
        <time>2015-04-21T17:10:48Z</time>
      </trkpt>
      <trkpt lat="47.12429" lon="-1.40822">
        <ele>51.5</ele>
        <time>2015-04-21T17:10:52Z</time>
      </trkpt>
      <trkpt lat="47.12415" lon="-1.40802">
        <ele>51.7</ele>
        <time>2015-04-21T17:10:56Z</time>
      </trkpt>
      <trkpt lat="47.12402" lon="-1.40783">
        <ele>53.1</ele>
        <time>2015-04-21T17:11:00Z</time>
      </trkpt>
      <trkpt lat="47.12386" lon="-1.4076">
        <ele>53.5</ele>
        <time>2015-04-21T17:11:05Z</time>
      </trkpt>
      <trkpt lat="47.12371" lon="-1.40736">
        <ele>53.4</ele>
        <time>2015-04-21T17:11:10Z</time>
      </trkpt>
      <trkpt lat="47.12358" lon="-1.40718">
        <ele>52.8</ele>
        <time>2015-04-21T17:11:14Z</time>
      </trkpt>
      <trkpt lat="47.12341" lon="-1.40704">
        <ele>52.8</ele>
        <time>2015-04-21T17:11:18Z</time>
      </trkpt>
      <trkpt lat="47.12324" lon="-1.40693">
        <ele>52.5</ele>
        <time>2015-04-21T17:11:22Z</time>
      </trkpt>
      <trkpt lat="47.12305" lon="-1.40685">
        <ele>52.5</ele>
        <time>2015-04-21T17:11:26Z</time>
      </trkpt>
      <trkpt lat="47.12287" lon="-1.40672">
        <ele>52.4</ele>
        <time>2015-04-21T17:11:30Z</time>
      </trkpt>
      <trkpt lat="47.12273" lon="-1.40649">
        <ele>51.5</ele>
        <time>2015-04-21T17:11:34Z</time>
      </trkpt>
      <trkpt lat="47.12261" lon="-1.40622">
        <ele>50.6</ele>
        <time>2015-04-21T17:11:38Z</time>
      </trkpt>
      <trkpt lat="47.12251" lon="-1.40594">
        <ele>50</ele>
        <time>2015-04-21T17:11:42Z</time>
      </trkpt>
      <trkpt lat="47.12243" lon="-1.40566">
        <ele>49.4</ele>
        <time>2015-04-21T17:11:46Z</time>
      </trkpt>
      <trkpt lat="47.12236" lon="-1.40536">
        <ele>48.3</ele>
        <time>2015-04-21T17:11:50Z</time>
      </trkpt>
      <trkpt lat="47.12229" lon="-1.40507">
        <ele>47.8</ele>
        <time>2015-04-21T17:11:54Z</time>
      </trkpt>
      <trkpt lat="47.12223" lon="-1.40476">
        <ele>47.4</ele>
        <time>2015-04-21T17:11:58Z</time>
      </trkpt>
      <trkpt lat="47.12217" lon="-1.40446">
        <ele>46.9</ele>
        <time>2015-04-21T17:12:02Z</time>
      </trkpt>
      <trkpt lat="47.12211" lon="-1.40418">
        <ele>46.3</ele>
        <time>2015-04-21T17:12:06Z</time>
      </trkpt>
      <trkpt lat="47.12205" lon="-1.40389">
        <ele>45.6</ele>
        <time>2015-04-21T17:12:10Z</time>
      </trkpt>
      <trkpt lat="47.12195" lon="-1.40359">
        <ele>46.1</ele>
        <time>2015-04-21T17:12:14Z</time>
      </trkpt>
      <trkpt lat="47.12189" lon="-1.40331">
        <ele>47</ele>
        <time>2015-04-21T17:12:18Z</time>
      </trkpt>
      <trkpt lat="47.12194" lon="-1.40304">
        <ele>49.3</ele>
        <time>2015-04-21T17:12:24Z</time>
      </trkpt>
      <trkpt lat="47.12213" lon="-1.40292">
        <ele>50.7</ele>
        <time>2015-04-21T17:12:28Z</time>
      </trkpt>
      <trkpt lat="47.12232" lon="-1.40283">
        <ele>51.9</ele>
        <time>2015-04-21T17:12:32Z</time>
      </trkpt>
      <trkpt lat="47.12251" lon="-1.40272">
        <ele>51.6</ele>
        <time>2015-04-21T17:12:36Z</time>
      </trkpt>
      <trkpt lat="47.1227" lon="-1.40263">
        <ele>51</ele>
        <time>2015-04-21T17:12:40Z</time>
      </trkpt>
      <trkpt lat="47.12289" lon="-1.40252">
        <ele>51.2</ele>
        <time>2015-04-21T17:12:44Z</time>
      </trkpt>
      <trkpt lat="47.12308" lon="-1.40242">
        <ele>51.4</ele>
        <time>2015-04-21T17:12:48Z</time>
      </trkpt>
      <trkpt lat="47.12328" lon="-1.4023">
        <ele>53</ele>
        <time>2015-04-21T17:12:52Z</time>
      </trkpt>
      <trkpt lat="47.12345" lon="-1.40223">
        <ele>53.5</ele>
        <time>2015-04-21T17:12:55Z</time>
      </trkpt>
      <trkpt lat="47.12363" lon="-1.40216">
        <ele>53.8</ele>
        <time>2015-04-21T17:12:58Z</time>
      </trkpt>
      <trkpt lat="47.12382" lon="-1.40206">
        <ele>53.8</ele>
        <time>2015-04-21T17:13:01Z</time>
      </trkpt>
      <trkpt lat="47.12401" lon="-1.40198">
        <ele>53.6</ele>
        <time>2015-04-21T17:13:04Z</time>
      </trkpt>
      <trkpt lat="47.12421" lon="-1.40191">
        <ele>53</ele>
        <time>2015-04-21T17:13:07Z</time>
      </trkpt>
      <trkpt lat="47.12441" lon="-1.40182">
        <ele>52.5</ele>
        <time>2015-04-21T17:13:10Z</time>
      </trkpt>
      <trkpt lat="47.1246" lon="-1.40172">
        <ele>51.8</ele>
        <time>2015-04-21T17:13:13Z</time>
      </trkpt>
      <trkpt lat="47.12479" lon="-1.40163">
        <ele>51.8</ele>
        <time>2015-04-21T17:13:16Z</time>
      </trkpt>
      <trkpt lat="47.12499" lon="-1.40156">
        <ele>51.8</ele>
        <time>2015-04-21T17:13:19Z</time>
      </trkpt>
      <trkpt lat="47.1252" lon="-1.40152">
        <ele>51.4</ele>
        <time>2015-04-21T17:13:22Z</time>
      </trkpt>
      <trkpt lat="47.1254" lon="-1.40154">
        <ele>51</ele>
        <time>2015-04-21T17:13:25Z</time>
      </trkpt>
      <trkpt lat="47.1256" lon="-1.40158">
        <ele>50.5</ele>
        <time>2015-04-21T17:13:28Z</time>
      </trkpt>
      <trkpt lat="47.1258" lon="-1.40163">
        <ele>50.1</ele>
        <time>2015-04-21T17:13:31Z</time>
      </trkpt>
      <trkpt lat="47.126" lon="-1.40168">
        <ele>50</ele>
        <time>2015-04-21T17:13:34Z</time>
      </trkpt>
      <trkpt lat="47.1262" lon="-1.40168">
        <ele>49.3</ele>
        <time>2015-04-21T17:13:37Z</time>
      </trkpt>
      <trkpt lat="47.1264" lon="-1.40165">
        <ele>47.3</ele>
        <time>2015-04-21T17:13:40Z</time>
      </trkpt>
      <trkpt lat="47.12659" lon="-1.40162">
        <ele>46</ele>
        <time>2015-04-21T17:13:43Z</time>
      </trkpt>
      <trkpt lat="47.12678" lon="-1.40157">
        <ele>43.9</ele>
        <time>2015-04-21T17:13:46Z</time>
      </trkpt>
      <trkpt lat="47.12697" lon="-1.40148">
        <ele>42.8</ele>
        <time>2015-04-21T17:13:49Z</time>
      </trkpt>
      <trkpt lat="47.12715" lon="-1.40133">
        <ele>40.9</ele>
        <time>2015-04-21T17:13:52Z</time>
      </trkpt>
      <trkpt lat="47.12733" lon="-1.40116">
        <ele>40</ele>
        <time>2015-04-21T17:13:55Z</time>
      </trkpt>
      <trkpt lat="47.12748" lon="-1.40099">
        <ele>38.4</ele>
        <time>2015-04-21T17:13:58Z</time>
      </trkpt>
      <trkpt lat="47.12767" lon="-1.40078">
        <ele>37</ele>
        <time>2015-04-21T17:14:02Z</time>
      </trkpt>
      <trkpt lat="47.12783" lon="-1.40063">
        <ele>36.9</ele>
        <time>2015-04-21T17:14:05Z</time>
      </trkpt>
      <trkpt lat="47.12803" lon="-1.40043">
        <ele>36.3</ele>
        <time>2015-04-21T17:14:09Z</time>
      </trkpt>
      <trkpt lat="47.12818" lon="-1.40028">
        <ele>35.8</ele>
        <time>2015-04-21T17:14:12Z</time>
      </trkpt>
      <trkpt lat="47.12837" lon="-1.40009">
        <ele>36</ele>
        <time>2015-04-21T17:14:16Z</time>
      </trkpt>
      <trkpt lat="47.12855" lon="-1.39991">
        <ele>35.5</ele>
        <time>2015-04-21T17:14:20Z</time>
      </trkpt>
      <trkpt lat="47.12873" lon="-1.39974">
        <ele>35.3</ele>
        <time>2015-04-21T17:14:24Z</time>
      </trkpt>
      <trkpt lat="47.12893" lon="-1.3996">
        <ele>35</ele>
        <time>2015-04-21T17:14:28Z</time>
      </trkpt>
      <trkpt lat="47.12914" lon="-1.3995">
        <ele>34.6</ele>
        <time>2015-04-21T17:14:32Z</time>
      </trkpt>
      <trkpt lat="47.12934" lon="-1.3994">
        <ele>34.3</ele>
        <time>2015-04-21T17:14:36Z</time>
      </trkpt>
      <trkpt lat="47.12951" lon="-1.39934">
        <ele>34.6</ele>
        <time>2015-04-21T17:14:39Z</time>
      </trkpt>
      <trkpt lat="47.12971" lon="-1.39924">
        <ele>35.6</ele>
        <time>2015-04-21T17:14:43Z</time>
      </trkpt>
      <trkpt lat="47.12986" lon="-1.39909">
        <ele>36.5</ele>
        <time>2015-04-21T17:14:47Z</time>
      </trkpt>
      <trkpt lat="47.13003" lon="-1.39898">
        <ele>36.7</ele>
        <time>2015-04-21T17:14:52Z</time>
      </trkpt>
      <trkpt lat="47.13016" lon="-1.39918">
        <ele>37.4</ele>
        <time>2015-04-21T17:14:56Z</time>
      </trkpt>
      <trkpt lat="47.13029" lon="-1.39943">
        <ele>39.1</ele>
        <time>2015-04-21T17:15:00Z</time>
      </trkpt>
      <trkpt lat="47.13045" lon="-1.39964">
        <ele>40</ele>
        <time>2015-04-21T17:15:04Z</time>
      </trkpt>
      <trkpt lat="47.13065" lon="-1.39983">
        <ele>40.3</ele>
        <time>2015-04-21T17:15:08Z</time>
      </trkpt>
      <trkpt lat="47.13083" lon="-1.39992">
        <ele>40.3</ele>
        <time>2015-04-21T17:15:11Z</time>
      </trkpt>
      <trkpt lat="47.13105" lon="-1.40004">
        <ele>40.7</ele>
        <time>2015-04-21T17:15:15Z</time>
      </trkpt>
      <trkpt lat="47.13126" lon="-1.40015">
        <ele>41.3</ele>
        <time>2015-04-21T17:15:19Z</time>
      </trkpt>
      <trkpt lat="47.13147" lon="-1.40026">
        <ele>41.7</ele>
        <time>2015-04-21T17:15:23Z</time>
      </trkpt>
      <trkpt lat="47.13169" lon="-1.40037">
        <ele>42</ele>
        <time>2015-04-21T17:15:27Z</time>
      </trkpt>
      <trkpt lat="47.13186" lon="-1.40048">
        <ele>42.3</ele>
        <time>2015-04-21T17:15:30Z</time>
      </trkpt>
      <trkpt lat="47.13203" lon="-1.4006">
        <ele>42.3</ele>
        <time>2015-04-21T17:15:33Z</time>
      </trkpt>
      <trkpt lat="47.13219" lon="-1.40072">
        <ele>42.2</ele>
        <time>2015-04-21T17:15:36Z</time>
      </trkpt>
      <trkpt lat="47.1324" lon="-1.40089">
        <ele>41.7</ele>
        <time>2015-04-21T17:15:40Z</time>
      </trkpt>
      <trkpt lat="47.13261" lon="-1.40105">
        <ele>42.2</ele>
        <time>2015-04-21T17:15:44Z</time>
      </trkpt>
      <trkpt lat="47.13281" lon="-1.40121">
        <ele>42.2</ele>
        <time>2015-04-21T17:15:48Z</time>
      </trkpt>
      <trkpt lat="47.13301" lon="-1.40137">
        <ele>42.6</ele>
        <time>2015-04-21T17:15:52Z</time>
      </trkpt>
      <trkpt lat="47.1332" lon="-1.40152">
        <ele>43</ele>
        <time>2015-04-21T17:15:56Z</time>
      </trkpt>
      <trkpt lat="47.1334" lon="-1.40167">
        <ele>43.7</ele>
        <time>2015-04-21T17:16:00Z</time>
      </trkpt>
      <trkpt lat="47.13361" lon="-1.40177">
        <ele>44</ele>
        <time>2015-04-21T17:16:04Z</time>
      </trkpt>
      <trkpt lat="47.13383" lon="-1.40181">
        <ele>44.2</ele>
        <time>2015-04-21T17:16:08Z</time>
      </trkpt>
      <trkpt lat="47.13404" lon="-1.40183">
        <ele>44.5</ele>
        <time>2015-04-21T17:16:12Z</time>
      </trkpt>
      <trkpt lat="47.13425" lon="-1.40185">
        <ele>45.2</ele>
        <time>2015-04-21T17:16:16Z</time>
      </trkpt>
      <trkpt lat="47.13445" lon="-1.4019">
        <ele>46</ele>
        <time>2015-04-21T17:16:20Z</time>
      </trkpt>
      <trkpt lat="47.13466" lon="-1.402">
        <ele>47.3</ele>
        <time>2015-04-21T17:16:24Z</time>
      </trkpt>
      <trkpt lat="47.13487" lon="-1.40209">
        <ele>47.3</ele>
        <time>2015-04-21T17:16:28Z</time>
      </trkpt>
      <trkpt lat="47.13508" lon="-1.40217">
        <ele>45.9</ele>
        <time>2015-04-21T17:16:32Z</time>
      </trkpt>
      <trkpt lat="47.13528" lon="-1.40226">
        <ele>45.2</ele>
        <time>2015-04-21T17:16:36Z</time>
      </trkpt>
      <trkpt lat="47.1355" lon="-1.40236">
        <ele>44.8</ele>
        <time>2015-04-21T17:16:40Z</time>
      </trkpt>
      <trkpt lat="47.1357" lon="-1.40245">
        <ele>45</ele>
        <time>2015-04-21T17:16:44Z</time>
      </trkpt>
      <trkpt lat="47.13591" lon="-1.40254">
        <ele>44.8</ele>
        <time>2015-04-21T17:16:48Z</time>
      </trkpt>
      <trkpt lat="47.13612" lon="-1.40264">
        <ele>44.5</ele>
        <time>2015-04-21T17:16:52Z</time>
      </trkpt>
      <trkpt lat="47.13633" lon="-1.40273">
        <ele>44.5</ele>
        <time>2015-04-21T17:16:56Z</time>
      </trkpt>
      <trkpt lat="47.13653" lon="-1.4028">
        <ele>44.7</ele>
        <time>2015-04-21T17:17:00Z</time>
      </trkpt>
      <trkpt lat="47.13675" lon="-1.40282">
        <ele>43.2</ele>
        <time>2015-04-21T17:17:04Z</time>
      </trkpt>
      <trkpt lat="47.13697" lon="-1.40281">
        <ele>41.8</ele>
        <time>2015-04-21T17:17:08Z</time>
      </trkpt>
      <trkpt lat="47.13717" lon="-1.40278">
        <ele>42</ele>
        <time>2015-04-21T17:17:12Z</time>
      </trkpt>
      <trkpt lat="47.13736" lon="-1.40274">
        <ele>42.5</ele>
        <time>2015-04-21T17:17:16Z</time>
      </trkpt>
      <trkpt lat="47.13759" lon="-1.40271">
        <ele>41.9</ele>
        <time>2015-04-21T17:17:20Z</time>
      </trkpt>
      <trkpt lat="47.1378" lon="-1.40268">
        <ele>42.1</ele>
        <time>2015-04-21T17:17:24Z</time>
      </trkpt>
      <trkpt lat="47.13801" lon="-1.40265">
        <ele>42.2</ele>
        <time>2015-04-21T17:17:28Z</time>
      </trkpt>
      <trkpt lat="47.13822" lon="-1.40259">
        <ele>42</ele>
        <time>2015-04-21T17:17:32Z</time>
      </trkpt>
      <trkpt lat="47.13843" lon="-1.40255">
        <ele>43.1</ele>
        <time>2015-04-21T17:17:36Z</time>
      </trkpt>
      <trkpt lat="47.13865" lon="-1.40251">
        <ele>43.7</ele>
        <time>2015-04-21T17:17:40Z</time>
      </trkpt>
      <trkpt lat="47.13888" lon="-1.40247">
        <ele>43.4</ele>
        <time>2015-04-21T17:17:44Z</time>
      </trkpt>
      <trkpt lat="47.13912" lon="-1.40247">
        <ele>42.8</ele>
        <time>2015-04-21T17:17:48Z</time>
      </trkpt>
      <trkpt lat="47.13932" lon="-1.40252">
        <ele>44</ele>
        <time>2015-04-21T17:17:52Z</time>
      </trkpt>
      <trkpt lat="47.13953" lon="-1.4026">
        <ele>43.9</ele>
        <time>2015-04-21T17:17:56Z</time>
      </trkpt>
      <trkpt lat="47.13974" lon="-1.40269">
        <ele>44.1</ele>
        <time>2015-04-21T17:18:00Z</time>
      </trkpt>
      <trkpt lat="47.13994" lon="-1.40283">
        <ele>44.6</ele>
        <time>2015-04-21T17:18:04Z</time>
      </trkpt>
      <trkpt lat="47.14012" lon="-1.40301">
        <ele>43.7</ele>
        <time>2015-04-21T17:18:08Z</time>
      </trkpt>
      <trkpt lat="47.14027" lon="-1.40324">
        <ele>43.5</ele>
        <time>2015-04-21T17:18:12Z</time>
      </trkpt>
      <trkpt lat="47.1404" lon="-1.40351">
        <ele>43.4</ele>
        <time>2015-04-21T17:18:16Z</time>
      </trkpt>
      <trkpt lat="47.1405" lon="-1.40379">
        <ele>43.8</ele>
        <time>2015-04-21T17:18:20Z</time>
      </trkpt>
      <trkpt lat="47.1406" lon="-1.40409">
        <ele>42.9</ele>
        <time>2015-04-21T17:18:24Z</time>
      </trkpt>
      <trkpt lat="47.14071" lon="-1.4044">
        <ele>42.1</ele>
        <time>2015-04-21T17:18:28Z</time>
      </trkpt>
      <trkpt lat="47.14085" lon="-1.40468">
        <ele>40.8</ele>
        <time>2015-04-21T17:18:32Z</time>
      </trkpt>
      <trkpt lat="47.14098" lon="-1.40487">
        <ele>40.2</ele>
        <time>2015-04-21T17:18:35Z</time>
      </trkpt>
      <trkpt lat="47.14112" lon="-1.40508">
        <ele>39.7</ele>
        <time>2015-04-21T17:18:38Z</time>
      </trkpt>
      <trkpt lat="47.14127" lon="-1.40528">
        <ele>38.9</ele>
        <time>2015-04-21T17:18:41Z</time>
      </trkpt>
      <trkpt lat="47.14141" lon="-1.40549">
        <ele>38.4</ele>
        <time>2015-04-21T17:18:44Z</time>
      </trkpt>
      <trkpt lat="47.14155" lon="-1.4057">
        <ele>38.2</ele>
        <time>2015-04-21T17:18:47Z</time>
      </trkpt>
      <trkpt lat="47.14169" lon="-1.4059">
        <ele>37.7</ele>
        <time>2015-04-21T17:18:50Z</time>
      </trkpt>
      <trkpt lat="47.14184" lon="-1.40611">
        <ele>37.3</ele>
        <time>2015-04-21T17:18:53Z</time>
      </trkpt>
      <trkpt lat="47.14198" lon="-1.40631">
        <ele>37.1</ele>
        <time>2015-04-21T17:18:56Z</time>
      </trkpt>
      <trkpt lat="47.14213" lon="-1.40652">
        <ele>37.1</ele>
        <time>2015-04-21T17:18:59Z</time>
      </trkpt>
      <trkpt lat="47.14227" lon="-1.40673">
        <ele>37.1</ele>
        <time>2015-04-21T17:19:02Z</time>
      </trkpt>
      <trkpt lat="47.14242" lon="-1.40695">
        <ele>36.5</ele>
        <time>2015-04-21T17:19:05Z</time>
      </trkpt>
      <trkpt lat="47.14256" lon="-1.40719">
        <ele>36.3</ele>
        <time>2015-04-21T17:19:08Z</time>
      </trkpt>
      <trkpt lat="47.1427" lon="-1.40744">
        <ele>35.9</ele>
        <time>2015-04-21T17:19:11Z</time>
      </trkpt>
      <trkpt lat="47.14283" lon="-1.40769">
        <ele>35.4</ele>
        <time>2015-04-21T17:19:14Z</time>
      </trkpt>
      <trkpt lat="47.14298" lon="-1.40792">
        <ele>35.1</ele>
        <time>2015-04-21T17:19:17Z</time>
      </trkpt>
      <trkpt lat="47.14311" lon="-1.40816">
        <ele>35.4</ele>
        <time>2015-04-21T17:19:20Z</time>
      </trkpt>
      <trkpt lat="47.14324" lon="-1.4084">
        <ele>35.9</ele>
        <time>2015-04-21T17:19:23Z</time>
      </trkpt>
      <trkpt lat="47.14337" lon="-1.40864">
        <ele>35.8</ele>
        <time>2015-04-21T17:19:26Z</time>
      </trkpt>
      <trkpt lat="47.14349" lon="-1.40886">
        <ele>35.9</ele>
        <time>2015-04-21T17:19:29Z</time>
      </trkpt>
      <trkpt lat="47.14361" lon="-1.40906">
        <ele>36.6</ele>
        <time>2015-04-21T17:19:32Z</time>
      </trkpt>
      <trkpt lat="47.14375" lon="-1.40933">
        <ele>38</ele>
        <time>2015-04-21T17:19:36Z</time>
      </trkpt>
      <trkpt lat="47.14388" lon="-1.40955">
        <ele>39.1</ele>
        <time>2015-04-21T17:19:39Z</time>
      </trkpt>
      <trkpt lat="47.144" lon="-1.40979">
        <ele>40.1</ele>
        <time>2015-04-21T17:19:42Z</time>
      </trkpt>
      <trkpt lat="47.14409" lon="-1.41006">
        <ele>41.3</ele>
        <time>2015-04-21T17:19:45Z</time>
      </trkpt>
      <trkpt lat="47.14413" lon="-1.41034">
        <ele>42.2</ele>
        <time>2015-04-21T17:19:48Z</time>
      </trkpt>
      <trkpt lat="47.14412" lon="-1.41063">
        <ele>41.4</ele>
        <time>2015-04-21T17:19:51Z</time>
      </trkpt>
      <trkpt lat="47.14411" lon="-1.41091">
        <ele>41.7</ele>
        <time>2015-04-21T17:19:54Z</time>
      </trkpt>
      <trkpt lat="47.14409" lon="-1.41118">
        <ele>41.7</ele>
        <time>2015-04-21T17:19:57Z</time>
      </trkpt>
      <trkpt lat="47.14408" lon="-1.41145">
        <ele>41.6</ele>
        <time>2015-04-21T17:20:00Z</time>
      </trkpt>
      <trkpt lat="47.14407" lon="-1.41172">
        <ele>41.4</ele>
        <time>2015-04-21T17:20:03Z</time>
      </trkpt>
      <trkpt lat="47.14406" lon="-1.412">
        <ele>41.4</ele>
        <time>2015-04-21T17:20:06Z</time>
      </trkpt>
      <trkpt lat="47.14403" lon="-1.41227">
        <ele>41.5</ele>
        <time>2015-04-21T17:20:09Z</time>
      </trkpt>
      <trkpt lat="47.14401" lon="-1.41262">
        <ele>41.7</ele>
        <time>2015-04-21T17:20:13Z</time>
      </trkpt>
      <trkpt lat="47.14399" lon="-1.41297">
        <ele>41.4</ele>
        <time>2015-04-21T17:20:17Z</time>
      </trkpt>
      <trkpt lat="47.14398" lon="-1.41332">
        <ele>41.3</ele>
        <time>2015-04-21T17:20:21Z</time>
      </trkpt>
      <trkpt lat="47.144" lon="-1.41366">
        <ele>41</ele>
        <time>2015-04-21T17:20:25Z</time>
      </trkpt>
      <trkpt lat="47.14401" lon="-1.414">
        <ele>40.6</ele>
        <time>2015-04-21T17:20:29Z</time>
      </trkpt>
      <trkpt lat="47.14402" lon="-1.41427">
        <ele>41.1</ele>
        <time>2015-04-21T17:20:32Z</time>
      </trkpt>
      <trkpt lat="47.144" lon="-1.4146">
        <ele>41.5</ele>
        <time>2015-04-21T17:20:36Z</time>
      </trkpt>
      <trkpt lat="47.14402" lon="-1.41495">
        <ele>41.3</ele>
        <time>2015-04-21T17:20:40Z</time>
      </trkpt>
      <trkpt lat="47.14403" lon="-1.41528">
        <ele>41.9</ele>
        <time>2015-04-21T17:20:44Z</time>
      </trkpt>
      <trkpt lat="47.14404" lon="-1.41561">
        <ele>43</ele>
        <time>2015-04-21T17:20:48Z</time>
      </trkpt>
      <trkpt lat="47.14403" lon="-1.41588">
        <ele>43.1</ele>
        <time>2015-04-21T17:20:51Z</time>
      </trkpt>
      <trkpt lat="47.14395" lon="-1.41617">
        <ele>44.5</ele>
        <time>2015-04-21T17:20:55Z</time>
      </trkpt>
      <trkpt lat="47.14387" lon="-1.41645">
        <ele>45</ele>
        <time>2015-04-21T17:20:59Z</time>
      </trkpt>
      <trkpt lat="47.14387" lon="-1.41673">
        <ele>43.7</ele>
        <time>2015-04-21T17:21:02Z</time>
      </trkpt>
      <trkpt lat="47.14393" lon="-1.417">
        <ele>43.6</ele>
        <time>2015-04-21T17:21:05Z</time>
      </trkpt>
      <trkpt lat="47.14401" lon="-1.41729">
        <ele>43.4</ele>
        <time>2015-04-21T17:21:08Z</time>
      </trkpt>
      <trkpt lat="47.14408" lon="-1.41761">
        <ele>43.1</ele>
        <time>2015-04-21T17:21:11Z</time>
      </trkpt>
      <trkpt lat="47.14407" lon="-1.41797">
        <ele>42.2</ele>
        <time>2015-04-21T17:21:14Z</time>
      </trkpt>
      <trkpt lat="47.14409" lon="-1.41833">
        <ele>41.2</ele>
        <time>2015-04-21T17:21:17Z</time>
      </trkpt>
      <trkpt lat="47.14415" lon="-1.41869">
        <ele>40.5</ele>
        <time>2015-04-21T17:21:20Z</time>
      </trkpt>
      <trkpt lat="47.14424" lon="-1.41903">
        <ele>39</ele>
        <time>2015-04-21T17:21:23Z</time>
      </trkpt>
      <trkpt lat="47.14433" lon="-1.41938">
        <ele>37.9</ele>
        <time>2015-04-21T17:21:26Z</time>
      </trkpt>
      <trkpt lat="47.1444" lon="-1.41975">
        <ele>35.9</ele>
        <time>2015-04-21T17:21:29Z</time>
      </trkpt>
      <trkpt lat="47.14446" lon="-1.42001">
        <ele>34.5</ele>
        <time>2015-04-21T17:21:31Z</time>
      </trkpt>
      <trkpt lat="47.14453" lon="-1.42028">
        <ele>32.7</ele>
        <time>2015-04-21T17:21:33Z</time>
      </trkpt>
      <trkpt lat="47.1446" lon="-1.42052">
        <ele>30.8</ele>
        <time>2015-04-21T17:21:35Z</time>
      </trkpt>
      <trkpt lat="47.1447" lon="-1.42075">
        <ele>29.3</ele>
        <time>2015-04-21T17:21:37Z</time>
      </trkpt>
      <trkpt lat="47.14481" lon="-1.42099">
        <ele>27.9</ele>
        <time>2015-04-21T17:21:39Z</time>
      </trkpt>
      <trkpt lat="47.14492" lon="-1.42123">
        <ele>27.1</ele>
        <time>2015-04-21T17:21:41Z</time>
      </trkpt>
      <trkpt lat="47.14502" lon="-1.42146">
        <ele>26.5</ele>
        <time>2015-04-21T17:21:43Z</time>
      </trkpt>
      <trkpt lat="47.14512" lon="-1.42171">
        <ele>24.6</ele>
        <time>2015-04-21T17:21:45Z</time>
      </trkpt>
      <trkpt lat="47.14521" lon="-1.42196">
        <ele>23.8</ele>
        <time>2015-04-21T17:21:47Z</time>
      </trkpt>
      <trkpt lat="47.1453" lon="-1.42221">
        <ele>23.6</ele>
        <time>2015-04-21T17:21:49Z</time>
      </trkpt>
      <trkpt lat="47.14538" lon="-1.42244">
        <ele>22.5</ele>
        <time>2015-04-21T17:21:51Z</time>
      </trkpt>
      <trkpt lat="47.14551" lon="-1.42276">
        <ele>21.3</ele>
        <time>2015-04-21T17:21:54Z</time>
      </trkpt>
      <trkpt lat="47.14564" lon="-1.42301">
        <ele>22</ele>
        <time>2015-04-21T17:21:57Z</time>
      </trkpt>
      <trkpt lat="47.1458" lon="-1.42322">
        <ele>23</ele>
        <time>2015-04-21T17:22:00Z</time>
      </trkpt>
      <trkpt lat="47.14595" lon="-1.4234">
        <ele>24.4</ele>
        <time>2015-04-21T17:22:03Z</time>
      </trkpt>
      <trkpt lat="47.1461" lon="-1.42354">
        <ele>24.4</ele>
        <time>2015-04-21T17:22:06Z</time>
      </trkpt>
      <trkpt lat="47.14629" lon="-1.42373">
        <ele>25.4</ele>
        <time>2015-04-21T17:22:10Z</time>
      </trkpt>
      <trkpt lat="47.14646" lon="-1.4239">
        <ele>26.4</ele>
        <time>2015-04-21T17:22:14Z</time>
      </trkpt>
      <trkpt lat="47.14663" lon="-1.42407">
        <ele>27.5</ele>
        <time>2015-04-21T17:22:18Z</time>
      </trkpt>
      <trkpt lat="47.14679" lon="-1.42424">
        <ele>28.7</ele>
        <time>2015-04-21T17:22:22Z</time>
      </trkpt>
      <trkpt lat="47.14696" lon="-1.42439">
        <ele>28.6</ele>
        <time>2015-04-21T17:22:26Z</time>
      </trkpt>
      <trkpt lat="47.14711" lon="-1.42455">
        <ele>30.7</ele>
        <time>2015-04-21T17:22:30Z</time>
      </trkpt>
      <trkpt lat="47.14726" lon="-1.4247">
        <ele>30.5</ele>
        <time>2015-04-21T17:22:34Z</time>
      </trkpt>
      <trkpt lat="47.14742" lon="-1.42485">
        <ele>30.9</ele>
        <time>2015-04-21T17:22:38Z</time>
      </trkpt>
      <trkpt lat="47.14761" lon="-1.42503">
        <ele>32.8</ele>
        <time>2015-04-21T17:22:43Z</time>
      </trkpt>
      <trkpt lat="47.14776" lon="-1.42518">
        <ele>31.4</ele>
        <time>2015-04-21T17:22:47Z</time>
      </trkpt>
      <trkpt lat="47.14791" lon="-1.42534">
        <ele>31.5</ele>
        <time>2015-04-21T17:22:51Z</time>
      </trkpt>
      <trkpt lat="47.14806" lon="-1.42551">
        <ele>32.6</ele>
        <time>2015-04-21T17:22:55Z</time>
      </trkpt>
      <trkpt lat="47.14821" lon="-1.4257">
        <ele>33.7</ele>
        <time>2015-04-21T17:22:59Z</time>
      </trkpt>
      <trkpt lat="47.14837" lon="-1.42592">
        <ele>32.1</ele>
        <time>2015-04-21T17:23:03Z</time>
      </trkpt>
      <trkpt lat="47.14854" lon="-1.42615">
        <ele>29.2</ele>
        <time>2015-04-21T17:23:07Z</time>
      </trkpt>
      <trkpt lat="47.14871" lon="-1.42638">
        <ele>28.6</ele>
        <time>2015-04-21T17:23:11Z</time>
      </trkpt>
      <trkpt lat="47.14888" lon="-1.42662">
        <ele>29.5</ele>
        <time>2015-04-21T17:23:15Z</time>
      </trkpt>
      <trkpt lat="47.14902" lon="-1.42682">
        <ele>29.2</ele>
        <time>2015-04-21T17:23:18Z</time>
      </trkpt>
      <trkpt lat="47.14916" lon="-1.42704">
        <ele>29.4</ele>
        <time>2015-04-21T17:23:21Z</time>
      </trkpt>
      <trkpt lat="47.14932" lon="-1.42728">
        <ele>30</ele>
        <time>2015-04-21T17:23:24Z</time>
      </trkpt>
      <trkpt lat="47.14946" lon="-1.4275">
        <ele>31.1</ele>
        <time>2015-04-21T17:23:27Z</time>
      </trkpt>
      <trkpt lat="47.14961" lon="-1.42773">
        <ele>31.2</ele>
        <time>2015-04-21T17:23:30Z</time>
      </trkpt>
      <trkpt lat="47.14975" lon="-1.42796">
        <ele>32.1</ele>
        <time>2015-04-21T17:23:33Z</time>
      </trkpt>
      <trkpt lat="47.1499" lon="-1.42819">
        <ele>32.8</ele>
        <time>2015-04-21T17:23:36Z</time>
      </trkpt>
      <trkpt lat="47.15005" lon="-1.4284">
        <ele>34.3</ele>
        <time>2015-04-21T17:23:39Z</time>
      </trkpt>
      <trkpt lat="47.15022" lon="-1.42857">
        <ele>35.8</ele>
        <time>2015-04-21T17:23:42Z</time>
      </trkpt>
      <trkpt lat="47.1504" lon="-1.42867">
        <ele>36.3</ele>
        <time>2015-04-21T17:23:45Z</time>
      </trkpt>
      <trkpt lat="47.15059" lon="-1.42872">
        <ele>36.8</ele>
        <time>2015-04-21T17:23:48Z</time>
      </trkpt>
      <trkpt lat="47.15079" lon="-1.42878">
        <ele>36.8</ele>
        <time>2015-04-21T17:23:51Z</time>
      </trkpt>
      <trkpt lat="47.15098" lon="-1.42884">
        <ele>36.4</ele>
        <time>2015-04-21T17:23:54Z</time>
      </trkpt>
      <trkpt lat="47.15117" lon="-1.42891">
        <ele>35</ele>
        <time>2015-04-21T17:23:57Z</time>
      </trkpt>
      <trkpt lat="47.15136" lon="-1.42901">
        <ele>33</ele>
        <time>2015-04-21T17:24:00Z</time>
      </trkpt>
      <trkpt lat="47.15153" lon="-1.42911">
        <ele>31.3</ele>
        <time>2015-04-21T17:24:03Z</time>
      </trkpt>
      <trkpt lat="47.15171" lon="-1.42921">
        <ele>30.3</ele>
        <time>2015-04-21T17:24:06Z</time>
      </trkpt>
      <trkpt lat="47.15189" lon="-1.42936">
        <ele>28.9</ele>
        <time>2015-04-21T17:24:09Z</time>
      </trkpt>
      <trkpt lat="47.15204" lon="-1.42955">
        <ele>27.7</ele>
        <time>2015-04-21T17:24:12Z</time>
      </trkpt>
      <trkpt lat="47.15216" lon="-1.42977">
        <ele>28.5</ele>
        <time>2015-04-21T17:24:15Z</time>
      </trkpt>
      <trkpt lat="47.1523" lon="-1.43004">
        <ele>27.9</ele>
        <time>2015-04-21T17:24:18Z</time>
      </trkpt>
      <trkpt lat="47.15242" lon="-1.43034">
        <ele>27.4</ele>
        <time>2015-04-21T17:24:21Z</time>
      </trkpt>
      <trkpt lat="47.15252" lon="-1.43066">
        <ele>27.3</ele>
        <time>2015-04-21T17:24:24Z</time>
      </trkpt>
      <trkpt lat="47.15256" lon="-1.43104">
        <ele>25.8</ele>
        <time>2015-04-21T17:24:27Z</time>
      </trkpt>
      <trkpt lat="47.15255" lon="-1.43143">
        <ele>23.5</ele>
        <time>2015-04-21T17:24:30Z</time>
      </trkpt>
      <trkpt lat="47.15254" lon="-1.43182">
        <ele>22.6</ele>
        <time>2015-04-21T17:24:33Z</time>
      </trkpt>
      <trkpt lat="47.15253" lon="-1.43221">
        <ele>22</ele>
        <time>2015-04-21T17:24:36Z</time>
      </trkpt>
      <trkpt lat="47.15252" lon="-1.43247">
        <ele>21.1</ele>
        <time>2015-04-21T17:24:38Z</time>
      </trkpt>
      <trkpt lat="47.15251" lon="-1.43283">
        <ele>19.3</ele>
        <time>2015-04-21T17:24:41Z</time>
      </trkpt>
      <trkpt lat="47.15251" lon="-1.43318">
        <ele>18.6</ele>
        <time>2015-04-21T17:24:44Z</time>
      </trkpt>
      <trkpt lat="47.15249" lon="-1.43351">
        <ele>17.7</ele>
        <time>2015-04-21T17:24:47Z</time>
      </trkpt>
      <trkpt lat="47.1525" lon="-1.43382">
        <ele>16.6</ele>
        <time>2015-04-21T17:24:50Z</time>
      </trkpt>
      <trkpt lat="47.15253" lon="-1.43412">
        <ele>15.9</ele>
        <time>2015-04-21T17:24:53Z</time>
      </trkpt>
      <trkpt lat="47.15258" lon="-1.43443">
        <ele>15</ele>
        <time>2015-04-21T17:24:56Z</time>
      </trkpt>
      <trkpt lat="47.1526" lon="-1.43477">
        <ele>13.6</ele>
        <time>2015-04-21T17:24:59Z</time>
      </trkpt>
      <trkpt lat="47.15261" lon="-1.43506">
        <ele>12.9</ele>
        <time>2015-04-21T17:25:02Z</time>
      </trkpt>
      <trkpt lat="47.15265" lon="-1.43536">
        <ele>12</ele>
        <time>2015-04-21T17:25:05Z</time>
      </trkpt>
      <trkpt lat="47.15264" lon="-1.43566">
        <ele>11.5</ele>
        <time>2015-04-21T17:25:08Z</time>
      </trkpt>
      <trkpt lat="47.15265" lon="-1.43598">
        <ele>11</ele>
        <time>2015-04-21T17:25:11Z</time>
      </trkpt>
      <trkpt lat="47.15266" lon="-1.43629">
        <ele>10.3</ele>
        <time>2015-04-21T17:25:14Z</time>
      </trkpt>
      <trkpt lat="47.15268" lon="-1.43658">
        <ele>9.8</ele>
        <time>2015-04-21T17:25:17Z</time>
      </trkpt>
      <trkpt lat="47.15271" lon="-1.43687">
        <ele>8.8</ele>
        <time>2015-04-21T17:25:20Z</time>
      </trkpt>
      <trkpt lat="47.15271" lon="-1.43719">
        <ele>8.5</ele>
        <time>2015-04-21T17:25:23Z</time>
      </trkpt>
      <trkpt lat="47.15273" lon="-1.4375">
        <ele>8</ele>
        <time>2015-04-21T17:25:26Z</time>
      </trkpt>
      <trkpt lat="47.15276" lon="-1.43783">
        <ele>7.8</ele>
        <time>2015-04-21T17:25:29Z</time>
      </trkpt>
      <trkpt lat="47.15282" lon="-1.43819">
        <ele>7.2</ele>
        <time>2015-04-21T17:25:32Z</time>
      </trkpt>
      <trkpt lat="47.15287" lon="-1.43846">
        <ele>6.8</ele>
        <time>2015-04-21T17:25:35Z</time>
      </trkpt>
      <trkpt lat="47.15298" lon="-1.43872">
        <ele>6.2</ele>
        <time>2015-04-21T17:25:38Z</time>
      </trkpt>
      <trkpt lat="47.15309" lon="-1.43897">
        <ele>5.5</ele>
        <time>2015-04-21T17:25:41Z</time>
      </trkpt>
      <trkpt lat="47.15318" lon="-1.43923">
        <ele>5.5</ele>
        <time>2015-04-21T17:25:44Z</time>
      </trkpt>
      <trkpt lat="47.15331" lon="-1.43945">
        <ele>6</ele>
        <time>2015-04-21T17:25:47Z</time>
      </trkpt>
      <trkpt lat="47.15339" lon="-1.4397">
        <ele>8.2</ele>
        <time>2015-04-21T17:25:50Z</time>
      </trkpt>
      <trkpt lat="47.15351" lon="-1.43994">
        <ele>9.4</ele>
        <time>2015-04-21T17:25:53Z</time>
      </trkpt>
      <trkpt lat="47.15364" lon="-1.44014">
        <ele>8.4</ele>
        <time>2015-04-21T17:25:56Z</time>
      </trkpt>
      <trkpt lat="47.15377" lon="-1.44036">
        <ele>7.2</ele>
        <time>2015-04-21T17:25:59Z</time>
      </trkpt>
      <trkpt lat="47.15384" lon="-1.44062">
        <ele>7</ele>
        <time>2015-04-21T17:26:02Z</time>
      </trkpt>
      <trkpt lat="47.15386" lon="-1.4409">
        <ele>7</ele>
        <time>2015-04-21T17:26:05Z</time>
      </trkpt>
      <trkpt lat="47.1538" lon="-1.44117">
        <ele>7.2</ele>
        <time>2015-04-21T17:26:08Z</time>
      </trkpt>
      <trkpt lat="47.15375" lon="-1.44144">
        <ele>7.4</ele>
        <time>2015-04-21T17:26:11Z</time>
      </trkpt>
      <trkpt lat="47.15372" lon="-1.44171">
        <ele>7.8</ele>
        <time>2015-04-21T17:26:14Z</time>
      </trkpt>
      <trkpt lat="47.1537" lon="-1.442">
        <ele>7.7</ele>
        <time>2015-04-21T17:26:17Z</time>
      </trkpt>
      <trkpt lat="47.15371" lon="-1.44229">
        <ele>7.6</ele>
        <time>2015-04-21T17:26:20Z</time>
      </trkpt>
      <trkpt lat="47.15377" lon="-1.44263">
        <ele>7.7</ele>
        <time>2015-04-21T17:26:24Z</time>
      </trkpt>
      <trkpt lat="47.15385" lon="-1.44288">
        <ele>7.5</ele>
        <time>2015-04-21T17:26:27Z</time>
      </trkpt>
      <trkpt lat="47.15394" lon="-1.44314">
        <ele>7.1</ele>
        <time>2015-04-21T17:26:30Z</time>
      </trkpt>
      <trkpt lat="47.15404" lon="-1.44343">
        <ele>7</ele>
        <time>2015-04-21T17:26:33Z</time>
      </trkpt>
      <trkpt lat="47.15417" lon="-1.44364">
        <ele>6.4</ele>
        <time>2015-04-21T17:26:36Z</time>
      </trkpt>
      <trkpt lat="47.1543" lon="-1.44381">
        <ele>7</ele>
        <time>2015-04-21T17:26:39Z</time>
      </trkpt>
      <trkpt lat="47.1545" lon="-1.44399">
        <ele>8</ele>
        <time>2015-04-21T17:26:43Z</time>
      </trkpt>
      <trkpt lat="47.1547" lon="-1.44409">
        <ele>8.9</ele>
        <time>2015-04-21T17:26:47Z</time>
      </trkpt>
      <trkpt lat="47.15491" lon="-1.44415">
        <ele>10</ele>
        <time>2015-04-21T17:26:51Z</time>
      </trkpt>
      <trkpt lat="47.15511" lon="-1.44419">
        <ele>11.2</ele>
        <time>2015-04-21T17:26:55Z</time>
      </trkpt>
      <trkpt lat="47.15531" lon="-1.44423">
        <ele>12.4</ele>
        <time>2015-04-21T17:26:59Z</time>
      </trkpt>
      <trkpt lat="47.15553" lon="-1.44423">
        <ele>15.4</ele>
        <time>2015-04-21T17:27:04Z</time>
      </trkpt>
      <trkpt lat="47.15575" lon="-1.44421">
        <ele>20</ele>
        <time>2015-04-21T17:27:09Z</time>
      </trkpt>
      <trkpt lat="47.15594" lon="-1.44414">
        <ele>22.6</ele>
        <time>2015-04-21T17:27:13Z</time>
      </trkpt>
      <trkpt lat="47.15612" lon="-1.44408">
        <ele>26</ele>
        <time>2015-04-21T17:27:17Z</time>
      </trkpt>
      <trkpt lat="47.15633" lon="-1.44404">
        <ele>29.7</ele>
        <time>2015-04-21T17:27:22Z</time>
      </trkpt>
      <trkpt lat="47.15654" lon="-1.44398">
        <ele>34.6</ele>
        <time>2015-04-21T17:27:27Z</time>
      </trkpt>
      <trkpt lat="47.15673" lon="-1.44391">
        <ele>39.6</ele>
        <time>2015-04-21T17:27:32Z</time>
      </trkpt>
      <trkpt lat="47.15691" lon="-1.4438">
        <ele>42.3</ele>
        <time>2015-04-21T17:27:38Z</time>
      </trkpt>
      <trkpt lat="47.15708" lon="-1.44371">
        <ele>44.7</ele>
        <time>2015-04-21T17:27:44Z</time>
      </trkpt>
      <trkpt lat="47.15728" lon="-1.44363">
        <ele>47.1</ele>
        <time>2015-04-21T17:27:51Z</time>
      </trkpt>
      <trkpt lat="47.15746" lon="-1.44354">
        <ele>49.9</ele>
        <time>2015-04-21T17:27:55Z</time>
      </trkpt>
      <trkpt lat="47.15768" lon="-1.44349">
        <ele>50.4</ele>
        <time>2015-04-21T17:27:59Z</time>
      </trkpt>
      <trkpt lat="47.15789" lon="-1.44346">
        <ele>47</ele>
        <time>2015-04-21T17:28:02Z</time>
      </trkpt>
      <trkpt lat="47.15808" lon="-1.44356">
        <ele>43.3</ele>
        <time>2015-04-21T17:28:05Z</time>
      </trkpt>
      <trkpt lat="47.15824" lon="-1.44378">
        <ele>39.8</ele>
        <time>2015-04-21T17:28:09Z</time>
      </trkpt>
      <trkpt lat="47.15838" lon="-1.44404">
        <ele>36.5</ele>
        <time>2015-04-21T17:28:13Z</time>
      </trkpt>
      <trkpt lat="47.15849" lon="-1.4443">
        <ele>35.4</ele>
        <time>2015-04-21T17:28:17Z</time>
      </trkpt>
      <trkpt lat="47.15862" lon="-1.44456">
        <ele>33.3</ele>
        <time>2015-04-21T17:28:21Z</time>
      </trkpt>
      <trkpt lat="47.15873" lon="-1.4448">
        <ele>31.9</ele>
        <time>2015-04-21T17:28:25Z</time>
      </trkpt>
      <trkpt lat="47.15883" lon="-1.44502">
        <ele>31</ele>
        <time>2015-04-21T17:28:29Z</time>
      </trkpt>
      <trkpt lat="47.15895" lon="-1.4453">
        <ele>31.5</ele>
        <time>2015-04-21T17:28:34Z</time>
      </trkpt>
      <trkpt lat="47.15905" lon="-1.44554">
        <ele>31.1</ele>
        <time>2015-04-21T17:28:38Z</time>
      </trkpt>
      <trkpt lat="47.15914" lon="-1.44579">
        <ele>31.1</ele>
        <time>2015-04-21T17:28:42Z</time>
      </trkpt>
      <trkpt lat="47.15924" lon="-1.44607">
        <ele>31.2</ele>
        <time>2015-04-21T17:28:47Z</time>
      </trkpt>
      <trkpt lat="47.15933" lon="-1.44636">
        <ele>31.9</ele>
        <time>2015-04-21T17:28:52Z</time>
      </trkpt>
      <trkpt lat="47.15941" lon="-1.44662">
        <ele>32.1</ele>
        <time>2015-04-21T17:28:56Z</time>
      </trkpt>
      <trkpt lat="47.15948" lon="-1.44686">
        <ele>33.3</ele>
        <time>2015-04-21T17:29:00Z</time>
      </trkpt>
      <trkpt lat="47.15956" lon="-1.4471">
        <ele>32.9</ele>
        <time>2015-04-21T17:29:04Z</time>
      </trkpt>
      <trkpt lat="47.15964" lon="-1.44735">
        <ele>32.4</ele>
        <time>2015-04-21T17:29:08Z</time>
      </trkpt>
      <trkpt lat="47.15972" lon="-1.4476">
        <ele>32.1</ele>
        <time>2015-04-21T17:29:12Z</time>
      </trkpt>
      <trkpt lat="47.15981" lon="-1.44788">
        <ele>31.3</ele>
        <time>2015-04-21T17:29:16Z</time>
      </trkpt>
      <trkpt lat="47.15993" lon="-1.44819">
        <ele>31.5</ele>
        <time>2015-04-21T17:29:20Z</time>
      </trkpt>
      <trkpt lat="47.16005" lon="-1.4484">
        <ele>31.4</ele>
        <time>2015-04-21T17:29:23Z</time>
      </trkpt>
      <trkpt lat="47.16018" lon="-1.44858">
        <ele>31</ele>
        <time>2015-04-21T17:29:26Z</time>
      </trkpt>
      <trkpt lat="47.16032" lon="-1.44876">
        <ele>30.9</ele>
        <time>2015-04-21T17:29:29Z</time>
      </trkpt>
      <trkpt lat="47.16047" lon="-1.44892">
        <ele>30.9</ele>
        <time>2015-04-21T17:29:32Z</time>
      </trkpt>
      <trkpt lat="47.16062" lon="-1.44909">
        <ele>31.2</ele>
        <time>2015-04-21T17:29:35Z</time>
      </trkpt>
      <trkpt lat="47.16076" lon="-1.44928">
        <ele>31.2</ele>
        <time>2015-04-21T17:29:38Z</time>
      </trkpt>
      <trkpt lat="47.16091" lon="-1.44955">
        <ele>31.7</ele>
        <time>2015-04-21T17:29:42Z</time>
      </trkpt>
      <trkpt lat="47.16101" lon="-1.44978">
        <ele>31.9</ele>
        <time>2015-04-21T17:29:45Z</time>
      </trkpt>
      <trkpt lat="47.1611" lon="-1.45001">
        <ele>31.8</ele>
        <time>2015-04-21T17:29:48Z</time>
      </trkpt>
      <trkpt lat="47.16121" lon="-1.45032">
        <ele>31.1</ele>
        <time>2015-04-21T17:29:52Z</time>
      </trkpt>
      <trkpt lat="47.16131" lon="-1.45061">
        <ele>30.9</ele>
        <time>2015-04-21T17:29:56Z</time>
      </trkpt>
      <trkpt lat="47.16139" lon="-1.4509">
        <ele>31.7</ele>
        <time>2015-04-21T17:30:00Z</time>
      </trkpt>
      <trkpt lat="47.16147" lon="-1.45119">
        <ele>32.8</ele>
        <time>2015-04-21T17:30:04Z</time>
      </trkpt>
      <trkpt lat="47.16158" lon="-1.45146">
        <ele>34.2</ele>
        <time>2015-04-21T17:30:08Z</time>
      </trkpt>
      <trkpt lat="47.16172" lon="-1.45164">
        <ele>34.9</ele>
        <time>2015-04-21T17:30:12Z</time>
      </trkpt>
      <trkpt lat="47.1619" lon="-1.45176">
        <ele>36.2</ele>
        <time>2015-04-21T17:30:16Z</time>
      </trkpt>
      <trkpt lat="47.16209" lon="-1.45187">
        <ele>37.4</ele>
        <time>2015-04-21T17:30:20Z</time>
      </trkpt>
      <trkpt lat="47.16228" lon="-1.45199">
        <ele>37.2</ele>
        <time>2015-04-21T17:30:24Z</time>
      </trkpt>
      <trkpt lat="47.16245" lon="-1.45218">
        <ele>37.2</ele>
        <time>2015-04-21T17:30:28Z</time>
      </trkpt>
      <trkpt lat="47.16258" lon="-1.45242">
        <ele>37.2</ele>
        <time>2015-04-21T17:30:32Z</time>
      </trkpt>
      <trkpt lat="47.16268" lon="-1.45271">
        <ele>37.4</ele>
        <time>2015-04-21T17:30:36Z</time>
      </trkpt>
      <trkpt lat="47.16276" lon="-1.45295">
        <ele>38</ele>
        <time>2015-04-21T17:30:39Z</time>
      </trkpt>
      <trkpt lat="47.16284" lon="-1.45321">
        <ele>38.3</ele>
        <time>2015-04-21T17:30:42Z</time>
      </trkpt>
      <trkpt lat="47.16291" lon="-1.4535">
        <ele>39</ele>
        <time>2015-04-21T17:30:45Z</time>
      </trkpt>
      <trkpt lat="47.16295" lon="-1.45384">
        <ele>38.1</ele>
        <time>2015-04-21T17:30:48Z</time>
      </trkpt>
      <trkpt lat="47.16303" lon="-1.45419">
        <ele>37.1</ele>
        <time>2015-04-21T17:30:51Z</time>
      </trkpt>
      <trkpt lat="47.16316" lon="-1.45449">
        <ele>36.9</ele>
        <time>2015-04-21T17:30:54Z</time>
      </trkpt>
      <trkpt lat="47.16332" lon="-1.45478">
        <ele>35.9</ele>
        <time>2015-04-21T17:30:57Z</time>
      </trkpt>
      <trkpt lat="47.16346" lon="-1.45505">
        <ele>35.1</ele>
        <time>2015-04-21T17:31:00Z</time>
      </trkpt>
      <trkpt lat="47.16361" lon="-1.4553">
        <ele>33.5</ele>
        <time>2015-04-21T17:31:03Z</time>
      </trkpt>
      <trkpt lat="47.16376" lon="-1.45556">
        <ele>31.7</ele>
        <time>2015-04-21T17:31:06Z</time>
      </trkpt>
      <trkpt lat="47.1639" lon="-1.45581">
        <ele>30.7</ele>
        <time>2015-04-21T17:31:09Z</time>
      </trkpt>
      <trkpt lat="47.16404" lon="-1.45606">
        <ele>29.2</ele>
        <time>2015-04-21T17:31:12Z</time>
      </trkpt>
      <trkpt lat="47.16413" lon="-1.45633">
        <ele>28.6</ele>
        <time>2015-04-21T17:31:15Z</time>
      </trkpt>
      <trkpt lat="47.1642" lon="-1.45662">
        <ele>28.8</ele>
        <time>2015-04-21T17:31:18Z</time>
      </trkpt>
      <trkpt lat="47.16427" lon="-1.4569">
        <ele>29.1</ele>
        <time>2015-04-21T17:31:21Z</time>
      </trkpt>
      <trkpt lat="47.16434" lon="-1.45718">
        <ele>29.2</ele>
        <time>2015-04-21T17:31:24Z</time>
      </trkpt>
      <trkpt lat="47.16439" lon="-1.45746">
        <ele>29</ele>
        <time>2015-04-21T17:31:27Z</time>
      </trkpt>
      <trkpt lat="47.16446" lon="-1.45772">
        <ele>28.7</ele>
        <time>2015-04-21T17:31:30Z</time>
      </trkpt>
      <trkpt lat="47.16453" lon="-1.45797">
        <ele>29.3</ele>
        <time>2015-04-21T17:31:33Z</time>
      </trkpt>
      <trkpt lat="47.16459" lon="-1.45822">
        <ele>30.4</ele>
        <time>2015-04-21T17:31:36Z</time>
      </trkpt>
      <trkpt lat="47.16467" lon="-1.45854">
        <ele>30.3</ele>
        <time>2015-04-21T17:31:40Z</time>
      </trkpt>
      <trkpt lat="47.16477" lon="-1.45884">
        <ele>31.3</ele>
        <time>2015-04-21T17:31:44Z</time>
      </trkpt>
      <trkpt lat="47.16487" lon="-1.45914">
        <ele>31.9</ele>
        <time>2015-04-21T17:31:48Z</time>
      </trkpt>
      <trkpt lat="47.16496" lon="-1.45944">
        <ele>32.2</ele>
        <time>2015-04-21T17:31:52Z</time>
      </trkpt>
      <trkpt lat="47.16506" lon="-1.45974">
        <ele>32.9</ele>
        <time>2015-04-21T17:31:56Z</time>
      </trkpt>
      <trkpt lat="47.16517" lon="-1.46004">
        <ele>33.5</ele>
        <time>2015-04-21T17:32:00Z</time>
      </trkpt>
      <trkpt lat="47.16532" lon="-1.46031">
        <ele>32.7</ele>
        <time>2015-04-21T17:32:04Z</time>
      </trkpt>
      <trkpt lat="47.16549" lon="-1.46053">
        <ele>32.9</ele>
        <time>2015-04-21T17:32:08Z</time>
      </trkpt>
      <trkpt lat="47.16545" lon="-1.46088">
        <ele>33.4</ele>
        <time>2015-04-21T17:32:12Z</time>
      </trkpt>
      <trkpt lat="47.16523" lon="-1.46098">
        <ele>32.6</ele>
        <time>2015-04-21T17:32:15Z</time>
      </trkpt>
      <trkpt lat="47.16501" lon="-1.4611">
        <ele>32.9</ele>
        <time>2015-04-21T17:32:19Z</time>
      </trkpt>
      <trkpt lat="47.16485" lon="-1.46126">
        <ele>33.2</ele>
        <time>2015-04-21T17:32:22Z</time>
      </trkpt>
      <trkpt lat="47.16471" lon="-1.46143">
        <ele>33.8</ele>
        <time>2015-04-21T17:32:25Z</time>
      </trkpt>
      <trkpt lat="47.16455" lon="-1.46159">
        <ele>34.8</ele>
        <time>2015-04-21T17:32:28Z</time>
      </trkpt>
      <trkpt lat="47.1644" lon="-1.46175">
        <ele>35.6</ele>
        <time>2015-04-21T17:32:31Z</time>
      </trkpt>
      <trkpt lat="47.16424" lon="-1.46193">
        <ele>35.6</ele>
        <time>2015-04-21T17:32:34Z</time>
      </trkpt>
      <trkpt lat="47.16409" lon="-1.4621">
        <ele>36.3</ele>
        <time>2015-04-21T17:32:37Z</time>
      </trkpt>
      <trkpt lat="47.16395" lon="-1.46227">
        <ele>37</ele>
        <time>2015-04-21T17:32:40Z</time>
      </trkpt>
      <trkpt lat="47.16381" lon="-1.46247">
        <ele>37.4</ele>
        <time>2015-04-21T17:32:43Z</time>
      </trkpt>
      <trkpt lat="47.16366" lon="-1.46269">
        <ele>37.5</ele>
        <time>2015-04-21T17:32:46Z</time>
      </trkpt>
      <trkpt lat="47.16354" lon="-1.46293">
        <ele>37.5</ele>
        <time>2015-04-21T17:32:49Z</time>
      </trkpt>
      <trkpt lat="47.16344" lon="-1.46318">
        <ele>37.4</ele>
        <time>2015-04-21T17:32:52Z</time>
      </trkpt>
      <trkpt lat="47.16333" lon="-1.46344">
        <ele>37.1</ele>
        <time>2015-04-21T17:32:55Z</time>
      </trkpt>
      <trkpt lat="47.16325" lon="-1.46371">
        <ele>36.4</ele>
        <time>2015-04-21T17:32:58Z</time>
      </trkpt>
      <trkpt lat="47.16318" lon="-1.46399">
        <ele>36.2</ele>
        <time>2015-04-21T17:33:01Z</time>
      </trkpt>
      <trkpt lat="47.16312" lon="-1.46429">
        <ele>35.6</ele>
        <time>2015-04-21T17:33:04Z</time>
      </trkpt>
      <trkpt lat="47.16306" lon="-1.4646">
        <ele>34.8</ele>
        <time>2015-04-21T17:33:07Z</time>
      </trkpt>
      <trkpt lat="47.16303" lon="-1.46492">
        <ele>34.2</ele>
        <time>2015-04-21T17:33:10Z</time>
      </trkpt>
      <trkpt lat="47.16301" lon="-1.46524">
        <ele>34.1</ele>
        <time>2015-04-21T17:33:13Z</time>
      </trkpt>
      <trkpt lat="47.16301" lon="-1.46558">
        <ele>34</ele>
        <time>2015-04-21T17:33:16Z</time>
      </trkpt>
      <trkpt lat="47.16296" lon="-1.46593">
        <ele>32.7</ele>
        <time>2015-04-21T17:33:19Z</time>
      </trkpt>
      <trkpt lat="47.16292" lon="-1.4663">
        <ele>32</ele>
        <time>2015-04-21T17:33:22Z</time>
      </trkpt>
      <trkpt lat="47.16288" lon="-1.46668">
        <ele>30.7</ele>
        <time>2015-04-21T17:33:25Z</time>
      </trkpt>
      <trkpt lat="47.16283" lon="-1.46706">
        <ele>30.1</ele>
        <time>2015-04-21T17:33:28Z</time>
      </trkpt>
      <trkpt lat="47.16279" lon="-1.46744">
        <ele>28.9</ele>
        <time>2015-04-21T17:33:31Z</time>
      </trkpt>
      <trkpt lat="47.16276" lon="-1.46781">
        <ele>27.7</ele>
        <time>2015-04-21T17:33:34Z</time>
      </trkpt>
      <trkpt lat="47.16281" lon="-1.46818">
        <ele>25.7</ele>
        <time>2015-04-21T17:33:37Z</time>
      </trkpt>
      <trkpt lat="47.16276" lon="-1.46855">
        <ele>23.9</ele>
        <time>2015-04-21T17:33:40Z</time>
      </trkpt>
      <trkpt lat="47.16272" lon="-1.46881">
        <ele>22.7</ele>
        <time>2015-04-21T17:33:42Z</time>
      </trkpt>
      <trkpt lat="47.16269" lon="-1.46907">
        <ele>22</ele>
        <time>2015-04-21T17:33:44Z</time>
      </trkpt>
      <trkpt lat="47.16265" lon="-1.46946">
        <ele>21.4</ele>
        <time>2015-04-21T17:33:47Z</time>
      </trkpt>
      <trkpt lat="47.16264" lon="-1.46985">
        <ele>21.3</ele>
        <time>2015-04-21T17:33:50Z</time>
      </trkpt>
      <trkpt lat="47.16265" lon="-1.47023">
        <ele>20.3</ele>
        <time>2015-04-21T17:33:53Z</time>
      </trkpt>
      <trkpt lat="47.16268" lon="-1.47062">
        <ele>18.5</ele>
        <time>2015-04-21T17:33:56Z</time>
      </trkpt>
      <trkpt lat="47.16273" lon="-1.47101">
        <ele>16.4</ele>
        <time>2015-04-21T17:33:59Z</time>
      </trkpt>
      <trkpt lat="47.16278" lon="-1.47127">
        <ele>15.6</ele>
        <time>2015-04-21T17:34:01Z</time>
      </trkpt>
      <trkpt lat="47.16283" lon="-1.47153">
        <ele>14.8</ele>
        <time>2015-04-21T17:34:03Z</time>
      </trkpt>
      <trkpt lat="47.16291" lon="-1.47179">
        <ele>14.2</ele>
        <time>2015-04-21T17:34:05Z</time>
      </trkpt>
      <trkpt lat="47.16299" lon="-1.47206">
        <ele>13.2</ele>
        <time>2015-04-21T17:34:07Z</time>
      </trkpt>
      <trkpt lat="47.16307" lon="-1.47231">
        <ele>12</ele>
        <time>2015-04-21T17:34:09Z</time>
      </trkpt>
      <trkpt lat="47.16317" lon="-1.47257">
        <ele>11.1</ele>
        <time>2015-04-21T17:34:11Z</time>
      </trkpt>
      <trkpt lat="47.16326" lon="-1.47282">
        <ele>10.1</ele>
        <time>2015-04-21T17:34:13Z</time>
      </trkpt>
      <trkpt lat="47.16333" lon="-1.47308">
        <ele>8.9</ele>
        <time>2015-04-21T17:34:15Z</time>
      </trkpt>
      <trkpt lat="47.1634" lon="-1.47332">
        <ele>7.7</ele>
        <time>2015-04-21T17:34:17Z</time>
      </trkpt>
      <trkpt lat="47.16339" lon="-1.47372">
        <ele>6.9</ele>
        <time>2015-04-21T17:34:20Z</time>
      </trkpt>
      <trkpt lat="47.16339" lon="-1.47399">
        <ele>6.1</ele>
        <time>2015-04-21T17:34:22Z</time>
      </trkpt>
      <trkpt lat="47.16347" lon="-1.47437">
        <ele>5.2</ele>
        <time>2015-04-21T17:34:25Z</time>
      </trkpt>
      <trkpt lat="47.16355" lon="-1.47473">
        <ele>5.5</ele>
        <time>2015-04-21T17:34:28Z</time>
      </trkpt>
      <trkpt lat="47.16364" lon="-1.4751">
        <ele>5.8</ele>
        <time>2015-04-21T17:34:31Z</time>
      </trkpt>
      <trkpt lat="47.16371" lon="-1.47544">
        <ele>5.9</ele>
        <time>2015-04-21T17:34:34Z</time>
      </trkpt>
      <trkpt lat="47.16379" lon="-1.47576">
        <ele>6.5</ele>
        <time>2015-04-21T17:34:37Z</time>
      </trkpt>
      <trkpt lat="47.16387" lon="-1.47609">
        <ele>7</ele>
        <time>2015-04-21T17:34:40Z</time>
      </trkpt>
      <trkpt lat="47.16395" lon="-1.47641">
        <ele>6.7</ele>
        <time>2015-04-21T17:34:43Z</time>
      </trkpt>
      <trkpt lat="47.16403" lon="-1.47676">
        <ele>6.5</ele>
        <time>2015-04-21T17:34:46Z</time>
      </trkpt>
      <trkpt lat="47.16409" lon="-1.4771">
        <ele>6.1</ele>
        <time>2015-04-21T17:34:49Z</time>
      </trkpt>
      <trkpt lat="47.16416" lon="-1.47743">
        <ele>5.9</ele>
        <time>2015-04-21T17:34:52Z</time>
      </trkpt>
      <trkpt lat="47.16422" lon="-1.47779">
        <ele>7.1</ele>
        <time>2015-04-21T17:34:55Z</time>
      </trkpt>
      <trkpt lat="47.16429" lon="-1.47812">
        <ele>7.2</ele>
        <time>2015-04-21T17:34:58Z</time>
      </trkpt>
      <trkpt lat="47.16435" lon="-1.47844">
        <ele>6.6</ele>
        <time>2015-04-21T17:35:01Z</time>
      </trkpt>
      <trkpt lat="47.16443" lon="-1.47876">
        <ele>7.7</ele>
        <time>2015-04-21T17:35:04Z</time>
      </trkpt>
      <trkpt lat="47.1645" lon="-1.47908">
        <ele>7.5</ele>
        <time>2015-04-21T17:35:07Z</time>
      </trkpt>
      <trkpt lat="47.16457" lon="-1.47939">
        <ele>6.8</ele>
        <time>2015-04-21T17:35:10Z</time>
      </trkpt>
      <trkpt lat="47.16466" lon="-1.47969">
        <ele>6.7</ele>
        <time>2015-04-21T17:35:13Z</time>
      </trkpt>
      <trkpt lat="47.16474" lon="-1.47998">
        <ele>6.4</ele>
        <time>2015-04-21T17:35:16Z</time>
      </trkpt>
      <trkpt lat="47.16482" lon="-1.48025">
        <ele>6</ele>
        <time>2015-04-21T17:35:19Z</time>
      </trkpt>
      <trkpt lat="47.16488" lon="-1.48052">
        <ele>6.1</ele>
        <time>2015-04-21T17:35:22Z</time>
      </trkpt>
      <trkpt lat="47.16497" lon="-1.48079">
        <ele>5.6</ele>
        <time>2015-04-21T17:35:26Z</time>
      </trkpt>
      <trkpt lat="47.16505" lon="-1.48109">
        <ele>4.7</ele>
        <time>2015-04-21T17:35:30Z</time>
      </trkpt>
      <trkpt lat="47.16522" lon="-1.48132">
        <ele>3.8</ele>
        <time>2015-04-21T17:35:34Z</time>
      </trkpt>
      <trkpt lat="47.1654" lon="-1.48119">
        <ele>3.3</ele>
        <time>2015-04-21T17:35:39Z</time>
      </trkpt>
      <trkpt lat="47.16558" lon="-1.48114">
        <ele>4.5</ele>
        <time>2015-04-21T17:35:45Z</time>
      </trkpt>
      <trkpt lat="47.16577" lon="-1.48098">
        <ele>3</ele>
        <time>2015-04-21T17:35:49Z</time>
      </trkpt>
      <trkpt lat="47.16595" lon="-1.48087">
        <ele>2.1</ele>
        <time>2015-04-21T17:35:52Z</time>
      </trkpt>
      <trkpt lat="47.16613" lon="-1.48076">
        <ele>1.7</ele>
        <time>2015-04-21T17:35:55Z</time>
      </trkpt>
      <trkpt lat="47.16629" lon="-1.48063">
        <ele>1.4</ele>
        <time>2015-04-21T17:35:58Z</time>
      </trkpt>
      <trkpt lat="47.16646" lon="-1.48051">
        <ele>1.3</ele>
        <time>2015-04-21T17:36:01Z</time>
      </trkpt>
      <trkpt lat="47.16668" lon="-1.48038">
        <ele>2.3</ele>
        <time>2015-04-21T17:36:05Z</time>
      </trkpt>
      <trkpt lat="47.16685" lon="-1.48026">
        <ele>3.1</ele>
        <time>2015-04-21T17:36:08Z</time>
      </trkpt>
      <trkpt lat="47.16704" lon="-1.48017">
        <ele>4.6</ele>
        <time>2015-04-21T17:36:11Z</time>
      </trkpt>
      <trkpt lat="47.16723" lon="-1.48009">
        <ele>4.9</ele>
        <time>2015-04-21T17:36:14Z</time>
      </trkpt>
      <trkpt lat="47.16742" lon="-1.48005">
        <ele>5.7</ele>
        <time>2015-04-21T17:36:17Z</time>
      </trkpt>
      <trkpt lat="47.16761" lon="-1.48006">
        <ele>4.5</ele>
        <time>2015-04-21T17:36:20Z</time>
      </trkpt>
      <trkpt lat="47.16784" lon="-1.4801">
        <ele>4</ele>
        <time>2015-04-21T17:36:23Z</time>
      </trkpt>
      <trkpt lat="47.16802" lon="-1.48012">
        <ele>5.2</ele>
        <time>2015-04-21T17:36:26Z</time>
      </trkpt>
      <trkpt lat="47.16819" lon="-1.4804">
        <ele>6.8</ele>
        <time>2015-04-21T17:36:30Z</time>
      </trkpt>
      <trkpt lat="47.16831" lon="-1.48067">
        <ele>7.4</ele>
        <time>2015-04-21T17:36:33Z</time>
      </trkpt>
      <trkpt lat="47.16847" lon="-1.48087">
        <ele>7.6</ele>
        <time>2015-04-21T17:36:36Z</time>
      </trkpt>
      <trkpt lat="47.16865" lon="-1.48105">
        <ele>8.1</ele>
        <time>2015-04-21T17:36:39Z</time>
      </trkpt>
      <trkpt lat="47.16879" lon="-1.48126">
        <ele>8</ele>
        <time>2015-04-21T17:36:42Z</time>
      </trkpt>
      <trkpt lat="47.16892" lon="-1.4815">
        <ele>7.9</ele>
        <time>2015-04-21T17:36:45Z</time>
      </trkpt>
      <trkpt lat="47.16903" lon="-1.48172">
        <ele>8.3</ele>
        <time>2015-04-21T17:36:48Z</time>
      </trkpt>
      <trkpt lat="47.16916" lon="-1.48194">
        <ele>8.7</ele>
        <time>2015-04-21T17:36:51Z</time>
      </trkpt>
      <trkpt lat="47.16928" lon="-1.48218">
        <ele>9.1</ele>
        <time>2015-04-21T17:36:54Z</time>
      </trkpt>
      <trkpt lat="47.16937" lon="-1.48247">
        <ele>8.9</ele>
        <time>2015-04-21T17:36:57Z</time>
      </trkpt>
      <trkpt lat="47.16943" lon="-1.48276">
        <ele>9.2</ele>
        <time>2015-04-21T17:37:00Z</time>
      </trkpt>
      <trkpt lat="47.16944" lon="-1.48305">
        <ele>9.2</ele>
        <time>2015-04-21T17:37:03Z</time>
      </trkpt>
      <trkpt lat="47.16942" lon="-1.48332">
        <ele>9.4</ele>
        <time>2015-04-21T17:37:06Z</time>
      </trkpt>
      <trkpt lat="47.16935" lon="-1.48367">
        <ele>9.5</ele>
        <time>2015-04-21T17:37:10Z</time>
      </trkpt>
      <trkpt lat="47.16927" lon="-1.48395">
        <ele>9.8</ele>
        <time>2015-04-21T17:37:13Z</time>
      </trkpt>
      <trkpt lat="47.16919" lon="-1.4842">
        <ele>9.9</ele>
        <time>2015-04-21T17:37:16Z</time>
      </trkpt>
      <trkpt lat="47.1691" lon="-1.48449">
        <ele>9.9</ele>
        <time>2015-04-21T17:37:19Z</time>
      </trkpt>
      <trkpt lat="47.16899" lon="-1.48474">
        <ele>10.2</ele>
        <time>2015-04-21T17:37:22Z</time>
      </trkpt>
      <trkpt lat="47.16893" lon="-1.48503">
        <ele>10.3</ele>
        <time>2015-04-21T17:37:25Z</time>
      </trkpt>
      <trkpt lat="47.1689" lon="-1.48533">
        <ele>10.5</ele>
        <time>2015-04-21T17:37:28Z</time>
      </trkpt>
      <trkpt lat="47.1689" lon="-1.48565">
        <ele>10</ele>
        <time>2015-04-21T17:37:31Z</time>
      </trkpt>
      <trkpt lat="47.16894" lon="-1.48596">
        <ele>10</ele>
        <time>2015-04-21T17:37:34Z</time>
      </trkpt>
      <trkpt lat="47.16901" lon="-1.4863">
        <ele>10.4</ele>
        <time>2015-04-21T17:37:38Z</time>
      </trkpt>
      <trkpt lat="47.16906" lon="-1.4866">
        <ele>10.3</ele>
        <time>2015-04-21T17:37:41Z</time>
      </trkpt>
      <trkpt lat="47.16913" lon="-1.4869">
        <ele>10.1</ele>
        <time>2015-04-21T17:37:44Z</time>
      </trkpt>
      <trkpt lat="47.1692" lon="-1.48717">
        <ele>10.3</ele>
        <time>2015-04-21T17:37:47Z</time>
      </trkpt>
      <trkpt lat="47.16927" lon="-1.48742">
        <ele>10.7</ele>
        <time>2015-04-21T17:37:50Z</time>
      </trkpt>
      <trkpt lat="47.16935" lon="-1.48767">
        <ele>10.7</ele>
        <time>2015-04-21T17:37:53Z</time>
      </trkpt>
      <trkpt lat="47.16942" lon="-1.48792">
        <ele>10.9</ele>
        <time>2015-04-21T17:37:56Z</time>
      </trkpt>
      <trkpt lat="47.16947" lon="-1.48823">
        <ele>10.8</ele>
        <time>2015-04-21T17:37:59Z</time>
      </trkpt>
      <trkpt lat="47.16952" lon="-1.48855">
        <ele>11.3</ele>
        <time>2015-04-21T17:38:02Z</time>
      </trkpt>
      <trkpt lat="47.16957" lon="-1.48886">
        <ele>11.7</ele>
        <time>2015-04-21T17:38:05Z</time>
      </trkpt>
      <trkpt lat="47.16961" lon="-1.48918">
        <ele>12.1</ele>
        <time>2015-04-21T17:38:08Z</time>
      </trkpt>
      <trkpt lat="47.16967" lon="-1.48946">
        <ele>12</ele>
        <time>2015-04-21T17:38:11Z</time>
      </trkpt>
      <trkpt lat="47.16974" lon="-1.48974">
        <ele>12</ele>
        <time>2015-04-21T17:38:14Z</time>
      </trkpt>
      <trkpt lat="47.16981" lon="-1.49001">
        <ele>12.1</ele>
        <time>2015-04-21T17:38:17Z</time>
      </trkpt>
      <trkpt lat="47.16991" lon="-1.49026">
        <ele>12.1</ele>
        <time>2015-04-21T17:38:20Z</time>
      </trkpt>
      <trkpt lat="47.16999" lon="-1.49052">
        <ele>12.1</ele>
        <time>2015-04-21T17:38:23Z</time>
      </trkpt>
      <trkpt lat="47.17006" lon="-1.49082">
        <ele>12.2</ele>
        <time>2015-04-21T17:38:26Z</time>
      </trkpt>
      <trkpt lat="47.17019" lon="-1.49111">
        <ele>12.3</ele>
        <time>2015-04-21T17:38:30Z</time>
      </trkpt>
      <trkpt lat="47.17029" lon="-1.49133">
        <ele>12.4</ele>
        <time>2015-04-21T17:38:33Z</time>
      </trkpt>
      <trkpt lat="47.17039" lon="-1.49158">
        <ele>12.7</ele>
        <time>2015-04-21T17:38:36Z</time>
      </trkpt>
      <trkpt lat="47.17045" lon="-1.49187">
        <ele>12.9</ele>
        <time>2015-04-21T17:38:39Z</time>
      </trkpt>
      <trkpt lat="47.17055" lon="-1.49216">
        <ele>13.1</ele>
        <time>2015-04-21T17:38:42Z</time>
      </trkpt>
      <trkpt lat="47.17063" lon="-1.49246">
        <ele>13.4</ele>
        <time>2015-04-21T17:38:45Z</time>
      </trkpt>
      <trkpt lat="47.17069" lon="-1.49278">
        <ele>13.2</ele>
        <time>2015-04-21T17:38:48Z</time>
      </trkpt>
      <trkpt lat="47.17076" lon="-1.49306">
        <ele>13.3</ele>
        <time>2015-04-21T17:38:51Z</time>
      </trkpt>
      <trkpt lat="47.17082" lon="-1.49335">
        <ele>13.4</ele>
        <time>2015-04-21T17:38:54Z</time>
      </trkpt>
      <trkpt lat="47.17088" lon="-1.49365">
        <ele>14.3</ele>
        <time>2015-04-21T17:38:57Z</time>
      </trkpt>
      <trkpt lat="47.17098" lon="-1.49395">
        <ele>14.7</ele>
        <time>2015-04-21T17:39:00Z</time>
      </trkpt>
      <trkpt lat="47.17107" lon="-1.4942">
        <ele>15.2</ele>
        <time>2015-04-21T17:39:03Z</time>
      </trkpt>
      <trkpt lat="47.17115" lon="-1.49448">
        <ele>15.6</ele>
        <time>2015-04-21T17:39:06Z</time>
      </trkpt>
      <trkpt lat="47.17125" lon="-1.49481">
        <ele>16.1</ele>
        <time>2015-04-21T17:39:10Z</time>
      </trkpt>
      <trkpt lat="47.1713" lon="-1.49511">
        <ele>16.8</ele>
        <time>2015-04-21T17:39:13Z</time>
      </trkpt>
      <trkpt lat="47.17137" lon="-1.49536">
        <ele>17.1</ele>
        <time>2015-04-21T17:39:16Z</time>
      </trkpt>
      <trkpt lat="47.17144" lon="-1.49563">
        <ele>17.3</ele>
        <time>2015-04-21T17:39:19Z</time>
      </trkpt>
      <trkpt lat="47.1715" lon="-1.4959">
        <ele>17.4</ele>
        <time>2015-04-21T17:39:22Z</time>
      </trkpt>
      <trkpt lat="47.17156" lon="-1.49617">
        <ele>17.3</ele>
        <time>2015-04-21T17:39:25Z</time>
      </trkpt>
      <trkpt lat="47.1716" lon="-1.49645">
        <ele>17.2</ele>
        <time>2015-04-21T17:39:28Z</time>
      </trkpt>
      <trkpt lat="47.17166" lon="-1.49671">
        <ele>17.3</ele>
        <time>2015-04-21T17:39:31Z</time>
      </trkpt>
      <trkpt lat="47.17174" lon="-1.49697">
        <ele>16.8</ele>
        <time>2015-04-21T17:39:34Z</time>
      </trkpt>
      <trkpt lat="47.17182" lon="-1.49721">
        <ele>17.1</ele>
        <time>2015-04-21T17:39:37Z</time>
      </trkpt>
      <trkpt lat="47.1719" lon="-1.49748">
        <ele>17.3</ele>
        <time>2015-04-21T17:39:40Z</time>
      </trkpt>
      <trkpt lat="47.17201" lon="-1.49771">
        <ele>17.3</ele>
        <time>2015-04-21T17:39:43Z</time>
      </trkpt>
      <trkpt lat="47.1721" lon="-1.49798">
        <ele>17.4</ele>
        <time>2015-04-21T17:39:46Z</time>
      </trkpt>
      <trkpt lat="47.17219" lon="-1.49825">
        <ele>17.4</ele>
        <time>2015-04-21T17:39:49Z</time>
      </trkpt>
      <trkpt lat="47.17228" lon="-1.49852">
        <ele>18.1</ele>
        <time>2015-04-21T17:39:52Z</time>
      </trkpt>
      <trkpt lat="47.17236" lon="-1.4988">
        <ele>18.9</ele>
        <time>2015-04-21T17:39:55Z</time>
      </trkpt>
      <trkpt lat="47.17243" lon="-1.49908">
        <ele>20.1</ele>
        <time>2015-04-21T17:39:58Z</time>
      </trkpt>
      <trkpt lat="47.17254" lon="-1.49937">
        <ele>20</ele>
        <time>2015-04-21T17:40:01Z</time>
      </trkpt>
      <trkpt lat="47.17263" lon="-1.49965">
        <ele>20.1</ele>
        <time>2015-04-21T17:40:04Z</time>
      </trkpt>
      <trkpt lat="47.17273" lon="-1.49989">
        <ele>20.2</ele>
        <time>2015-04-21T17:40:07Z</time>
      </trkpt>
      <trkpt lat="47.17284" lon="-1.50015">
        <ele>20.3</ele>
        <time>2015-04-21T17:40:10Z</time>
      </trkpt>
      <trkpt lat="47.17297" lon="-1.50035">
        <ele>20.4</ele>
        <time>2015-04-21T17:40:13Z</time>
      </trkpt>
      <trkpt lat="47.1731" lon="-1.50059">
        <ele>20.6</ele>
        <time>2015-04-21T17:40:16Z</time>
      </trkpt>
      <trkpt lat="47.17323" lon="-1.50088">
        <ele>21.8</ele>
        <time>2015-04-21T17:40:20Z</time>
      </trkpt>
      <trkpt lat="47.17336" lon="-1.50118">
        <ele>23</ele>
        <time>2015-04-21T17:40:24Z</time>
      </trkpt>
      <trkpt lat="47.17347" lon="-1.50143">
        <ele>23.9</ele>
        <time>2015-04-21T17:40:27Z</time>
      </trkpt>
      <trkpt lat="47.17356" lon="-1.50168">
        <ele>24.7</ele>
        <time>2015-04-21T17:40:30Z</time>
      </trkpt>
      <trkpt lat="47.17366" lon="-1.50193">
        <ele>25.9</ele>
        <time>2015-04-21T17:40:33Z</time>
      </trkpt>
      <trkpt lat="47.17375" lon="-1.50216">
        <ele>26.9</ele>
        <time>2015-04-21T17:40:36Z</time>
      </trkpt>
      <trkpt lat="47.17385" lon="-1.50241">
        <ele>27.1</ele>
        <time>2015-04-21T17:40:39Z</time>
      </trkpt>
      <trkpt lat="47.17396" lon="-1.50264">
        <ele>27.5</ele>
        <time>2015-04-21T17:40:42Z</time>
      </trkpt>
      <trkpt lat="47.17406" lon="-1.50289">
        <ele>27.6</ele>
        <time>2015-04-21T17:40:45Z</time>
      </trkpt>
      <trkpt lat="47.17417" lon="-1.50312">
        <ele>27.7</ele>
        <time>2015-04-21T17:40:48Z</time>
      </trkpt>
      <trkpt lat="47.17428" lon="-1.50338">
        <ele>27.2</ele>
        <time>2015-04-21T17:40:51Z</time>
      </trkpt>
      <trkpt lat="47.17442" lon="-1.50364">
        <ele>24.3</ele>
        <time>2015-04-21T17:40:54Z</time>
      </trkpt>
      <trkpt lat="47.17455" lon="-1.50389">
        <ele>22.2</ele>
        <time>2015-04-21T17:40:57Z</time>
      </trkpt>
      <trkpt lat="47.17468" lon="-1.50413">
        <ele>20.3</ele>
        <time>2015-04-21T17:41:00Z</time>
      </trkpt>
      <trkpt lat="47.17482" lon="-1.50437">
        <ele>18.7</ele>
        <time>2015-04-21T17:41:03Z</time>
      </trkpt>
      <trkpt lat="47.17495" lon="-1.50461">
        <ele>18.1</ele>
        <time>2015-04-21T17:41:06Z</time>
      </trkpt>
      <trkpt lat="47.17508" lon="-1.50481">
        <ele>17.5</ele>
        <time>2015-04-21T17:41:09Z</time>
      </trkpt>
      <trkpt lat="47.17525" lon="-1.50502">
        <ele>17.2</ele>
        <time>2015-04-21T17:41:13Z</time>
      </trkpt>
      <trkpt lat="47.17541" lon="-1.50528">
        <ele>16.5</ele>
        <time>2015-04-21T17:41:17Z</time>
      </trkpt>
      <trkpt lat="47.17552" lon="-1.50549">
        <ele>16</ele>
        <time>2015-04-21T17:41:20Z</time>
      </trkpt>
      <trkpt lat="47.17567" lon="-1.50569">
        <ele>15.4</ele>
        <time>2015-04-21T17:41:23Z</time>
      </trkpt>
      <trkpt lat="47.17581" lon="-1.5059">
        <ele>15.4</ele>
        <time>2015-04-21T17:41:26Z</time>
      </trkpt>
      <trkpt lat="47.17594" lon="-1.50611">
        <ele>15.5</ele>
        <time>2015-04-21T17:41:29Z</time>
      </trkpt>
      <trkpt lat="47.17609" lon="-1.50635">
        <ele>14.3</ele>
        <time>2015-04-21T17:41:32Z</time>
      </trkpt>
      <trkpt lat="47.1762" lon="-1.50662">
        <ele>14.7</ele>
        <time>2015-04-21T17:41:35Z</time>
      </trkpt>
      <trkpt lat="47.17631" lon="-1.50684">
        <ele>15.1</ele>
        <time>2015-04-21T17:41:38Z</time>
      </trkpt>
      <trkpt lat="47.17644" lon="-1.50712">
        <ele>14.5</ele>
        <time>2015-04-21T17:41:42Z</time>
      </trkpt>
      <trkpt lat="47.17638" lon="-1.50744">
        <ele>13.4</ele>
        <time>2015-04-21T17:41:46Z</time>
      </trkpt>
      <trkpt lat="47.17636" lon="-1.50779">
        <ele>12.7</ele>
        <time>2015-04-21T17:41:50Z</time>
      </trkpt>
      <trkpt lat="47.17645" lon="-1.50805">
        <ele>12.9</ele>
        <time>2015-04-21T17:41:54Z</time>
      </trkpt>
      <trkpt lat="47.17664" lon="-1.50816">
        <ele>14.2</ele>
        <time>2015-04-21T17:41:58Z</time>
      </trkpt>
      <trkpt lat="47.17684" lon="-1.50803">
        <ele>12.6</ele>
        <time>2015-04-21T17:42:01Z</time>
      </trkpt>
      <trkpt lat="47.17704" lon="-1.50792">
        <ele>12.5</ele>
        <time>2015-04-21T17:42:05Z</time>
      </trkpt>
      <trkpt lat="47.17723" lon="-1.50809">
        <ele>11.6</ele>
        <time>2015-04-21T17:42:09Z</time>
      </trkpt>
      <trkpt lat="47.17739" lon="-1.50826">
        <ele>10.1</ele>
        <time>2015-04-21T17:42:12Z</time>
      </trkpt>
      <trkpt lat="47.17753" lon="-1.50844">
        <ele>8.5</ele>
        <time>2015-04-21T17:42:15Z</time>
      </trkpt>
      <trkpt lat="47.17767" lon="-1.50862">
        <ele>7.3</ele>
        <time>2015-04-21T17:42:18Z</time>
      </trkpt>
      <trkpt lat="47.17782" lon="-1.50879">
        <ele>7</ele>
        <time>2015-04-21T17:42:21Z</time>
      </trkpt>
      <trkpt lat="47.17797" lon="-1.50898">
        <ele>6</ele>
        <time>2015-04-21T17:42:24Z</time>
      </trkpt>
      <trkpt lat="47.17812" lon="-1.50916">
        <ele>5.6</ele>
        <time>2015-04-21T17:42:27Z</time>
      </trkpt>
      <trkpt lat="47.17828" lon="-1.50931">
        <ele>5.7</ele>
        <time>2015-04-21T17:42:30Z</time>
      </trkpt>
      <trkpt lat="47.17844" lon="-1.50948">
        <ele>5.1</ele>
        <time>2015-04-21T17:42:33Z</time>
      </trkpt>
      <trkpt lat="47.17861" lon="-1.50968">
        <ele>4.5</ele>
        <time>2015-04-21T17:42:36Z</time>
      </trkpt>
      <trkpt lat="47.17877" lon="-1.50989">
        <ele>4.5</ele>
        <time>2015-04-21T17:42:39Z</time>
      </trkpt>
      <trkpt lat="47.17892" lon="-1.51011">
        <ele>4.8</ele>
        <time>2015-04-21T17:42:42Z</time>
      </trkpt>
      <trkpt lat="47.17908" lon="-1.51032">
        <ele>4.6</ele>
        <time>2015-04-21T17:42:45Z</time>
      </trkpt>
      <trkpt lat="47.17923" lon="-1.51052">
        <ele>4.5</ele>
        <time>2015-04-21T17:42:48Z</time>
      </trkpt>
      <trkpt lat="47.17937" lon="-1.51075">
        <ele>4</ele>
        <time>2015-04-21T17:42:51Z</time>
      </trkpt>
      <trkpt lat="47.17953" lon="-1.51095">
        <ele>4.1</ele>
        <time>2015-04-21T17:42:54Z</time>
      </trkpt>
      <trkpt lat="47.17967" lon="-1.51113">
        <ele>4.3</ele>
        <time>2015-04-21T17:42:57Z</time>
      </trkpt>
      <trkpt lat="47.17983" lon="-1.51129">
        <ele>4.8</ele>
        <time>2015-04-21T17:43:00Z</time>
      </trkpt>
      <trkpt lat="47.18001" lon="-1.51142">
        <ele>5.1</ele>
        <time>2015-04-21T17:43:03Z</time>
      </trkpt>
      <trkpt lat="47.1802" lon="-1.51151">
        <ele>5.2</ele>
        <time>2015-04-21T17:43:06Z</time>
      </trkpt>
      <trkpt lat="47.18038" lon="-1.51155">
        <ele>6.3</ele>
        <time>2015-04-21T17:43:09Z</time>
      </trkpt>
      <trkpt lat="47.18057" lon="-1.51171">
        <ele>4.9</ele>
        <time>2015-04-21T17:43:13Z</time>
      </trkpt>
      <trkpt lat="47.18058" lon="-1.51207">
        <ele>5.1</ele>
        <time>2015-04-21T17:43:17Z</time>
      </trkpt>
      <trkpt lat="47.1806" lon="-1.51236">
        <ele>4.9</ele>
        <time>2015-04-21T17:43:20Z</time>
      </trkpt>
      <trkpt lat="47.18062" lon="-1.51267">
        <ele>5.3</ele>
        <time>2015-04-21T17:43:23Z</time>
      </trkpt>
      <trkpt lat="47.18066" lon="-1.51299">
        <ele>5.2</ele>
        <time>2015-04-21T17:43:26Z</time>
      </trkpt>
      <trkpt lat="47.18072" lon="-1.5133">
        <ele>5.4</ele>
        <time>2015-04-21T17:43:29Z</time>
      </trkpt>
      <trkpt lat="47.18082" lon="-1.51359">
        <ele>5.8</ele>
        <time>2015-04-21T17:43:32Z</time>
      </trkpt>
      <trkpt lat="47.18091" lon="-1.51385">
        <ele>6.4</ele>
        <time>2015-04-21T17:43:35Z</time>
      </trkpt>
      <trkpt lat="47.18099" lon="-1.51414">
        <ele>6.8</ele>
        <time>2015-04-21T17:43:38Z</time>
      </trkpt>
      <trkpt lat="47.18111" lon="-1.5144">
        <ele>6.8</ele>
        <time>2015-04-21T17:43:41Z</time>
      </trkpt>
      <trkpt lat="47.18122" lon="-1.51469">
        <ele>6.6</ele>
        <time>2015-04-21T17:43:44Z</time>
      </trkpt>
      <trkpt lat="47.18129" lon="-1.51503">
        <ele>6.8</ele>
        <time>2015-04-21T17:43:47Z</time>
      </trkpt>
      <trkpt lat="47.18135" lon="-1.51532">
        <ele>7</ele>
        <time>2015-04-21T17:43:50Z</time>
      </trkpt>
      <trkpt lat="47.18141" lon="-1.51562">
        <ele>7</ele>
        <time>2015-04-21T17:43:53Z</time>
      </trkpt>
      <trkpt lat="47.18143" lon="-1.51592">
        <ele>7.2</ele>
        <time>2015-04-21T17:43:56Z</time>
      </trkpt>
      <trkpt lat="47.18143" lon="-1.51624">
        <ele>7.1</ele>
        <time>2015-04-21T17:43:59Z</time>
      </trkpt>
      <trkpt lat="47.18144" lon="-1.51653">
        <ele>7.1</ele>
        <time>2015-04-21T17:44:02Z</time>
      </trkpt>
      <trkpt lat="47.18148" lon="-1.51682">
        <ele>7.3</ele>
        <time>2015-04-21T17:44:05Z</time>
      </trkpt>
      <trkpt lat="47.18151" lon="-1.51715">
        <ele>7.6</ele>
        <time>2015-04-21T17:44:09Z</time>
      </trkpt>
      <trkpt lat="47.18153" lon="-1.51747">
        <ele>8.1</ele>
        <time>2015-04-21T17:44:13Z</time>
      </trkpt>
      <trkpt lat="47.1814" lon="-1.51774">
        <ele>8.9</ele>
        <time>2015-04-21T17:44:17Z</time>
      </trkpt>
      <trkpt lat="47.18122" lon="-1.51797">
        <ele>9.6</ele>
        <time>2015-04-21T17:44:21Z</time>
      </trkpt>
      <trkpt lat="47.18106" lon="-1.51816">
        <ele>9.7</ele>
        <time>2015-04-21T17:44:24Z</time>
      </trkpt>
      <trkpt lat="47.18098" lon="-1.51847">
        <ele>10.3</ele>
        <time>2015-04-21T17:44:27Z</time>
      </trkpt>
      <trkpt lat="47.18105" lon="-1.51879">
        <ele>10.8</ele>
        <time>2015-04-21T17:44:31Z</time>
      </trkpt>
      <trkpt lat="47.18111" lon="-1.51905">
        <ele>12.1</ele>
        <time>2015-04-21T17:44:40Z</time>
      </trkpt>
      <trkpt lat="47.18114" lon="-1.51941">
        <ele>13</ele>
        <time>2015-04-21T17:44:45Z</time>
      </trkpt>
      <trkpt lat="47.18115" lon="-1.51971">
        <ele>13.2</ele>
        <time>2015-04-21T17:44:48Z</time>
      </trkpt>
      <trkpt lat="47.1812" lon="-1.52002">
        <ele>13.3</ele>
        <time>2015-04-21T17:44:51Z</time>
      </trkpt>
      <trkpt lat="47.18126" lon="-1.52035">
        <ele>13.5</ele>
        <time>2015-04-21T17:44:54Z</time>
      </trkpt>
      <trkpt lat="47.1813" lon="-1.52067">
        <ele>14</ele>
        <time>2015-04-21T17:44:57Z</time>
      </trkpt>
      <trkpt lat="47.18136" lon="-1.52097">
        <ele>13.6</ele>
        <time>2015-04-21T17:45:00Z</time>
      </trkpt>
      <trkpt lat="47.18148" lon="-1.52122">
        <ele>13.7</ele>
        <time>2015-04-21T17:45:03Z</time>
      </trkpt>
      <trkpt lat="47.18159" lon="-1.52152">
        <ele>12.7</ele>
        <time>2015-04-21T17:45:06Z</time>
      </trkpt>
      <trkpt lat="47.18168" lon="-1.52183">
        <ele>11.3</ele>
        <time>2015-04-21T17:45:09Z</time>
      </trkpt>
      <trkpt lat="47.18177" lon="-1.52213">
        <ele>10.8</ele>
        <time>2015-04-21T17:45:12Z</time>
      </trkpt>
      <trkpt lat="47.18187" lon="-1.52239">
        <ele>10</ele>
        <time>2015-04-21T17:45:15Z</time>
      </trkpt>
      <trkpt lat="47.1819" lon="-1.52268">
        <ele>8.3</ele>
        <time>2015-04-21T17:45:18Z</time>
      </trkpt>
      <trkpt lat="47.18191" lon="-1.52298">
        <ele>5.7</ele>
        <time>2015-04-21T17:45:21Z</time>
      </trkpt>
      <trkpt lat="47.18186" lon="-1.52326">
        <ele>4.3</ele>
        <time>2015-04-21T17:45:24Z</time>
      </trkpt>
      <trkpt lat="47.18185" lon="-1.52354">
        <ele>3.2</ele>
        <time>2015-04-21T17:45:27Z</time>
      </trkpt>
      <trkpt lat="47.18185" lon="-1.52383">
        <ele>2.3</ele>
        <time>2015-04-21T17:45:30Z</time>
      </trkpt>
      <trkpt lat="47.18188" lon="-1.52411">
        <ele>2</ele>
        <time>2015-04-21T17:45:33Z</time>
      </trkpt>
      <trkpt lat="47.18198" lon="-1.52438">
        <ele>1.7</ele>
        <time>2015-04-21T17:45:37Z</time>
      </trkpt>
      <trkpt lat="47.18197" lon="-1.52469">
        <ele>1.1</ele>
        <time>2015-04-21T17:45:41Z</time>
      </trkpt>
      <trkpt lat="47.18198" lon="-1.52504">
        <ele>0.2</ele>
        <time>2015-04-21T17:45:45Z</time>
      </trkpt>
      <trkpt lat="47.18207" lon="-1.52535">
        <ele>-1</ele>
        <time>2015-04-21T17:45:49Z</time>
      </trkpt>
      <trkpt lat="47.18215" lon="-1.52562">
        <ele>-1.1</ele>
        <time>2015-04-21T17:45:52Z</time>
      </trkpt>
      <trkpt lat="47.18228" lon="-1.5258">
        <ele>-1.1</ele>
        <time>2015-04-21T17:45:55Z</time>
      </trkpt>
      <trkpt lat="47.18241" lon="-1.52601">
        <ele>-0.8</ele>
        <time>2015-04-21T17:45:58Z</time>
      </trkpt>
      <trkpt lat="47.18246" lon="-1.52627">
        <ele>-0.5</ele>
        <time>2015-04-21T17:46:01Z</time>
      </trkpt>
      <trkpt lat="47.18247" lon="-1.52657">
        <ele>-0.4</ele>
        <time>2015-04-21T17:46:04Z</time>
      </trkpt>
      <trkpt lat="47.1824" lon="-1.52689">
        <ele>-0.2</ele>
        <time>2015-04-21T17:46:07Z</time>
      </trkpt>
      <trkpt lat="47.18237" lon="-1.52719">
        <ele>-0.2</ele>
        <time>2015-04-21T17:46:10Z</time>
      </trkpt>
      <trkpt lat="47.18239" lon="-1.52746">
        <ele>0.1</ele>
        <time>2015-04-21T17:46:14Z</time>
      </trkpt>
      <trkpt lat="47.18247" lon="-1.52774">
        <ele>0.2</ele>
        <time>2015-04-21T17:46:19Z</time>
      </trkpt>
      <trkpt lat="47.18257" lon="-1.528">
        <ele>0.8</ele>
        <time>2015-04-21T17:46:22Z</time>
      </trkpt>
      <trkpt lat="47.18265" lon="-1.52831">
        <ele>1</ele>
        <time>2015-04-21T17:46:25Z</time>
      </trkpt>
      <trkpt lat="47.18268" lon="-1.52864">
        <ele>1.6</ele>
        <time>2015-04-21T17:46:28Z</time>
      </trkpt>
      <trkpt lat="47.18277" lon="-1.52894">
        <ele>2.3</ele>
        <time>2015-04-21T17:46:31Z</time>
      </trkpt>
      <trkpt lat="47.1829" lon="-1.5292">
        <ele>2.9</ele>
        <time>2015-04-21T17:46:34Z</time>
      </trkpt>
      <trkpt lat="47.18302" lon="-1.52946">
        <ele>3.3</ele>
        <time>2015-04-21T17:46:37Z</time>
      </trkpt>
      <trkpt lat="47.1831" lon="-1.52974">
        <ele>4.1</ele>
        <time>2015-04-21T17:46:40Z</time>
      </trkpt>
      <trkpt lat="47.18318" lon="-1.52999">
        <ele>4.2</ele>
        <time>2015-04-21T17:46:43Z</time>
      </trkpt>
      <trkpt lat="47.18329" lon="-1.5302">
        <ele>5</ele>
        <time>2015-04-21T17:46:46Z</time>
      </trkpt>
      <trkpt lat="47.18343" lon="-1.53044">
        <ele>5.8</ele>
        <time>2015-04-21T17:46:50Z</time>
      </trkpt>
      <trkpt lat="47.18363" lon="-1.53048">
        <ele>6.4</ele>
        <time>2015-04-21T17:46:56Z</time>
      </trkpt>
      <trkpt lat="47.18356" lon="-1.53077">
        <ele>9</ele>
        <time>2015-04-21T17:47:04Z</time>
      </trkpt>
      <trkpt lat="47.18341" lon="-1.53098">
        <ele>9.5</ele>
        <time>2015-04-21T17:47:07Z</time>
      </trkpt>
      <trkpt lat="47.18326" lon="-1.53113">
        <ele>9.7</ele>
        <time>2015-04-21T17:47:10Z</time>
      </trkpt>
      <trkpt lat="47.18305" lon="-1.5313">
        <ele>8.9</ele>
        <time>2015-04-21T17:47:14Z</time>
      </trkpt>
      <trkpt lat="47.18289" lon="-1.53143">
        <ele>9</ele>
        <time>2015-04-21T17:47:17Z</time>
      </trkpt>
      <trkpt lat="47.18273" lon="-1.53158">
        <ele>8.3</ele>
        <time>2015-04-21T17:47:20Z</time>
      </trkpt>
      <trkpt lat="47.18256" lon="-1.53182">
        <ele>6.6</ele>
        <time>2015-04-21T17:47:24Z</time>
      </trkpt>
      <trkpt lat="47.18278" lon="-1.53171">
        <ele>6.1</ele>
        <time>2015-04-21T17:47:33Z</time>
      </trkpt>
      <trkpt lat="47.18297" lon="-1.53173">
        <ele>5.7</ele>
        <time>2015-04-21T17:47:37Z</time>
      </trkpt>
      <trkpt lat="47.18309" lon="-1.53194">
        <ele>6.1</ele>
        <time>2015-04-21T17:47:41Z</time>
      </trkpt>
      <trkpt lat="47.18323" lon="-1.53211">
        <ele>6.4</ele>
        <time>2015-04-21T17:47:44Z</time>
      </trkpt>
      <trkpt lat="47.1834" lon="-1.53235">
        <ele>6.8</ele>
        <time>2015-04-21T17:47:48Z</time>
      </trkpt>
      <trkpt lat="47.18353" lon="-1.53254">
        <ele>6.5</ele>
        <time>2015-04-21T17:47:51Z</time>
      </trkpt>
      <trkpt lat="47.18371" lon="-1.53276">
        <ele>6.7</ele>
        <time>2015-04-21T17:47:54Z</time>
      </trkpt>
      <trkpt lat="47.18387" lon="-1.53296">
        <ele>6.9</ele>
        <time>2015-04-21T17:47:57Z</time>
      </trkpt>
      <trkpt lat="47.18404" lon="-1.53314">
        <ele>7.2</ele>
        <time>2015-04-21T17:48:00Z</time>
      </trkpt>
      <trkpt lat="47.18419" lon="-1.5333">
        <ele>7.7</ele>
        <time>2015-04-21T17:48:03Z</time>
      </trkpt>
      <trkpt lat="47.18434" lon="-1.53348">
        <ele>8.1</ele>
        <time>2015-04-21T17:48:06Z</time>
      </trkpt>
      <trkpt lat="47.18449" lon="-1.53365">
        <ele>8.5</ele>
        <time>2015-04-21T17:48:09Z</time>
      </trkpt>
      <trkpt lat="47.18465" lon="-1.53382">
        <ele>8.8</ele>
        <time>2015-04-21T17:48:12Z</time>
      </trkpt>
      <trkpt lat="47.18482" lon="-1.53398">
        <ele>9.1</ele>
        <time>2015-04-21T17:48:15Z</time>
      </trkpt>
      <trkpt lat="47.18501" lon="-1.53418">
        <ele>9.6</ele>
        <time>2015-04-21T17:48:19Z</time>
      </trkpt>
      <trkpt lat="47.18516" lon="-1.53441">
        <ele>10.1</ele>
        <time>2015-04-21T17:48:23Z</time>
      </trkpt>
      <trkpt lat="47.18534" lon="-1.5346">
        <ele>9.8</ele>
        <time>2015-04-21T17:48:27Z</time>
      </trkpt>
      <trkpt lat="47.1855" lon="-1.53477">
        <ele>10.1</ele>
        <time>2015-04-21T17:48:30Z</time>
      </trkpt>
      <trkpt lat="47.18568" lon="-1.53494">
        <ele>10.4</ele>
        <time>2015-04-21T17:48:33Z</time>
      </trkpt>
      <trkpt lat="47.18585" lon="-1.53507">
        <ele>10.6</ele>
        <time>2015-04-21T17:48:36Z</time>
      </trkpt>
      <trkpt lat="47.18605" lon="-1.53525">
        <ele>10.8</ele>
        <time>2015-04-21T17:48:40Z</time>
      </trkpt>
      <trkpt lat="47.18623" lon="-1.53538">
        <ele>11.1</ele>
        <time>2015-04-21T17:48:43Z</time>
      </trkpt>
      <trkpt lat="47.18642" lon="-1.53552">
        <ele>10</ele>
        <time>2015-04-21T17:48:46Z</time>
      </trkpt>
      <trkpt lat="47.18661" lon="-1.53562">
        <ele>9.2</ele>
        <time>2015-04-21T17:48:49Z</time>
      </trkpt>
      <trkpt lat="47.18683" lon="-1.53569">
        <ele>8.3</ele>
        <time>2015-04-21T17:48:52Z</time>
      </trkpt>
      <trkpt lat="47.18702" lon="-1.53571">
        <ele>8.5</ele>
        <time>2015-04-21T17:48:54Z</time>
      </trkpt>
      <trkpt lat="47.18722" lon="-1.53576">
        <ele>8.4</ele>
        <time>2015-04-21T17:48:57Z</time>
      </trkpt>
      <trkpt lat="47.18741" lon="-1.53583">
        <ele>9.3</ele>
        <time>2015-04-21T17:49:00Z</time>
      </trkpt>
      <trkpt lat="47.18761" lon="-1.53588">
        <ele>8.7</ele>
        <time>2015-04-21T17:49:03Z</time>
      </trkpt>
      <trkpt lat="47.1878" lon="-1.53594">
        <ele>8.3</ele>
        <time>2015-04-21T17:49:06Z</time>
      </trkpt>
      <trkpt lat="47.18799" lon="-1.53598">
        <ele>7.6</ele>
        <time>2015-04-21T17:49:09Z</time>
      </trkpt>
      <trkpt lat="47.18818" lon="-1.53603">
        <ele>7.1</ele>
        <time>2015-04-21T17:49:12Z</time>
      </trkpt>
      <trkpt lat="47.18836" lon="-1.5361">
        <ele>7.6</ele>
        <time>2015-04-21T17:49:15Z</time>
      </trkpt>
      <trkpt lat="47.18858" lon="-1.53622">
        <ele>8.3</ele>
        <time>2015-04-21T17:49:19Z</time>
      </trkpt>
      <trkpt lat="47.18874" lon="-1.53635">
        <ele>8.8</ele>
        <time>2015-04-21T17:49:22Z</time>
      </trkpt>
      <trkpt lat="47.18895" lon="-1.53648">
        <ele>9</ele>
        <time>2015-04-21T17:49:26Z</time>
      </trkpt>
      <trkpt lat="47.18912" lon="-1.5366">
        <ele>8.9</ele>
        <time>2015-04-21T17:49:29Z</time>
      </trkpt>
      <trkpt lat="47.18929" lon="-1.53672">
        <ele>8.9</ele>
        <time>2015-04-21T17:49:32Z</time>
      </trkpt>
      <trkpt lat="47.18947" lon="-1.53686">
        <ele>9</ele>
        <time>2015-04-21T17:49:35Z</time>
      </trkpt>
      <trkpt lat="47.18964" lon="-1.53698">
        <ele>9.3</ele>
        <time>2015-04-21T17:49:38Z</time>
      </trkpt>
      <trkpt lat="47.18981" lon="-1.53711">
        <ele>9.5</ele>
        <time>2015-04-21T17:49:41Z</time>
      </trkpt>
      <trkpt lat="47.18999" lon="-1.53725">
        <ele>9.7</ele>
        <time>2015-04-21T17:49:44Z</time>
      </trkpt>
      <trkpt lat="47.19017" lon="-1.53744">
        <ele>10.3</ele>
        <time>2015-04-21T17:49:48Z</time>
      </trkpt>
      <trkpt lat="47.19032" lon="-1.53761">
        <ele>10.5</ele>
        <time>2015-04-21T17:49:51Z</time>
      </trkpt>
      <trkpt lat="47.19049" lon="-1.53783">
        <ele>10.2</ele>
        <time>2015-04-21T17:49:54Z</time>
      </trkpt>
      <trkpt lat="47.19066" lon="-1.53799">
        <ele>10.1</ele>
        <time>2015-04-21T17:49:57Z</time>
      </trkpt>
      <trkpt lat="47.1908" lon="-1.53816">
        <ele>10.5</ele>
        <time>2015-04-21T17:50:00Z</time>
      </trkpt>
      <trkpt lat="47.19094" lon="-1.53834">
        <ele>11.3</ele>
        <time>2015-04-21T17:50:03Z</time>
      </trkpt>
      <trkpt lat="47.1911" lon="-1.53856">
        <ele>11.5</ele>
        <time>2015-04-21T17:50:07Z</time>
      </trkpt>
      <trkpt lat="47.19127" lon="-1.53881">
        <ele>11.8</ele>
        <time>2015-04-21T17:50:11Z</time>
      </trkpt>
      <trkpt lat="47.19145" lon="-1.53901">
        <ele>12.7</ele>
        <time>2015-04-21T17:50:15Z</time>
      </trkpt>
      <trkpt lat="47.19158" lon="-1.53921">
        <ele>13.2</ele>
        <time>2015-04-21T17:50:18Z</time>
      </trkpt>
      <trkpt lat="47.1917" lon="-1.53943">
        <ele>14</ele>
        <time>2015-04-21T17:50:21Z</time>
      </trkpt>
      <trkpt lat="47.19182" lon="-1.53963">
        <ele>14.4</ele>
        <time>2015-04-21T17:50:24Z</time>
      </trkpt>
      <trkpt lat="47.19197" lon="-1.53985">
        <ele>14.6</ele>
        <time>2015-04-21T17:50:27Z</time>
      </trkpt>
      <trkpt lat="47.19211" lon="-1.54011">
        <ele>15.3</ele>
        <time>2015-04-21T17:50:31Z</time>
      </trkpt>
      <trkpt lat="47.19222" lon="-1.54032">
        <ele>16.2</ele>
        <time>2015-04-21T17:50:34Z</time>
      </trkpt>
      <trkpt lat="47.19233" lon="-1.54054">
        <ele>16.6</ele>
        <time>2015-04-21T17:50:37Z</time>
      </trkpt>
      <trkpt lat="47.19245" lon="-1.54078">
        <ele>17.2</ele>
        <time>2015-04-21T17:50:40Z</time>
      </trkpt>
      <trkpt lat="47.19256" lon="-1.54102">
        <ele>17.9</ele>
        <time>2015-04-21T17:50:43Z</time>
      </trkpt>
      <trkpt lat="47.19266" lon="-1.54125">
        <ele>18.6</ele>
        <time>2015-04-21T17:50:46Z</time>
      </trkpt>
      <trkpt lat="47.19279" lon="-1.54154">
        <ele>19.8</ele>
        <time>2015-04-21T17:50:50Z</time>
      </trkpt>
      <trkpt lat="47.19296" lon="-1.54177">
        <ele>20.8</ele>
        <time>2015-04-21T17:50:54Z</time>
      </trkpt>
      <trkpt lat="47.1931" lon="-1.54203">
        <ele>21.6</ele>
        <time>2015-04-21T17:50:57Z</time>
      </trkpt>
      <trkpt lat="47.1932" lon="-1.54228">
        <ele>22.2</ele>
        <time>2015-04-21T17:51:00Z</time>
      </trkpt>
      <trkpt lat="47.19332" lon="-1.5425">
        <ele>23.1</ele>
        <time>2015-04-21T17:51:03Z</time>
      </trkpt>
      <trkpt lat="47.19349" lon="-1.54276">
        <ele>23.7</ele>
        <time>2015-04-21T17:51:07Z</time>
      </trkpt>
      <trkpt lat="47.19363" lon="-1.54295">
        <ele>23.9</ele>
        <time>2015-04-21T17:51:10Z</time>
      </trkpt>
      <trkpt lat="47.19376" lon="-1.54314">
        <ele>23.9</ele>
        <time>2015-04-21T17:51:13Z</time>
      </trkpt>
      <trkpt lat="47.19393" lon="-1.54337">
        <ele>24.6</ele>
        <time>2015-04-21T17:51:17Z</time>
      </trkpt>
      <trkpt lat="47.1941" lon="-1.54361">
        <ele>25.1</ele>
        <time>2015-04-21T17:51:21Z</time>
      </trkpt>
      <trkpt lat="47.19427" lon="-1.54384">
        <ele>24.7</ele>
        <time>2015-04-21T17:51:25Z</time>
      </trkpt>
      <trkpt lat="47.19437" lon="-1.54411">
        <ele>24.1</ele>
        <time>2015-04-21T17:51:29Z</time>
      </trkpt>
      <trkpt lat="47.19451" lon="-1.54439">
        <ele>24</ele>
        <time>2015-04-21T17:51:33Z</time>
      </trkpt>
      <trkpt lat="47.19461" lon="-1.54462">
        <ele>24.5</ele>
        <time>2015-04-21T17:51:37Z</time>
      </trkpt>
      <trkpt lat="47.19475" lon="-1.54483">
        <ele>18.8</ele>
        <time>2015-04-21T17:51:46Z</time>
      </trkpt>
      <trkpt lat="47.19482" lon="-1.54514">
        <ele>17.7</ele>
        <time>2015-04-21T17:51:50Z</time>
      </trkpt>
      <trkpt lat="47.19488" lon="-1.54544">
        <ele>16.6</ele>
        <time>2015-04-21T17:51:53Z</time>
      </trkpt>
      <trkpt lat="47.19494" lon="-1.54575">
        <ele>15.9</ele>
        <time>2015-04-21T17:51:56Z</time>
      </trkpt>
      <trkpt lat="47.19506" lon="-1.54605">
        <ele>13.6</ele>
        <time>2015-04-21T17:52:00Z</time>
      </trkpt>
      <trkpt lat="47.19524" lon="-1.54622">
        <ele>12.8</ele>
        <time>2015-04-21T17:52:03Z</time>
      </trkpt>
      <trkpt lat="47.1954" lon="-1.54641">
        <ele>12.2</ele>
        <time>2015-04-21T17:52:06Z</time>
      </trkpt>
      <trkpt lat="47.19553" lon="-1.54661">
        <ele>11.8</ele>
        <time>2015-04-21T17:52:09Z</time>
      </trkpt>
      <trkpt lat="47.19571" lon="-1.54685">
        <ele>10.7</ele>
        <time>2015-04-21T17:52:13Z</time>
      </trkpt>
      <trkpt lat="47.19585" lon="-1.54712">
        <ele>10.3</ele>
        <time>2015-04-21T17:52:17Z</time>
      </trkpt>
      <trkpt lat="47.19599" lon="-1.54738">
        <ele>9.9</ele>
        <time>2015-04-21T17:52:21Z</time>
      </trkpt>
      <trkpt lat="47.19616" lon="-1.54759">
        <ele>9.7</ele>
        <time>2015-04-21T17:52:24Z</time>
      </trkpt>
      <trkpt lat="47.19633" lon="-1.54779">
        <ele>8.9</ele>
        <time>2015-04-21T17:52:27Z</time>
      </trkpt>
      <trkpt lat="47.19651" lon="-1.54799">
        <ele>8.5</ele>
        <time>2015-04-21T17:52:30Z</time>
      </trkpt>
      <trkpt lat="47.19667" lon="-1.54821">
        <ele>7.7</ele>
        <time>2015-04-21T17:52:33Z</time>
      </trkpt>
      <trkpt lat="47.19679" lon="-1.54847">
        <ele>7.6</ele>
        <time>2015-04-21T17:52:36Z</time>
      </trkpt>
      <trkpt lat="47.19684" lon="-1.54875">
        <ele>7.3</ele>
        <time>2015-04-21T17:52:39Z</time>
      </trkpt>
      <trkpt lat="47.19684" lon="-1.54901">
        <ele>7</ele>
        <time>2015-04-21T17:52:42Z</time>
      </trkpt>
      <trkpt lat="47.19681" lon="-1.54928">
        <ele>6.6</ele>
        <time>2015-04-21T17:52:45Z</time>
      </trkpt>
      <trkpt lat="47.19698" lon="-1.54947">
        <ele>5.9</ele>
        <time>2015-04-21T17:52:49Z</time>
      </trkpt>
      <trkpt lat="47.1972" lon="-1.54956">
        <ele>5</ele>
        <time>2015-04-21T17:52:53Z</time>
      </trkpt>
      <trkpt lat="47.19737" lon="-1.5497">
        <ele>6</ele>
        <time>2015-04-21T17:52:56Z</time>
      </trkpt>
      <trkpt lat="47.19732" lon="-1.55001">
        <ele>7.6</ele>
        <time>2015-04-21T17:53:05Z</time>
      </trkpt>
      <trkpt lat="47.19724" lon="-1.55034">
        <ele>9</ele>
        <time>2015-04-21T17:53:09Z</time>
      </trkpt>
      <trkpt lat="47.19697" lon="-1.55047">
        <ele>9.1</ele>
        <time>2015-04-21T17:53:10Z</time>
      </trkpt>
      <trkpt lat="47.19694" lon="-1.55075">
        <ele>9.8</ele>
        <time>2015-04-21T17:53:13Z</time>
      </trkpt>
      <trkpt lat="47.19689" lon="-1.55102">
        <ele>10.4</ele>
        <time>2015-04-21T17:53:16Z</time>
      </trkpt>
      <trkpt lat="47.19689" lon="-1.55135">
        <ele>10.8</ele>
        <time>2015-04-21T17:53:20Z</time>
      </trkpt>
      <trkpt lat="47.19687" lon="-1.55167">
        <ele>10.7</ele>
        <time>2015-04-21T17:53:24Z</time>
      </trkpt>
      <trkpt lat="47.19685" lon="-1.55199">
        <ele>10.8</ele>
        <time>2015-04-21T17:53:28Z</time>
      </trkpt>
      <trkpt lat="47.19682" lon="-1.55228">
        <ele>10.3</ele>
        <time>2015-04-21T17:53:32Z</time>
      </trkpt>
      <trkpt lat="47.19676" lon="-1.55254">
        <ele>9.8</ele>
        <time>2015-04-21T17:53:36Z</time>
      </trkpt>
      <trkpt lat="47.19672" lon="-1.55285">
        <ele>10.7</ele>
        <time>2015-04-21T17:53:40Z</time>
      </trkpt>
      <trkpt lat="47.19667" lon="-1.55316">
        <ele>11.4</ele>
        <time>2015-04-21T17:53:44Z</time>
      </trkpt>
      <trkpt lat="47.19665" lon="-1.55348">
        <ele>12.6</ele>
        <time>2015-04-21T17:53:48Z</time>
      </trkpt>
      <trkpt lat="47.19663" lon="-1.55381">
        <ele>14</ele>
        <time>2015-04-21T17:53:53Z</time>
      </trkpt>
      <trkpt lat="47.19662" lon="-1.55407">
        <ele>14.7</ele>
        <time>2015-04-21T17:53:57Z</time>
      </trkpt>
      <trkpt lat="47.19664" lon="-1.55434">
        <ele>15.4</ele>
        <time>2015-04-21T17:54:01Z</time>
      </trkpt>
      <trkpt lat="47.19672" lon="-1.55463">
        <ele>16.9</ele>
        <time>2015-04-21T17:54:07Z</time>
      </trkpt>
      <trkpt lat="47.19677" lon="-1.55492">
        <ele>17.7</ele>
        <time>2015-04-21T17:54:11Z</time>
      </trkpt>
      <trkpt lat="47.19687" lon="-1.55517">
        <ele>18.7</ele>
        <time>2015-04-21T17:54:14Z</time>
      </trkpt>
      <trkpt lat="47.19688" lon="-1.55547">
        <ele>19.1</ele>
        <time>2015-04-21T17:54:18Z</time>
      </trkpt>
      <trkpt lat="47.19669" lon="-1.55555">
        <ele>16.9</ele>
        <time>2015-04-21T17:54:24Z</time>
      </trkpt>
      <trkpt lat="47.19661" lon="-1.55582">
        <ele>17.5</ele>
        <time>2015-04-21T17:54:28Z</time>
      </trkpt>
      <trkpt lat="47.19643" lon="-1.55599">
        <ele>17.9</ele>
        <time>2015-04-21T17:54:34Z</time>
      </trkpt>
      <trkpt lat="47.19633" lon="-1.55625">
        <ele>18.1</ele>
        <time>2015-04-21T17:54:39Z</time>
      </trkpt>
      <trkpt lat="47.19639" lon="-1.55659">
        <ele>18.3</ele>
        <time>2015-04-21T17:54:43Z</time>
      </trkpt>
      <trkpt lat="47.19645" lon="-1.55689">
        <ele>18.5</ele>
        <time>2015-04-21T17:54:46Z</time>
      </trkpt>
      <trkpt lat="47.19653" lon="-1.55722">
        <ele>18.9</ele>
        <time>2015-04-21T17:54:49Z</time>
      </trkpt>
      <trkpt lat="47.19657" lon="-1.5575">
        <ele>19</ele>
        <time>2015-04-21T17:54:52Z</time>
      </trkpt>
      <trkpt lat="47.1966" lon="-1.5578">
        <ele>19.1</ele>
        <time>2015-04-21T17:54:55Z</time>
      </trkpt>
      <trkpt lat="47.19667" lon="-1.55813">
        <ele>16.3</ele>
        <time>2015-04-21T17:54:59Z</time>
      </trkpt>
      <trkpt lat="47.19667" lon="-1.55843">
        <ele>16.2</ele>
        <time>2015-04-21T17:55:02Z</time>
      </trkpt>
      <trkpt lat="47.19668" lon="-1.55872">
        <ele>16.2</ele>
        <time>2015-04-21T17:55:05Z</time>
      </trkpt>
      <trkpt lat="47.19669" lon="-1.559">
        <ele>16.4</ele>
        <time>2015-04-21T17:55:08Z</time>
      </trkpt>
      <trkpt lat="47.1967" lon="-1.55928">
        <ele>16.5</ele>
        <time>2015-04-21T17:55:11Z</time>
      </trkpt>
      <trkpt lat="47.19666" lon="-1.55955">
        <ele>16.7</ele>
        <time>2015-04-21T17:55:14Z</time>
      </trkpt>
      <trkpt lat="47.19663" lon="-1.55986">
        <ele>16.7</ele>
        <time>2015-04-21T17:55:17Z</time>
      </trkpt>
      <trkpt lat="47.19657" lon="-1.56017">
        <ele>16.3</ele>
        <time>2015-04-21T17:55:20Z</time>
      </trkpt>
      <trkpt lat="47.19651" lon="-1.56047">
        <ele>15.7</ele>
        <time>2015-04-21T17:55:23Z</time>
      </trkpt>
      <trkpt lat="47.19648" lon="-1.56079">
        <ele>14.4</ele>
        <time>2015-04-21T17:55:26Z</time>
      </trkpt>
      <trkpt lat="47.19645" lon="-1.56106">
        <ele>14.1</ele>
        <time>2015-04-21T17:55:29Z</time>
      </trkpt>
      <trkpt lat="47.19642" lon="-1.56141">
        <ele>13.4</ele>
        <time>2015-04-21T17:55:33Z</time>
      </trkpt>
      <trkpt lat="47.19652" lon="-1.5617">
        <ele>13.1</ele>
        <time>2015-04-21T17:55:38Z</time>
      </trkpt>
      <trkpt lat="47.19673" lon="-1.56177">
        <ele>13.4</ele>
        <time>2015-04-21T17:55:42Z</time>
      </trkpt>
      <trkpt lat="47.19682" lon="-1.562">
        <ele>11.3</ele>
        <time>2015-04-21T17:55:45Z</time>
      </trkpt>
      <trkpt lat="47.19685" lon="-1.56226">
        <ele>11.9</ele>
        <time>2015-04-21T17:55:48Z</time>
      </trkpt>
      <trkpt lat="47.19678" lon="-1.56251">
        <ele>11.4</ele>
        <time>2015-04-21T17:55:51Z</time>
      </trkpt>
      <trkpt lat="47.19657" lon="-1.56263">
        <ele>12.6</ele>
        <time>2015-04-21T17:55:56Z</time>
      </trkpt>
      <trkpt lat="47.19643" lon="-1.56286">
        <ele>12.4</ele>
        <time>2015-04-21T17:56:00Z</time>
      </trkpt>
      <trkpt lat="47.19639" lon="-1.56314">
        <ele>12.3</ele>
        <time>2015-04-21T17:56:03Z</time>
      </trkpt>
      <trkpt lat="47.19637" lon="-1.56343">
        <ele>12.2</ele>
        <time>2015-04-21T17:56:06Z</time>
      </trkpt>
      <trkpt lat="47.19636" lon="-1.56374">
        <ele>12</ele>
        <time>2015-04-21T17:56:09Z</time>
      </trkpt>
      <trkpt lat="47.19636" lon="-1.56404">
        <ele>11.8</ele>
        <time>2015-04-21T17:56:12Z</time>
      </trkpt>
      <trkpt lat="47.19636" lon="-1.56436">
        <ele>11.9</ele>
        <time>2015-04-21T17:56:15Z</time>
      </trkpt>
      <trkpt lat="47.19637" lon="-1.56468">
        <ele>12</ele>
        <time>2015-04-21T17:56:18Z</time>
      </trkpt>
      <trkpt lat="47.19639" lon="-1.56501">
        <ele>12.1</ele>
        <time>2015-04-21T17:56:21Z</time>
      </trkpt>
      <trkpt lat="47.19638" lon="-1.56533">
        <ele>11.9</ele>
        <time>2015-04-21T17:56:24Z</time>
      </trkpt>
      <trkpt lat="47.19638" lon="-1.56566">
        <ele>12.1</ele>
        <time>2015-04-21T17:56:27Z</time>
      </trkpt>
      <trkpt lat="47.19638" lon="-1.56598">
        <ele>12.3</ele>
        <time>2015-04-21T17:56:30Z</time>
      </trkpt>
      <trkpt lat="47.1964" lon="-1.56629">
        <ele>12.1</ele>
        <time>2015-04-21T17:56:33Z</time>
      </trkpt>
      <trkpt lat="47.19642" lon="-1.56662">
        <ele>11.8</ele>
        <time>2015-04-21T17:56:36Z</time>
      </trkpt>
      <trkpt lat="47.1964" lon="-1.56694">
        <ele>11.2</ele>
        <time>2015-04-21T17:56:39Z</time>
      </trkpt>
      <trkpt lat="47.19637" lon="-1.56728">
        <ele>10.4</ele>
        <time>2015-04-21T17:56:42Z</time>
      </trkpt>
      <trkpt lat="47.19632" lon="-1.56764">
        <ele>10.1</ele>
        <time>2015-04-21T17:56:45Z</time>
      </trkpt>
      <trkpt lat="47.19627" lon="-1.56801">
        <ele>7.4</ele>
        <time>2015-04-21T17:56:48Z</time>
      </trkpt>
      <trkpt lat="47.19624" lon="-1.56836">
        <ele>6</ele>
        <time>2015-04-21T17:56:51Z</time>
      </trkpt>
      <trkpt lat="47.19622" lon="-1.56868">
        <ele>5.2</ele>
        <time>2015-04-21T17:56:54Z</time>
      </trkpt>
      <trkpt lat="47.19619" lon="-1.569">
        <ele>5.9</ele>
        <time>2015-04-21T17:56:57Z</time>
      </trkpt>
      <trkpt lat="47.19616" lon="-1.56933">
        <ele>5.8</ele>
        <time>2015-04-21T17:57:00Z</time>
      </trkpt>
      <trkpt lat="47.19618" lon="-1.56964">
        <ele>5.4</ele>
        <time>2015-04-21T17:57:03Z</time>
      </trkpt>
      <trkpt lat="47.19617" lon="-1.56996">
        <ele>4.9</ele>
        <time>2015-04-21T17:57:06Z</time>
      </trkpt>
      <trkpt lat="47.19615" lon="-1.57027">
        <ele>4.3</ele>
        <time>2015-04-21T17:57:09Z</time>
      </trkpt>
      <trkpt lat="47.19612" lon="-1.57056">
        <ele>3.7</ele>
        <time>2015-04-21T17:57:12Z</time>
      </trkpt>
      <trkpt lat="47.19609" lon="-1.57086">
        <ele>2.7</ele>
        <time>2015-04-21T17:57:15Z</time>
      </trkpt>
      <trkpt lat="47.19608" lon="-1.57115">
        <ele>2.2</ele>
        <time>2015-04-21T17:57:18Z</time>
      </trkpt>
      <trkpt lat="47.19604" lon="-1.57145">
        <ele>2.2</ele>
        <time>2015-04-21T17:57:21Z</time>
      </trkpt>
      <trkpt lat="47.19603" lon="-1.57172">
        <ele>1.7</ele>
        <time>2015-04-21T17:57:24Z</time>
      </trkpt>
      <trkpt lat="47.19601" lon="-1.57202">
        <ele>1.1</ele>
        <time>2015-04-21T17:57:27Z</time>
      </trkpt>
      <trkpt lat="47.19601" lon="-1.57234">
        <ele>0.5</ele>
        <time>2015-04-21T17:57:30Z</time>
      </trkpt>
      <trkpt lat="47.19598" lon="-1.57264">
        <ele>0.2</ele>
        <time>2015-04-21T17:57:33Z</time>
      </trkpt>
      <trkpt lat="47.19594" lon="-1.57295">
        <ele>0.1</ele>
        <time>2015-04-21T17:57:36Z</time>
      </trkpt>
      <trkpt lat="47.19588" lon="-1.57324">
        <ele>-0.1</ele>
        <time>2015-04-21T17:57:39Z</time>
      </trkpt>
      <trkpt lat="47.19582" lon="-1.57351">
        <ele>-0.8</ele>
        <time>2015-04-21T17:57:42Z</time>
      </trkpt>
      <trkpt lat="47.19576" lon="-1.57381">
        <ele>-1.5</ele>
        <time>2015-04-21T17:57:45Z</time>
      </trkpt>
      <trkpt lat="47.19573" lon="-1.5741">
        <ele>-1.6</ele>
        <time>2015-04-21T17:57:48Z</time>
      </trkpt>
      <trkpt lat="47.1957" lon="-1.57439">
        <ele>-1.6</ele>
        <time>2015-04-21T17:57:51Z</time>
      </trkpt>
      <trkpt lat="47.19565" lon="-1.57466">
        <ele>-1.7</ele>
        <time>2015-04-21T17:57:54Z</time>
      </trkpt>
      <trkpt lat="47.19558" lon="-1.57495">
        <ele>-1.7</ele>
        <time>2015-04-21T17:57:57Z</time>
      </trkpt>
      <trkpt lat="47.1955" lon="-1.57523">
        <ele>-1.8</ele>
        <time>2015-04-21T17:58:00Z</time>
      </trkpt>
      <trkpt lat="47.19544" lon="-1.57551">
        <ele>-2.1</ele>
        <time>2015-04-21T17:58:03Z</time>
      </trkpt>
      <trkpt lat="47.19538" lon="-1.57579">
        <ele>-2.6</ele>
        <time>2015-04-21T17:58:06Z</time>
      </trkpt>
      <trkpt lat="47.19533" lon="-1.57607">
        <ele>-2.5</ele>
        <time>2015-04-21T17:58:09Z</time>
      </trkpt>
      <trkpt lat="47.19529" lon="-1.57635">
        <ele>-2.4</ele>
        <time>2015-04-21T17:58:12Z</time>
      </trkpt>
      <trkpt lat="47.19525" lon="-1.57664">
        <ele>-2.3</ele>
        <time>2015-04-21T17:58:15Z</time>
      </trkpt>
      <trkpt lat="47.19522" lon="-1.57695">
        <ele>-2</ele>
        <time>2015-04-21T17:58:18Z</time>
      </trkpt>
      <trkpt lat="47.19518" lon="-1.57723">
        <ele>-2.1</ele>
        <time>2015-04-21T17:58:21Z</time>
      </trkpt>
      <trkpt lat="47.19515" lon="-1.57753">
        <ele>-2.1</ele>
        <time>2015-04-21T17:58:24Z</time>
      </trkpt>
      <trkpt lat="47.1951" lon="-1.57784">
        <ele>-2.8</ele>
        <time>2015-04-21T17:58:27Z</time>
      </trkpt>
      <trkpt lat="47.19503" lon="-1.57815">
        <ele>-3</ele>
        <time>2015-04-21T17:58:30Z</time>
      </trkpt>
      <trkpt lat="47.19495" lon="-1.57846">
        <ele>-3.6</ele>
        <time>2015-04-21T17:58:33Z</time>
      </trkpt>
      <trkpt lat="47.19489" lon="-1.57876">
        <ele>-4.1</ele>
        <time>2015-04-21T17:58:36Z</time>
      </trkpt>
      <trkpt lat="47.19484" lon="-1.57907">
        <ele>-4.5</ele>
        <time>2015-04-21T17:58:39Z</time>
      </trkpt>
      <trkpt lat="47.19481" lon="-1.57939">
        <ele>-5.3</ele>
        <time>2015-04-21T17:58:42Z</time>
      </trkpt>
      <trkpt lat="47.19476" lon="-1.57972">
        <ele>-6</ele>
        <time>2015-04-21T17:58:45Z</time>
      </trkpt>
      <trkpt lat="47.1947" lon="-1.58004">
        <ele>-6.3</ele>
        <time>2015-04-21T17:58:48Z</time>
      </trkpt>
      <trkpt lat="47.19466" lon="-1.58034">
        <ele>-6.2</ele>
        <time>2015-04-21T17:58:51Z</time>
      </trkpt>
      <trkpt lat="47.19463" lon="-1.58061">
        <ele>-6.3</ele>
        <time>2015-04-21T17:58:54Z</time>
      </trkpt>
      <trkpt lat="47.19459" lon="-1.58086">
        <ele>-6.5</ele>
        <time>2015-04-21T17:58:57Z</time>
      </trkpt>
      <trkpt lat="47.19442" lon="-1.58113">
        <ele>-6.2</ele>
        <time>2015-04-21T17:59:01Z</time>
      </trkpt>
      <trkpt lat="47.19425" lon="-1.58137">
        <ele>-6.6</ele>
        <time>2015-04-21T17:59:04Z</time>
      </trkpt>
      <trkpt lat="47.19409" lon="-1.5816">
        <ele>-6.9</ele>
        <time>2015-04-21T17:59:07Z</time>
      </trkpt>
      <trkpt lat="47.194" lon="-1.58184">
        <ele>-7.2</ele>
        <time>2015-04-21T17:59:10Z</time>
      </trkpt>
      <trkpt lat="47.1939" lon="-1.58207">
        <ele>-7.5</ele>
        <time>2015-04-21T17:59:13Z</time>
      </trkpt>
      <trkpt lat="47.19381" lon="-1.58231">
        <ele>-7.7</ele>
        <time>2015-04-21T17:59:16Z</time>
      </trkpt>
      <trkpt lat="47.19373" lon="-1.58257">
        <ele>-7.9</ele>
        <time>2015-04-21T17:59:19Z</time>
      </trkpt>
      <trkpt lat="47.19361" lon="-1.58282">
        <ele>-8</ele>
        <time>2015-04-21T17:59:22Z</time>
      </trkpt>
      <trkpt lat="47.19344" lon="-1.58303">
        <ele>-7.8</ele>
        <time>2015-04-21T17:59:25Z</time>
      </trkpt>
      <trkpt lat="47.19325" lon="-1.58321">
        <ele>-7.7</ele>
        <time>2015-04-21T17:59:28Z</time>
      </trkpt>
      <trkpt lat="47.19305" lon="-1.58341">
        <ele>-8.3</ele>
        <time>2015-04-21T17:59:31Z</time>
      </trkpt>
      <trkpt lat="47.19285" lon="-1.58362">
        <ele>-8.9</ele>
        <time>2015-04-21T17:59:34Z</time>
      </trkpt>
      <trkpt lat="47.19265" lon="-1.58381">
        <ele>-9.4</ele>
        <time>2015-04-21T17:59:37Z</time>
      </trkpt>
      <trkpt lat="47.19244" lon="-1.584">
        <ele>-10.3</ele>
        <time>2015-04-21T17:59:40Z</time>
      </trkpt>
      <trkpt lat="47.19221" lon="-1.58414">
        <ele>-10.8</ele>
        <time>2015-04-21T17:59:43Z</time>
      </trkpt>
      <trkpt lat="47.19202" lon="-1.58429">
        <ele>-11</ele>
        <time>2015-04-21T17:59:46Z</time>
      </trkpt>
      <trkpt lat="47.19181" lon="-1.58446">
        <ele>-11.9</ele>
        <time>2015-04-21T17:59:49Z</time>
      </trkpt>
      <trkpt lat="47.19166" lon="-1.58464">
        <ele>-12.9</ele>
        <time>2015-04-21T17:59:52Z</time>
      </trkpt>
      <trkpt lat="47.1915" lon="-1.58478">
        <ele>-13.5</ele>
        <time>2015-04-21T17:59:55Z</time>
      </trkpt>
      <trkpt lat="47.19129" lon="-1.58494">
        <ele>-14.1</ele>
        <time>2015-04-21T17:59:58Z</time>
      </trkpt>
      <trkpt lat="47.19107" lon="-1.58512">
        <ele>-14.7</ele>
        <time>2015-04-21T18:00:01Z</time>
      </trkpt>
      <trkpt lat="47.19087" lon="-1.58529">
        <ele>-15.3</ele>
        <time>2015-04-21T18:00:04Z</time>
      </trkpt>
      <trkpt lat="47.19068" lon="-1.58547">
        <ele>-15.8</ele>
        <time>2015-04-21T18:00:07Z</time>
      </trkpt>
      <trkpt lat="47.1905" lon="-1.58566">
        <ele>-16.1</ele>
        <time>2015-04-21T18:00:10Z</time>
      </trkpt>
      <trkpt lat="47.19033" lon="-1.58582">
        <ele>-16.2</ele>
        <time>2015-04-21T18:00:13Z</time>
      </trkpt>
      <trkpt lat="47.19014" lon="-1.58598">
        <ele>-16.6</ele>
        <time>2015-04-21T18:00:16Z</time>
      </trkpt>
      <trkpt lat="47.18997" lon="-1.58617">
        <ele>-17.3</ele>
        <time>2015-04-21T18:00:19Z</time>
      </trkpt>
      <trkpt lat="47.1898" lon="-1.58634">
        <ele>-17.4</ele>
        <time>2015-04-21T18:00:22Z</time>
      </trkpt>
      <trkpt lat="47.18966" lon="-1.58652">
        <ele>-13.4</ele>
        <time>2015-04-21T18:00:24Z</time>
      </trkpt>
      <trkpt lat="47.18948" lon="-1.58668">
        <ele>-14.1</ele>
        <time>2015-04-21T18:00:27Z</time>
      </trkpt>
      <trkpt lat="47.18931" lon="-1.58686">
        <ele>-11.2</ele>
        <time>2015-04-21T18:00:30Z</time>
      </trkpt>
      <trkpt lat="47.18915" lon="-1.58702">
        <ele>-8.8</ele>
        <time>2015-04-21T18:00:33Z</time>
      </trkpt>
      <trkpt lat="47.18899" lon="-1.58716">
        <ele>-6.2</ele>
        <time>2015-04-21T18:00:36Z</time>
      </trkpt>
      <trkpt lat="47.18878" lon="-1.58729">
        <ele>-3.7</ele>
        <time>2015-04-21T18:00:40Z</time>
      </trkpt>
      <trkpt lat="47.18857" lon="-1.58737">
        <ele>-2.4</ele>
        <time>2015-04-21T18:00:44Z</time>
      </trkpt>
      <trkpt lat="47.18838" lon="-1.5875">
        <ele>-1.2</ele>
        <time>2015-04-21T18:00:48Z</time>
      </trkpt>
      <trkpt lat="47.18828" lon="-1.58782">
        <ele>2.5</ele>
        <time>2015-04-21T18:00:52Z</time>
      </trkpt>
      <trkpt lat="47.18814" lon="-1.58802">
        <ele>4.8</ele>
        <time>2015-04-21T18:00:55Z</time>
      </trkpt>
      <trkpt lat="47.18797" lon="-1.58816">
        <ele>6</ele>
        <time>2015-04-21T18:00:58Z</time>
      </trkpt>
      <trkpt lat="47.18786" lon="-1.58838">
        <ele>7.8</ele>
        <time>2015-04-21T18:01:01Z</time>
      </trkpt>
      <trkpt lat="47.1878" lon="-1.58866">
        <ele>9.4</ele>
        <time>2015-04-21T18:01:04Z</time>
      </trkpt>
      <trkpt lat="47.18775" lon="-1.58893">
        <ele>10.4</ele>
        <time>2015-04-21T18:01:07Z</time>
      </trkpt>
      <trkpt lat="47.18771" lon="-1.58921">
        <ele>11.6</ele>
        <time>2015-04-21T18:01:10Z</time>
      </trkpt>
      <trkpt lat="47.18766" lon="-1.5895">
        <ele>12.6</ele>
        <time>2015-04-21T18:01:13Z</time>
      </trkpt>
      <trkpt lat="47.18764" lon="-1.5898">
        <ele>13.6</ele>
        <time>2015-04-21T18:01:16Z</time>
      </trkpt>
      <trkpt lat="47.18761" lon="-1.59009">
        <ele>14.6</ele>
        <time>2015-04-21T18:01:19Z</time>
      </trkpt>
      <trkpt lat="47.18759" lon="-1.59038">
        <ele>15.8</ele>
        <time>2015-04-21T18:01:22Z</time>
      </trkpt>
      <trkpt lat="47.18755" lon="-1.59067">
        <ele>16.9</ele>
        <time>2015-04-21T18:01:25Z</time>
      </trkpt>
      <trkpt lat="47.18751" lon="-1.59096">
        <ele>18.1</ele>
        <time>2015-04-21T18:01:28Z</time>
      </trkpt>
      <trkpt lat="47.18746" lon="-1.59125">
        <ele>19</ele>
        <time>2015-04-21T18:01:31Z</time>
      </trkpt>
      <trkpt lat="47.18743" lon="-1.59154">
        <ele>19.4</ele>
        <time>2015-04-21T18:01:34Z</time>
      </trkpt>
      <trkpt lat="47.1874" lon="-1.59183">
        <ele>20</ele>
        <time>2015-04-21T18:01:37Z</time>
      </trkpt>
      <trkpt lat="47.18737" lon="-1.59211">
        <ele>20.4</ele>
        <time>2015-04-21T18:01:40Z</time>
      </trkpt>
      <trkpt lat="47.18733" lon="-1.59241">
        <ele>20.9</ele>
        <time>2015-04-21T18:01:43Z</time>
      </trkpt>
      <trkpt lat="47.1873" lon="-1.59272">
        <ele>21.5</ele>
        <time>2015-04-21T18:01:46Z</time>
      </trkpt>
      <trkpt lat="47.18727" lon="-1.59301">
        <ele>21.9</ele>
        <time>2015-04-21T18:01:49Z</time>
      </trkpt>
      <trkpt lat="47.18724" lon="-1.59331">
        <ele>22</ele>
        <time>2015-04-21T18:01:52Z</time>
      </trkpt>
      <trkpt lat="47.1872" lon="-1.59361">
        <ele>22.1</ele>
        <time>2015-04-21T18:01:55Z</time>
      </trkpt>
      <trkpt lat="47.18717" lon="-1.5939">
        <ele>22</ele>
        <time>2015-04-21T18:01:58Z</time>
      </trkpt>
      <trkpt lat="47.18713" lon="-1.5942">
        <ele>22.1</ele>
        <time>2015-04-21T18:02:01Z</time>
      </trkpt>
      <trkpt lat="47.18714" lon="-1.59449">
        <ele>24.7</ele>
        <time>2015-04-21T18:02:05Z</time>
      </trkpt>
      <trkpt lat="47.18712" lon="-1.59475">
        <ele>25.4</ele>
        <time>2015-04-21T18:02:08Z</time>
      </trkpt>
      <trkpt lat="47.18708" lon="-1.59503">
        <ele>25.6</ele>
        <time>2015-04-21T18:02:11Z</time>
      </trkpt>
      <trkpt lat="47.18705" lon="-1.59532">
        <ele>25.6</ele>
        <time>2015-04-21T18:02:14Z</time>
      </trkpt>
      <trkpt lat="47.18701" lon="-1.59564">
        <ele>24.2</ele>
        <time>2015-04-21T18:02:17Z</time>
      </trkpt>
      <trkpt lat="47.18696" lon="-1.59592">
        <ele>23.2</ele>
        <time>2015-04-21T18:02:20Z</time>
      </trkpt>
      <trkpt lat="47.18693" lon="-1.59622">
        <ele>23.1</ele>
        <time>2015-04-21T18:02:23Z</time>
      </trkpt>
      <trkpt lat="47.1869" lon="-1.59653">
        <ele>22.2</ele>
        <time>2015-04-21T18:02:26Z</time>
      </trkpt>
      <trkpt lat="47.18685" lon="-1.59681">
        <ele>21.8</ele>
        <time>2015-04-21T18:02:29Z</time>
      </trkpt>
      <trkpt lat="47.18683" lon="-1.59712">
        <ele>20.1</ele>
        <time>2015-04-21T18:02:32Z</time>
      </trkpt>
      <trkpt lat="47.18684" lon="-1.59742">
        <ele>18.8</ele>
        <time>2015-04-21T18:02:35Z</time>
      </trkpt>
      <trkpt lat="47.1869" lon="-1.59772">
        <ele>18.2</ele>
        <time>2015-04-21T18:02:38Z</time>
      </trkpt>
      <trkpt lat="47.18691" lon="-1.59799">
        <ele>17.8</ele>
        <time>2015-04-21T18:02:41Z</time>
      </trkpt>
      <trkpt lat="47.18676" lon="-1.59829">
        <ele>17.5</ele>
        <time>2015-04-21T18:02:44Z</time>
      </trkpt>
      <trkpt lat="47.18656" lon="-1.59843">
        <ele>16.2</ele>
        <time>2015-04-21T18:02:47Z</time>
      </trkpt>
      <trkpt lat="47.18638" lon="-1.5983">
        <ele>14.5</ele>
        <time>2015-04-21T18:02:50Z</time>
      </trkpt>
      <trkpt lat="47.18633" lon="-1.59857">
        <ele>12.4</ele>
        <time>2015-04-21T18:02:55Z</time>
      </trkpt>
      <trkpt lat="47.1863" lon="-1.59887">
        <ele>11.8</ele>
        <time>2015-04-21T18:02:58Z</time>
      </trkpt>
      <trkpt lat="47.18621" lon="-1.59917">
        <ele>11.6</ele>
        <time>2015-04-21T18:03:01Z</time>
      </trkpt>
      <trkpt lat="47.18613" lon="-1.59947">
        <ele>11.6</ele>
        <time>2015-04-21T18:03:04Z</time>
      </trkpt>
      <trkpt lat="47.18604" lon="-1.59978">
        <ele>12</ele>
        <time>2015-04-21T18:03:07Z</time>
      </trkpt>
      <trkpt lat="47.18596" lon="-1.60007">
        <ele>12.8</ele>
        <time>2015-04-21T18:03:10Z</time>
      </trkpt>
      <trkpt lat="47.18587" lon="-1.60035">
        <ele>13.5</ele>
        <time>2015-04-21T18:03:13Z</time>
      </trkpt>
      <trkpt lat="47.18577" lon="-1.60061">
        <ele>14.2</ele>
        <time>2015-04-21T18:03:16Z</time>
      </trkpt>
      <trkpt lat="47.18567" lon="-1.60087">
        <ele>14.7</ele>
        <time>2015-04-21T18:03:19Z</time>
      </trkpt>
      <trkpt lat="47.18556" lon="-1.60113">
        <ele>15</ele>
        <time>2015-04-21T18:03:22Z</time>
      </trkpt>
      <trkpt lat="47.18544" lon="-1.6014">
        <ele>15.1</ele>
        <time>2015-04-21T18:03:25Z</time>
      </trkpt>
      <trkpt lat="47.18533" lon="-1.60165">
        <ele>15.3</ele>
        <time>2015-04-21T18:03:28Z</time>
      </trkpt>
      <trkpt lat="47.18522" lon="-1.60188">
        <ele>15.5</ele>
        <time>2015-04-21T18:03:31Z</time>
      </trkpt>
      <trkpt lat="47.18511" lon="-1.6021">
        <ele>16.2</ele>
        <time>2015-04-21T18:03:34Z</time>
      </trkpt>
      <trkpt lat="47.185" lon="-1.60233">
        <ele>16.6</ele>
        <time>2015-04-21T18:03:37Z</time>
      </trkpt>
      <trkpt lat="47.18488" lon="-1.60253">
        <ele>16.7</ele>
        <time>2015-04-21T18:03:40Z</time>
      </trkpt>
      <trkpt lat="47.18476" lon="-1.60275">
        <ele>16.8</ele>
        <time>2015-04-21T18:03:43Z</time>
      </trkpt>
      <trkpt lat="47.18463" lon="-1.60296">
        <ele>15.7</ele>
        <time>2015-04-21T18:03:46Z</time>
      </trkpt>
      <trkpt lat="47.1845" lon="-1.60317">
        <ele>15.9</ele>
        <time>2015-04-21T18:03:49Z</time>
      </trkpt>
      <trkpt lat="47.18438" lon="-1.60338">
        <ele>15.8</ele>
        <time>2015-04-21T18:03:52Z</time>
      </trkpt>
      <trkpt lat="47.18425" lon="-1.60357">
        <ele>14.9</ele>
        <time>2015-04-21T18:03:55Z</time>
      </trkpt>
      <trkpt lat="47.18411" lon="-1.60378">
        <ele>14.8</ele>
        <time>2015-04-21T18:03:58Z</time>
      </trkpt>
      <trkpt lat="47.18396" lon="-1.60398">
        <ele>13.2</ele>
        <time>2015-04-21T18:04:01Z</time>
      </trkpt>
      <trkpt lat="47.18382" lon="-1.60418">
        <ele>11.1</ele>
        <time>2015-04-21T18:04:04Z</time>
      </trkpt>
      <trkpt lat="47.18368" lon="-1.60437">
        <ele>9.5</ele>
        <time>2015-04-21T18:04:07Z</time>
      </trkpt>
      <trkpt lat="47.18353" lon="-1.60456">
        <ele>8.9</ele>
        <time>2015-04-21T18:04:10Z</time>
      </trkpt>
      <trkpt lat="47.18338" lon="-1.60474">
        <ele>7.7</ele>
        <time>2015-04-21T18:04:13Z</time>
      </trkpt>
      <trkpt lat="47.18322" lon="-1.60491">
        <ele>6.4</ele>
        <time>2015-04-21T18:04:16Z</time>
      </trkpt>
      <trkpt lat="47.18305" lon="-1.60508">
        <ele>4.9</ele>
        <time>2015-04-21T18:04:19Z</time>
      </trkpt>
      <trkpt lat="47.18284" lon="-1.60525">
        <ele>4</ele>
        <time>2015-04-21T18:04:22Z</time>
      </trkpt>
      <trkpt lat="47.18266" lon="-1.6054">
        <ele>3.2</ele>
        <time>2015-04-21T18:04:25Z</time>
      </trkpt>
      <trkpt lat="47.18246" lon="-1.60557">
        <ele>2.7</ele>
        <time>2015-04-21T18:04:29Z</time>
      </trkpt>
      <trkpt lat="47.18229" lon="-1.60567">
        <ele>2.8</ele>
        <time>2015-04-21T18:04:32Z</time>
      </trkpt>
      <trkpt lat="47.1821" lon="-1.60575">
        <ele>4.1</ele>
        <time>2015-04-21T18:04:36Z</time>
      </trkpt>
      <trkpt lat="47.18194" lon="-1.60588">
        <ele>4.4</ele>
        <time>2015-04-21T18:04:40Z</time>
      </trkpt>
      <trkpt lat="47.18175" lon="-1.60604">
        <ele>3.5</ele>
        <time>2015-04-21T18:04:45Z</time>
      </trkpt>
      <trkpt lat="47.18156" lon="-1.60604">
        <ele>3.4</ele>
        <time>2015-04-21T18:04:48Z</time>
      </trkpt>
      <trkpt lat="47.18137" lon="-1.606">
        <ele>2.8</ele>
        <time>2015-04-21T18:04:51Z</time>
      </trkpt>
      <trkpt lat="47.18118" lon="-1.60593">
        <ele>3.2</ele>
        <time>2015-04-21T18:04:54Z</time>
      </trkpt>
      <trkpt lat="47.181" lon="-1.60584">
        <ele>3.8</ele>
        <time>2015-04-21T18:04:57Z</time>
      </trkpt>
      <trkpt lat="47.18077" lon="-1.60572">
        <ele>4.6</ele>
        <time>2015-04-21T18:05:01Z</time>
      </trkpt>
      <trkpt lat="47.1806" lon="-1.60563">
        <ele>4.1</ele>
        <time>2015-04-21T18:05:04Z</time>
      </trkpt>
      <trkpt lat="47.18042" lon="-1.60555">
        <ele>4.4</ele>
        <time>2015-04-21T18:05:07Z</time>
      </trkpt>
      <trkpt lat="47.18019" lon="-1.60552">
        <ele>4.7</ele>
        <time>2015-04-21T18:05:11Z</time>
      </trkpt>
      <trkpt lat="47.17997" lon="-1.60558">
        <ele>5.7</ele>
        <time>2015-04-21T18:05:15Z</time>
      </trkpt>
      <trkpt lat="47.17976" lon="-1.60566">
        <ele>6.5</ele>
        <time>2015-04-21T18:05:19Z</time>
      </trkpt>
      <trkpt lat="47.17955" lon="-1.60576">
        <ele>6.6</ele>
        <time>2015-04-21T18:05:23Z</time>
      </trkpt>
      <trkpt lat="47.17937" lon="-1.60582">
        <ele>7.5</ele>
        <time>2015-04-21T18:05:27Z</time>
      </trkpt>
      <trkpt lat="47.17919" lon="-1.60597">
        <ele>8.3</ele>
        <time>2015-04-21T18:05:32Z</time>
      </trkpt>
      <trkpt lat="47.17909" lon="-1.60621">
        <ele>8.6</ele>
        <time>2015-04-21T18:05:35Z</time>
      </trkpt>
      <trkpt lat="47.17899" lon="-1.60649">
        <ele>9.1</ele>
        <time>2015-04-21T18:05:38Z</time>
      </trkpt>
      <trkpt lat="47.17889" lon="-1.60676">
        <ele>9.7</ele>
        <time>2015-04-21T18:05:41Z</time>
      </trkpt>
      <trkpt lat="47.17879" lon="-1.60703">
        <ele>10.1</ele>
        <time>2015-04-21T18:05:44Z</time>
      </trkpt>
      <trkpt lat="47.17871" lon="-1.6073">
        <ele>10.4</ele>
        <time>2015-04-21T18:05:47Z</time>
      </trkpt>
      <trkpt lat="47.17864" lon="-1.60757">
        <ele>10.6</ele>
        <time>2015-04-21T18:05:50Z</time>
      </trkpt>
      <trkpt lat="47.17858" lon="-1.60784">
        <ele>10.8</ele>
        <time>2015-04-21T18:05:53Z</time>
      </trkpt>
      <trkpt lat="47.17853" lon="-1.60812">
        <ele>11.2</ele>
        <time>2015-04-21T18:05:56Z</time>
      </trkpt>
      <trkpt lat="47.17844" lon="-1.60837">
        <ele>11.3</ele>
        <time>2015-04-21T18:05:59Z</time>
      </trkpt>
      <trkpt lat="47.17833" lon="-1.6086">
        <ele>11.3</ele>
        <time>2015-04-21T18:06:02Z</time>
      </trkpt>
      <trkpt lat="47.17819" lon="-1.60882">
        <ele>11.5</ele>
        <time>2015-04-21T18:06:05Z</time>
      </trkpt>
      <trkpt lat="47.178" lon="-1.60901">
        <ele>11.1</ele>
        <time>2015-04-21T18:06:08Z</time>
      </trkpt>
      <trkpt lat="47.17782" lon="-1.60917">
        <ele>10.6</ele>
        <time>2015-04-21T18:06:11Z</time>
      </trkpt>
      <trkpt lat="47.17765" lon="-1.60932">
        <ele>10.6</ele>
        <time>2015-04-21T18:06:14Z</time>
      </trkpt>
      <trkpt lat="47.17748" lon="-1.60946">
        <ele>9.5</ele>
        <time>2015-04-21T18:06:17Z</time>
      </trkpt>
      <trkpt lat="47.17732" lon="-1.60959">
        <ele>8.6</ele>
        <time>2015-04-21T18:06:20Z</time>
      </trkpt>
      <trkpt lat="47.17715" lon="-1.60973">
        <ele>7.6</ele>
        <time>2015-04-21T18:06:23Z</time>
      </trkpt>
      <trkpt lat="47.17693" lon="-1.6098">
        <ele>7.4</ele>
        <time>2015-04-21T18:06:27Z</time>
      </trkpt>
      <trkpt lat="47.17673" lon="-1.60976">
        <ele>7.4</ele>
        <time>2015-04-21T18:06:30Z</time>
      </trkpt>
      <trkpt lat="47.17653" lon="-1.60987">
        <ele>6.2</ele>
        <time>2015-04-21T18:06:33Z</time>
      </trkpt>
      <trkpt lat="47.17636" lon="-1.61002">
        <ele>4.6</ele>
        <time>2015-04-21T18:06:36Z</time>
      </trkpt>
      <trkpt lat="47.17618" lon="-1.61016">
        <ele>3.8</ele>
        <time>2015-04-21T18:06:39Z</time>
      </trkpt>
      <trkpt lat="47.17598" lon="-1.61034">
        <ele>3.7</ele>
        <time>2015-04-21T18:06:43Z</time>
      </trkpt>
      <trkpt lat="47.17581" lon="-1.61049">
        <ele>3</ele>
        <time>2015-04-21T18:06:46Z</time>
      </trkpt>
      <trkpt lat="47.17561" lon="-1.61065">
        <ele>1.7</ele>
        <time>2015-04-21T18:06:49Z</time>
      </trkpt>
      <trkpt lat="47.17544" lon="-1.6108">
        <ele>0.1</ele>
        <time>2015-04-21T18:06:52Z</time>
      </trkpt>
      <trkpt lat="47.17527" lon="-1.61095">
        <ele>-0.9</ele>
        <time>2015-04-21T18:06:55Z</time>
      </trkpt>
      <trkpt lat="47.17506" lon="-1.61108">
        <ele>-2.2</ele>
        <time>2015-04-21T18:06:59Z</time>
      </trkpt>
      <trkpt lat="47.17483" lon="-1.61107">
        <ele>-2</ele>
        <time>2015-04-21T18:07:03Z</time>
      </trkpt>
      <trkpt lat="47.17464" lon="-1.61089">
        <ele>-0.5</ele>
        <time>2015-04-21T18:07:07Z</time>
      </trkpt>
      <trkpt lat="47.17449" lon="-1.61065">
        <ele>1.3</ele>
        <time>2015-04-21T18:07:11Z</time>
      </trkpt>
      <trkpt lat="47.17439" lon="-1.61041">
        <ele>2.8</ele>
        <time>2015-04-21T18:07:15Z</time>
      </trkpt>
      <trkpt lat="47.17435" lon="-1.61069">
        <ele>8.6</ele>
        <time>2015-04-21T18:07:26Z</time>
      </trkpt>
      <trkpt lat="47.17444" lon="-1.61094">
        <ele>9.6</ele>
        <time>2015-04-21T18:07:29Z</time>
      </trkpt>
      <trkpt lat="47.17457" lon="-1.61124">
        <ele>10.4</ele>
        <time>2015-04-21T18:07:33Z</time>
      </trkpt>
      <trkpt lat="47.17469" lon="-1.61155">
        <ele>10</ele>
        <time>2015-04-21T18:07:37Z</time>
      </trkpt>
      <trkpt lat="47.1748" lon="-1.61178">
        <ele>8.3</ele>
        <time>2015-04-21T18:07:40Z</time>
      </trkpt>
      <trkpt lat="47.1749" lon="-1.612">
        <ele>5.9</ele>
        <time>2015-04-21T18:07:43Z</time>
      </trkpt>
      <trkpt lat="47.175" lon="-1.61225">
        <ele>3.5</ele>
        <time>2015-04-21T18:07:46Z</time>
      </trkpt>
      <trkpt lat="47.17511" lon="-1.61249">
        <ele>2.4</ele>
        <time>2015-04-21T18:07:49Z</time>
      </trkpt>
      <trkpt lat="47.17523" lon="-1.61269">
        <ele>1.9</ele>
        <time>2015-04-21T18:07:52Z</time>
      </trkpt>
      <trkpt lat="47.17543" lon="-1.61287">
        <ele>2.2</ele>
        <time>2015-04-21T18:07:56Z</time>
      </trkpt>
      <trkpt lat="47.1756" lon="-1.61299">
        <ele>2.1</ele>
        <time>2015-04-21T18:07:59Z</time>
      </trkpt>
      <trkpt lat="47.17567" lon="-1.61325">
        <ele>2.3</ele>
        <time>2015-04-21T18:08:02Z</time>
      </trkpt>
      <trkpt lat="47.17556" lon="-1.61349">
        <ele>3.5</ele>
        <time>2015-04-21T18:08:05Z</time>
      </trkpt>
      <trkpt lat="47.17539" lon="-1.6137">
        <ele>4.9</ele>
        <time>2015-04-21T18:08:08Z</time>
      </trkpt>
      <trkpt lat="47.17529" lon="-1.61399">
        <ele>6.7</ele>
        <time>2015-04-21T18:08:11Z</time>
      </trkpt>
      <trkpt lat="47.17524" lon="-1.61433">
        <ele>8.4</ele>
        <time>2015-04-21T18:08:14Z</time>
      </trkpt>
      <trkpt lat="47.17519" lon="-1.6146">
        <ele>9.5</ele>
        <time>2015-04-21T18:08:17Z</time>
      </trkpt>
      <trkpt lat="47.17498" lon="-1.61479">
        <ele>11.7</ele>
        <time>2015-04-21T18:08:21Z</time>
      </trkpt>
      <trkpt lat="47.17478" lon="-1.61489">
        <ele>12.6</ele>
        <time>2015-04-21T18:08:24Z</time>
      </trkpt>
      <trkpt lat="47.17459" lon="-1.61497">
        <ele>13.6</ele>
        <time>2015-04-21T18:08:27Z</time>
      </trkpt>
      <trkpt lat="47.1744" lon="-1.61506">
        <ele>14.1</ele>
        <time>2015-04-21T18:08:30Z</time>
      </trkpt>
      <trkpt lat="47.17423" lon="-1.61517">
        <ele>13.5</ele>
        <time>2015-04-21T18:08:33Z</time>
      </trkpt>
      <trkpt lat="47.17406" lon="-1.6153">
        <ele>14.3</ele>
        <time>2015-04-21T18:08:36Z</time>
      </trkpt>
      <trkpt lat="47.17385" lon="-1.61545">
        <ele>15.3</ele>
        <time>2015-04-21T18:08:40Z</time>
      </trkpt>
      <trkpt lat="47.17367" lon="-1.61564">
        <ele>15.5</ele>
        <time>2015-04-21T18:08:44Z</time>
      </trkpt>
      <trkpt lat="47.17349" lon="-1.61584">
        <ele>16.4</ele>
        <time>2015-04-21T18:08:48Z</time>
      </trkpt>
      <trkpt lat="47.1733" lon="-1.61604">
        <ele>16</ele>
        <time>2015-04-21T18:08:52Z</time>
      </trkpt>
      <trkpt lat="47.17313" lon="-1.61628">
        <ele>15.8</ele>
        <time>2015-04-21T18:08:56Z</time>
      </trkpt>
      <trkpt lat="47.17298" lon="-1.61655">
        <ele>15.2</ele>
        <time>2015-04-21T18:09:00Z</time>
      </trkpt>
      <trkpt lat="47.17286" lon="-1.61683">
        <ele>16.1</ele>
        <time>2015-04-21T18:09:04Z</time>
      </trkpt>
      <trkpt lat="47.17272" lon="-1.61711">
        <ele>16.2</ele>
        <time>2015-04-21T18:09:08Z</time>
      </trkpt>
      <trkpt lat="47.1726" lon="-1.61734">
        <ele>16.6</ele>
        <time>2015-04-21T18:09:11Z</time>
      </trkpt>
      <trkpt lat="47.17252" lon="-1.61759">
        <ele>17.5</ele>
        <time>2015-04-21T18:09:14Z</time>
      </trkpt>
      <trkpt lat="47.17245" lon="-1.61783">
        <ele>18.3</ele>
        <time>2015-04-21T18:09:17Z</time>
      </trkpt>
      <trkpt lat="47.17225" lon="-1.618">
        <ele>18.9</ele>
        <time>2015-04-21T18:09:20Z</time>
      </trkpt>
      <trkpt lat="47.17203" lon="-1.61818">
        <ele>18.4</ele>
        <time>2015-04-21T18:09:23Z</time>
      </trkpt>
      <trkpt lat="47.17183" lon="-1.61836">
        <ele>18.2</ele>
        <time>2015-04-21T18:09:26Z</time>
      </trkpt>
      <trkpt lat="47.17165" lon="-1.61853">
        <ele>18.1</ele>
        <time>2015-04-21T18:09:29Z</time>
      </trkpt>
      <trkpt lat="47.17147" lon="-1.6187">
        <ele>17</ele>
        <time>2015-04-21T18:09:32Z</time>
      </trkpt>
      <trkpt lat="47.17129" lon="-1.61888">
        <ele>16.3</ele>
        <time>2015-04-21T18:09:35Z</time>
      </trkpt>
      <trkpt lat="47.17112" lon="-1.61903">
        <ele>16.4</ele>
        <time>2015-04-21T18:09:38Z</time>
      </trkpt>
      <trkpt lat="47.17094" lon="-1.61918">
        <ele>16.9</ele>
        <time>2015-04-21T18:09:41Z</time>
      </trkpt>
      <trkpt lat="47.17079" lon="-1.61935">
        <ele>17.7</ele>
        <time>2015-04-21T18:09:44Z</time>
      </trkpt>
      <trkpt lat="47.17062" lon="-1.61953">
        <ele>16.3</ele>
        <time>2015-04-21T18:09:47Z</time>
      </trkpt>
      <trkpt lat="47.17048" lon="-1.61973">
        <ele>16</ele>
        <time>2015-04-21T18:09:50Z</time>
      </trkpt>
      <trkpt lat="47.17034" lon="-1.61995">
        <ele>15.5</ele>
        <time>2015-04-21T18:09:53Z</time>
      </trkpt>
      <trkpt lat="47.1702" lon="-1.62016">
        <ele>14</ele>
        <time>2015-04-21T18:09:56Z</time>
      </trkpt>
      <trkpt lat="47.17006" lon="-1.62039">
        <ele>13.6</ele>
        <time>2015-04-21T18:09:59Z</time>
      </trkpt>
      <trkpt lat="47.16993" lon="-1.62063">
        <ele>13.2</ele>
        <time>2015-04-21T18:10:02Z</time>
      </trkpt>
      <trkpt lat="47.1698" lon="-1.62088">
        <ele>13.7</ele>
        <time>2015-04-21T18:10:05Z</time>
      </trkpt>
      <trkpt lat="47.16967" lon="-1.62111">
        <ele>14.7</ele>
        <time>2015-04-21T18:10:08Z</time>
      </trkpt>
      <trkpt lat="47.16955" lon="-1.62136">
        <ele>15</ele>
        <time>2015-04-21T18:10:11Z</time>
      </trkpt>
      <trkpt lat="47.16942" lon="-1.62161">
        <ele>15.1</ele>
        <time>2015-04-21T18:10:14Z</time>
      </trkpt>
      <trkpt lat="47.16932" lon="-1.62186">
        <ele>15.2</ele>
        <time>2015-04-21T18:10:17Z</time>
      </trkpt>
      <trkpt lat="47.16919" lon="-1.6221">
        <ele>15</ele>
        <time>2015-04-21T18:10:20Z</time>
      </trkpt>
      <trkpt lat="47.16906" lon="-1.62232">
        <ele>14.2</ele>
        <time>2015-04-21T18:10:23Z</time>
      </trkpt>
      <trkpt lat="47.16891" lon="-1.62251">
        <ele>14.7</ele>
        <time>2015-04-21T18:10:26Z</time>
      </trkpt>
      <trkpt lat="47.16875" lon="-1.6227">
        <ele>14.1</ele>
        <time>2015-04-21T18:10:29Z</time>
      </trkpt>
      <trkpt lat="47.16858" lon="-1.62288">
        <ele>13.6</ele>
        <time>2015-04-21T18:10:32Z</time>
      </trkpt>
      <trkpt lat="47.16843" lon="-1.62306">
        <ele>13.9</ele>
        <time>2015-04-21T18:10:35Z</time>
      </trkpt>
      <trkpt lat="47.16825" lon="-1.62322">
        <ele>13.6</ele>
        <time>2015-04-21T18:10:38Z</time>
      </trkpt>
      <trkpt lat="47.16806" lon="-1.62336">
        <ele>14.1</ele>
        <time>2015-04-21T18:10:41Z</time>
      </trkpt>
      <trkpt lat="47.16787" lon="-1.62344">
        <ele>14</ele>
        <time>2015-04-21T18:10:44Z</time>
      </trkpt>
      <trkpt lat="47.16768" lon="-1.62354">
        <ele>13.6</ele>
        <time>2015-04-21T18:10:47Z</time>
      </trkpt>
      <trkpt lat="47.16748" lon="-1.6237">
        <ele>13.3</ele>
        <time>2015-04-21T18:10:50Z</time>
      </trkpt>
      <trkpt lat="47.16735" lon="-1.62396">
        <ele>13.6</ele>
        <time>2015-04-21T18:10:53Z</time>
      </trkpt>
      <trkpt lat="47.16729" lon="-1.62422">
        <ele>13.4</ele>
        <time>2015-04-21T18:10:56Z</time>
      </trkpt>
      <trkpt lat="47.16724" lon="-1.6245">
        <ele>13.4</ele>
        <time>2015-04-21T18:10:59Z</time>
      </trkpt>
      <trkpt lat="47.16718" lon="-1.6248">
        <ele>14.9</ele>
        <time>2015-04-21T18:11:02Z</time>
      </trkpt>
      <trkpt lat="47.16714" lon="-1.62507">
        <ele>17.7</ele>
        <time>2015-04-21T18:11:05Z</time>
      </trkpt>
      <trkpt lat="47.16709" lon="-1.62536">
        <ele>18.5</ele>
        <time>2015-04-21T18:11:08Z</time>
      </trkpt>
      <trkpt lat="47.16706" lon="-1.62566">
        <ele>19.7</ele>
        <time>2015-04-21T18:11:11Z</time>
      </trkpt>
      <trkpt lat="47.16704" lon="-1.62596">
        <ele>20.5</ele>
        <time>2015-04-21T18:11:14Z</time>
      </trkpt>
      <trkpt lat="47.16704" lon="-1.62626">
        <ele>21</ele>
        <time>2015-04-21T18:11:17Z</time>
      </trkpt>
      <trkpt lat="47.16707" lon="-1.62659">
        <ele>21.4</ele>
        <time>2015-04-21T18:11:20Z</time>
      </trkpt>
      <trkpt lat="47.16713" lon="-1.62687">
        <ele>20.9</ele>
        <time>2015-04-21T18:11:23Z</time>
      </trkpt>
      <trkpt lat="47.16733" lon="-1.62684">
        <ele>25.1</ele>
        <time>2015-04-21T18:11:27Z</time>
      </trkpt>
      <trkpt lat="47.16749" lon="-1.62672">
        <ele>25.3</ele>
        <time>2015-04-21T18:11:30Z</time>
      </trkpt>
      <trkpt lat="47.16766" lon="-1.6268">
        <ele>27.7</ele>
        <time>2015-04-21T18:11:34Z</time>
      </trkpt>
      <trkpt lat="47.1678" lon="-1.62661">
        <ele>30.9</ele>
        <time>2015-04-21T18:11:39Z</time>
      </trkpt>
      <trkpt lat="47.16763" lon="-1.62652">
        <ele>35.7</ele>
        <time>2015-04-21T18:12:48Z</time>
      </trkpt>
    </trkseg>
  </trk>
</gpx>